<?xml version='1.0' encoding='UTF-8'?><gpx version="1.1" creator="JPX - https://github.com/jenetics/jpx" xmlns="http://www.topografix.com/GPX/1/1"><trk><trkseg><trkpt lat="46.1687122" lon="10.2744004"><ele>883.0</ele><time>2026-04-10T12:55:41.405Z</time></trkpt><trkpt lat="46.1687247" lon="10.2745111"><ele>883.0</ele><time>2026-04-10T12:55:45.406Z</time></trkpt><trkpt lat="46.1687466" lon="10.27462"><ele>883.0</ele><time>2026-04-10T12:55:49.405Z</time></trkpt><trkpt lat="46.1687556" lon="10.2747199"><ele>883.0</ele><time>2026-04-10T12:55:53.405Z</time></trkpt><trkpt lat="46.1687601" lon="10.2748199"><ele>883.0</ele><time>2026-04-10T12:55:57.405Z</time></trkpt><trkpt lat="46.1687826" lon="10.274936"><ele>883.0</ele><time>2026-04-10T12:56:01.405Z</time></trkpt><trkpt lat="46.1687987" lon="10.2750337"><ele>883.0</ele><time>2026-04-10T12:56:04.405Z</time></trkpt><trkpt lat="46.168816" lon="10.2751503"><ele>883.5714285714286</ele><time>2026-04-10T12:56:07.404Z</time></trkpt><trkpt lat="46.168821" lon="10.2752434"><ele>884.1428571428571</ele><time>2026-04-10T12:56:09.406Z</time></trkpt><trkpt lat="46.1688268" lon="10.2753372"><ele>884.7142857142857</ele><time>2026-04-10T12:56:11.405Z</time></trkpt><trkpt lat="46.168837" lon="10.275438"><ele>885.2857142857142</ele><time>2026-04-10T12:56:13.404Z</time></trkpt><trkpt lat="46.1688499" lon="10.2755349"><ele>885.8571428571429</ele><time>2026-04-10T12:56:15.405Z</time></trkpt><trkpt lat="46.1688595" lon="10.2756275"><ele>886.4285714285713</ele><time>2026-04-10T12:56:17.406Z</time></trkpt><trkpt lat="46.1688677" lon="10.2757207"><ele>887.0</ele><time>2026-04-10T12:56:19.405Z</time></trkpt><trkpt lat="46.1688689" lon="10.2758169"><ele>887.7142857142857</ele><time>2026-04-10T12:56:21.405Z</time></trkpt><trkpt lat="46.1688823" lon="10.2759095"><ele>888.4285714285714</ele><time>2026-04-10T12:56:23.406Z</time></trkpt><trkpt lat="46.1688935" lon="10.2760026"><ele>889.1428571428571</ele><time>2026-04-10T12:56:25.404Z</time></trkpt><trkpt lat="46.1689123" lon="10.2760912"><ele>889.8571428571429</ele><time>2026-04-10T12:56:27.406Z</time></trkpt><trkpt lat="46.1689264" lon="10.2762142"><ele>890.5714285714286</ele><time>2026-04-10T12:56:30.405Z</time></trkpt><trkpt lat="46.1689311" lon="10.2763278"><ele>891.2857142857142</ele><time>2026-04-10T12:56:33.406Z</time></trkpt><trkpt lat="46.1689483" lon="10.276448"><ele>892.0</ele><time>2026-04-10T12:56:36.405Z</time></trkpt><trkpt lat="46.1689681" lon="10.2765691"><ele>892.6666666666666</ele><time>2026-04-10T12:56:39.405Z</time></trkpt><trkpt lat="46.1689885" lon="10.2766852"><ele>893.3333333333333</ele><time>2026-04-10T12:56:42.405Z</time></trkpt><trkpt lat="46.1689933" lon="10.2768064"><ele>894.0</ele><time>2026-04-10T12:56:45.404Z</time></trkpt><trkpt lat="46.1689867" lon="10.2769013"><ele>894.6666666666667</ele><time>2026-04-10T12:56:47.405Z</time></trkpt><trkpt lat="46.1689938" lon="10.2770054"><ele>895.3333333333334</ele><time>2026-04-10T12:56:49.405Z</time></trkpt><trkpt lat="46.1690083" lon="10.2771249"><ele>896.0</ele><time>2026-04-10T12:56:51.406Z</time></trkpt><trkpt lat="46.1690162" lon="10.2772484"><ele>896.0</ele><time>2026-04-10T12:56:53.405Z</time></trkpt><trkpt lat="46.1690255" lon="10.2773693"><ele>895.9999999999999</ele><time>2026-04-10T12:56:55.406Z</time></trkpt><trkpt lat="46.1690363" lon="10.2775006"><ele>895.9999999999999</ele><time>2026-04-10T12:56:57.405Z</time></trkpt><trkpt lat="46.1690453" lon="10.2776335"><ele>896.0</ele><time>2026-04-10T12:56:59.406Z</time></trkpt><trkpt lat="46.1690564" lon="10.2777759"><ele>896.0</ele><time>2026-04-10T12:57:01.405Z</time></trkpt><trkpt lat="46.1690883" lon="10.2779266"><ele>893.5</ele><time>2026-04-10T12:57:03.405Z</time></trkpt><trkpt lat="46.1691088" lon="10.2780796"><ele>891.0</ele><time>2026-04-10T12:57:05.405Z</time></trkpt><trkpt lat="46.1691196" lon="10.2782349"><ele>888.5</ele><time>2026-04-10T12:57:07.405Z</time></trkpt><trkpt lat="46.1691249" lon="10.2784013"><ele>886.0</ele><time>2026-04-10T12:57:09.405Z</time></trkpt><trkpt lat="46.1691414" lon="10.2785822"><ele>885.7142857142858</ele><time>2026-04-10T12:57:11.404Z</time></trkpt><trkpt lat="46.1691487" lon="10.2786776"><ele>885.4285714285714</ele><time>2026-04-10T12:57:12.406Z</time></trkpt><trkpt lat="46.1691523" lon="10.2787771"><ele>885.1428571428571</ele><time>2026-04-10T12:57:13.404Z</time></trkpt><trkpt lat="46.1691592" lon="10.2788806"><ele>884.8571428571429</ele><time>2026-04-10T12:57:14.406Z</time></trkpt><trkpt lat="46.1691657" lon="10.2789866"><ele>884.5714285714286</ele><time>2026-04-10T12:57:15.406Z</time></trkpt><trkpt lat="46.1691706" lon="10.2790965"><ele>884.2857142857143</ele><time>2026-04-10T12:57:16.404Z</time></trkpt><trkpt lat="46.1691772" lon="10.2792068"><ele>884.0</ele><time>2026-04-10T12:57:17.405Z</time></trkpt><trkpt lat="46.169184" lon="10.279319"><ele>883.1666666666667</ele><time>2026-04-10T12:57:18.405Z</time></trkpt><trkpt lat="46.1691951" lon="10.2794373"><ele>882.3333333333334</ele><time>2026-04-10T12:57:19.404Z</time></trkpt><trkpt lat="46.1692038" lon="10.2795616"><ele>881.5</ele><time>2026-04-10T12:57:20.405Z</time></trkpt><trkpt lat="46.1692101" lon="10.279693"><ele>880.6666666666667</ele><time>2026-04-10T12:57:21.404Z</time></trkpt><trkpt lat="46.1692252" lon="10.2798247"><ele>879.8333333333334</ele><time>2026-04-10T12:57:22.404Z</time></trkpt><trkpt lat="46.1692404" lon="10.2799603"><ele>879.0</ele><time>2026-04-10T12:57:23.405Z</time></trkpt><trkpt lat="46.1692573" lon="10.2800973"><ele>878.8000000000001</ele><time>2026-04-10T12:57:24.405Z</time></trkpt><trkpt lat="46.1692721" lon="10.2802387"><ele>878.6000000000001</ele><time>2026-04-10T12:57:25.405Z</time></trkpt><trkpt lat="46.1692884" lon="10.2803857"><ele>878.4</ele><time>2026-04-10T12:57:26.404Z</time></trkpt><trkpt lat="46.1693058" lon="10.280531"><ele>878.2</ele><time>2026-04-10T12:57:27.404Z</time></trkpt><trkpt lat="46.1693259" lon="10.2806783"><ele>878.0</ele><time>2026-04-10T12:57:28.405Z</time></trkpt><trkpt lat="46.1693479" lon="10.2808237"><ele>879.0</ele><time>2026-04-10T12:57:29.405Z</time></trkpt><trkpt lat="46.1693644" lon="10.2809707"><ele>880.0</ele><time>2026-04-10T12:57:30.406Z</time></trkpt><trkpt lat="46.1693824" lon="10.2811117"><ele>881.0</ele><time>2026-04-10T12:57:31.404Z</time></trkpt><trkpt lat="46.1694032" lon="10.2812555"><ele>882.0</ele><time>2026-04-10T12:57:32.405Z</time></trkpt><trkpt lat="46.1694182" lon="10.2814017"><ele>883.0</ele><time>2026-04-10T12:57:33.405Z</time></trkpt><trkpt lat="46.1694397" lon="10.2815474"><ele>884.0</ele><time>2026-04-10T12:57:34.405Z</time></trkpt><trkpt lat="46.1694559" lon="10.2816974"><ele>885.0</ele><time>2026-04-10T12:57:35.405Z</time></trkpt><trkpt lat="46.1694723" lon="10.2818388"><ele>886.0</ele><time>2026-04-10T12:57:36.404Z</time></trkpt><trkpt lat="46.1694857" lon="10.281985"><ele>887.0</ele><time>2026-04-10T12:57:37.405Z</time></trkpt><trkpt lat="46.1694964" lon="10.2821291"><ele>888.0</ele><time>2026-04-10T12:57:38.404Z</time></trkpt><trkpt lat="46.1694977" lon="10.2822797"><ele>888.8</ele><time>2026-04-10T12:57:39.405Z</time></trkpt><trkpt lat="46.169499" lon="10.2824293"><ele>889.5999999999999</ele><time>2026-04-10T12:57:40.405Z</time></trkpt><trkpt lat="46.1695028" lon="10.2825849"><ele>890.4000000000001</ele><time>2026-04-10T12:57:41.405Z</time></trkpt><trkpt lat="46.1695032" lon="10.2827403"><ele>891.2</ele><time>2026-04-10T12:57:42.406Z</time></trkpt><trkpt lat="46.1695027" lon="10.2828985"><ele>892.0</ele><time>2026-04-10T12:57:43.405Z</time></trkpt><trkpt lat="46.1695035" lon="10.283055"><ele>893.25</ele><time>2026-04-10T12:57:44.404Z</time></trkpt><trkpt lat="46.1695029" lon="10.283216"><ele>894.5</ele><time>2026-04-10T12:57:45.404Z</time></trkpt><trkpt lat="46.1695247" lon="10.2833788"><ele>895.75</ele><time>2026-04-10T12:57:46.406Z</time></trkpt><trkpt lat="46.1695466" lon="10.2835449"><ele>897.0</ele><time>2026-04-10T12:57:47.406Z</time></trkpt><trkpt lat="46.1695818" lon="10.2837081"><ele>897.0</ele><time>2026-04-10T12:57:48.405Z</time></trkpt><trkpt lat="46.1696197" lon="10.2838739"><ele>897.0</ele><time>2026-04-10T12:57:49.405Z</time></trkpt><trkpt lat="46.1696708" lon="10.2840343"><ele>897.0</ele><time>2026-04-10T12:57:50.405Z</time></trkpt><trkpt lat="46.1697261" lon="10.2841961"><ele>897.0</ele><time>2026-04-10T12:57:51.405Z</time></trkpt><trkpt lat="46.1697835" lon="10.2843623"><ele>899.0</ele><time>2026-04-10T12:57:52.404Z</time></trkpt><trkpt lat="46.1698393" lon="10.2845333"><ele>901.0</ele><time>2026-04-10T12:57:53.406Z</time></trkpt><trkpt lat="46.1698998" lon="10.2847032"><ele>903.0</ele><time>2026-04-10T12:57:54.405Z</time></trkpt><trkpt lat="46.1699642" lon="10.2848733"><ele>905.0</ele><time>2026-04-10T12:57:55.406Z</time></trkpt><trkpt lat="46.1700268" lon="10.2850481"><ele>892.5</ele><time>2026-04-10T12:57:56.405Z</time></trkpt><trkpt lat="46.1700863" lon="10.2852234"><ele>880.0</ele><time>2026-04-10T12:57:57.405Z</time></trkpt><trkpt lat="46.1701327" lon="10.2853991"><ele>867.5</ele><time>2026-04-10T12:57:58.405Z</time></trkpt><trkpt lat="46.1701526" lon="10.2855828"><ele>855.0</ele><time>2026-04-10T12:57:59.405Z</time></trkpt><trkpt lat="46.1701419" lon="10.2857688"><ele>854.5</ele><time>2026-04-10T12:58:00.404Z</time></trkpt><trkpt lat="46.1701002" lon="10.2859479"><ele>854.0</ele><time>2026-04-10T12:58:01.405Z</time></trkpt><trkpt lat="46.170041" lon="10.2861199"><ele>853.5</ele><time>2026-04-10T12:58:02.405Z</time></trkpt><trkpt lat="46.1699795" lon="10.2862949"><ele>853.0</ele><time>2026-04-10T12:58:03.406Z</time></trkpt><trkpt lat="46.169919" lon="10.2864757"><ele>849.25</ele><time>2026-04-10T12:58:04.404Z</time></trkpt><trkpt lat="46.1698593" lon="10.2866577"><ele>845.5</ele><time>2026-04-10T12:58:05.404Z</time></trkpt><trkpt lat="46.169799" lon="10.2868415"><ele>841.75</ele><time>2026-04-10T12:58:06.404Z</time></trkpt><trkpt lat="46.1697366" lon="10.2870253"><ele>838.0</ele><time>2026-04-10T12:58:07.404Z</time></trkpt><trkpt lat="46.1696787" lon="10.2872026"><ele>845.5</ele><time>2026-04-10T12:58:08.405Z</time></trkpt><trkpt lat="46.169628" lon="10.2873735"><ele>853.0</ele><time>2026-04-10T12:58:09.406Z</time></trkpt><trkpt lat="46.1696199" lon="10.2875564"><ele>860.5</ele><time>2026-04-10T12:58:10.404Z</time></trkpt><trkpt lat="46.1696364" lon="10.287735"><ele>868.0</ele><time>2026-04-10T12:58:11.405Z</time></trkpt><trkpt lat="46.1696676" lon="10.2878943"><ele>868.0</ele><time>2026-04-10T12:58:12.405Z</time></trkpt><trkpt lat="46.1697241" lon="10.2880452"><ele>868.0</ele><time>2026-04-10T12:58:13.405Z</time></trkpt><trkpt lat="46.1697616" lon="10.288191"><ele>868.0</ele><time>2026-04-10T12:58:14.406Z</time></trkpt><trkpt lat="46.169792" lon="10.2883368"><ele>868.0</ele><time>2026-04-10T12:58:15.405Z</time></trkpt><trkpt lat="46.1698131" lon="10.2884783"><ele>868.0</ele><time>2026-04-10T12:58:16.405Z</time></trkpt><trkpt lat="46.1698236" lon="10.2886133"><ele>868.1666666666666</ele><time>2026-04-10T12:58:17.405Z</time></trkpt><trkpt lat="46.1698211" lon="10.2887417"><ele>868.3333333333333</ele><time>2026-04-10T12:58:18.406Z</time></trkpt><trkpt lat="46.1698161" lon="10.2888623"><ele>868.5</ele><time>2026-04-10T12:58:19.406Z</time></trkpt><trkpt lat="46.1698094" lon="10.2889811"><ele>868.6666666666667</ele><time>2026-04-10T12:58:20.406Z</time></trkpt><trkpt lat="46.169813" lon="10.2890911"><ele>868.8333333333334</ele><time>2026-04-10T12:58:21.404Z</time></trkpt><trkpt lat="46.1698207" lon="10.2891947"><ele>869.0</ele><time>2026-04-10T12:58:22.405Z</time></trkpt><trkpt lat="46.1698304" lon="10.2892906"><ele>868.4000000000001</ele><time>2026-04-10T12:58:23.405Z</time></trkpt><trkpt lat="46.1698466" lon="10.2893797"><ele>867.8000000000001</ele><time>2026-04-10T12:58:24.405Z</time></trkpt><trkpt lat="46.1698668" lon="10.2895506"><ele>867.1999999999999</ele><time>2026-04-10T12:58:26.404Z</time></trkpt><trkpt lat="46.169903" lon="10.2896948"><ele>866.5999999999999</ele><time>2026-04-10T12:58:28.405Z</time></trkpt><trkpt lat="46.1699263" lon="10.2898259"><ele>866.0</ele><time>2026-04-10T12:58:30.406Z</time></trkpt><trkpt lat="46.16995" lon="10.2899198"><ele>861.6666666666667</ele><time>2026-04-10T12:58:32.405Z</time></trkpt><trkpt lat="46.1699557" lon="10.2900506"><ele>857.3333333333334</ele><time>2026-04-10T12:58:35.405Z</time></trkpt><trkpt lat="46.1699563" lon="10.2901477"><ele>853.0</ele><time>2026-04-10T12:58:37.404Z</time></trkpt><trkpt lat="46.1699362" lon="10.2902547"><ele>848.6666666666667</ele><time>2026-04-10T12:58:39.406Z</time></trkpt><trkpt lat="46.1699074" lon="10.2903713"><ele>844.3333333333334</ele><time>2026-04-10T12:58:41.406Z</time></trkpt><trkpt lat="46.1698843" lon="10.2904903"><ele>840.0</ele><time>2026-04-10T12:58:43.406Z</time></trkpt><trkpt lat="46.1698491" lon="10.290606"><ele>840.0</ele><time>2026-04-10T12:58:45.405Z</time></trkpt><trkpt lat="46.1697926" lon="10.2907066"><ele>840.0</ele><time>2026-04-10T12:58:47.404Z</time></trkpt><trkpt lat="46.1697186" lon="10.2907738"><ele>840.0</ele><time>2026-04-10T12:58:49.406Z</time></trkpt><trkpt lat="46.1696353" lon="10.2907881"><ele>840.0</ele><time>2026-04-10T12:58:51.404Z</time></trkpt><trkpt lat="46.1695511" lon="10.2907833"><ele>840.0</ele><time>2026-04-10T12:58:53.406Z</time></trkpt><trkpt lat="46.169445" lon="10.2907961"><ele>840.0</ele><time>2026-04-10T12:58:55.404Z</time></trkpt><trkpt lat="46.1693603" lon="10.2909156"><ele>840.0</ele><time>2026-04-10T12:58:57.406Z</time></trkpt><trkpt lat="46.1693794" lon="10.2910989"><ele>840.0</ele><time>2026-04-10T12:58:59.405Z</time></trkpt><trkpt lat="46.1694151" lon="10.2911995"><ele>840.0</ele><time>2026-04-10T12:59:00.405Z</time></trkpt><trkpt lat="46.1694683" lon="10.2912841"><ele>840.0</ele><time>2026-04-10T12:59:01.405Z</time></trkpt><trkpt lat="46.1695351" lon="10.2913533"><ele>840.0</ele><time>2026-04-10T12:59:02.405Z</time></trkpt><trkpt lat="46.1696115" lon="10.2914137"><ele>840.0</ele><time>2026-04-10T12:59:03.406Z</time></trkpt><trkpt lat="46.1696831" lon="10.2914794"><ele>840.0</ele><time>2026-04-10T12:59:04.406Z</time></trkpt><trkpt lat="46.1697557" lon="10.2915511"><ele>840.0</ele><time>2026-04-10T12:59:05.406Z</time></trkpt><trkpt lat="46.1698298" lon="10.2916209"><ele>840.0</ele><time>2026-04-10T12:59:06.404Z</time></trkpt><trkpt lat="46.1699003" lon="10.291694"><ele>840.0</ele><time>2026-04-10T12:59:07.404Z</time></trkpt><trkpt lat="46.1699616" lon="10.2917689"><ele>837.0</ele><time>2026-04-10T12:59:08.405Z</time></trkpt><trkpt lat="46.1700102" lon="10.2918605"><ele>834.0</ele><time>2026-04-10T12:59:09.404Z</time></trkpt><trkpt lat="46.1700255" lon="10.291983"><ele>831.0</ele><time>2026-04-10T12:59:10.406Z</time></trkpt><trkpt lat="46.1700171" lon="10.292106"><ele>828.0</ele><time>2026-04-10T12:59:11.406Z</time></trkpt><trkpt lat="46.1700088" lon="10.2922294"><ele>825.0</ele><time>2026-04-10T12:59:12.405Z</time></trkpt><trkpt lat="46.1700022" lon="10.2923604"><ele>822.0</ele><time>2026-04-10T12:59:13.404Z</time></trkpt><trkpt lat="46.1699981" lon="10.2924933"><ele>822.0</ele><time>2026-04-10T12:59:14.405Z</time></trkpt><trkpt lat="46.1700027" lon="10.2926307"><ele>822.0</ele><time>2026-04-10T12:59:15.405Z</time></trkpt><trkpt lat="46.1700157" lon="10.2927769"><ele>822.0</ele><time>2026-04-10T12:59:16.404Z</time></trkpt><trkpt lat="46.1700356" lon="10.2929322"><ele>822.0</ele><time>2026-04-10T12:59:17.405Z</time></trkpt><trkpt lat="46.1700559" lon="10.2930895"><ele>822.0</ele><time>2026-04-10T12:59:18.405Z</time></trkpt><trkpt lat="46.1700966" lon="10.2932648"><ele>821.4000000000001</ele><time>2026-04-10T12:59:19.405Z</time></trkpt><trkpt lat="46.1701142" lon="10.2934364"><ele>820.8000000000001</ele><time>2026-04-10T12:59:20.405Z</time></trkpt><trkpt lat="46.1701087" lon="10.2935985"><ele>820.2</ele><time>2026-04-10T12:59:21.405Z</time></trkpt><trkpt lat="46.1700731" lon="10.2937359"><ele>819.6</ele><time>2026-04-10T12:59:22.406Z</time></trkpt><trkpt lat="46.1700051" lon="10.293854"><ele>819.0</ele><time>2026-04-10T12:59:23.405Z</time></trkpt><trkpt lat="46.1699355" lon="10.2939726"><ele>812.75</ele><time>2026-04-10T12:59:24.404Z</time></trkpt><trkpt lat="46.1698911" lon="10.2941351"><ele>806.5</ele><time>2026-04-10T12:59:25.405Z</time></trkpt><trkpt lat="46.1698774" lon="10.2943105"><ele>800.25</ele><time>2026-04-10T12:59:26.405Z</time></trkpt><trkpt lat="46.1698939" lon="10.2944916"><ele>794.0</ele><time>2026-04-10T12:59:27.405Z</time></trkpt><trkpt lat="46.1699275" lon="10.2946717"><ele>790.75</ele><time>2026-04-10T12:59:28.406Z</time></trkpt><trkpt lat="46.1699562" lon="10.2948572"><ele>787.5</ele><time>2026-04-10T12:59:29.405Z</time></trkpt><trkpt lat="46.1699787" lon="10.2950468"><ele>784.25</ele><time>2026-04-10T12:59:30.406Z</time></trkpt><trkpt lat="46.1699794" lon="10.2952388"><ele>781.0</ele><time>2026-04-10T12:59:31.405Z</time></trkpt><trkpt lat="46.1699381" lon="10.2954205"><ele>781.0</ele><time>2026-04-10T12:59:32.405Z</time></trkpt><trkpt lat="46.169872" lon="10.2955834"><ele>781.0</ele><time>2026-04-10T12:59:33.405Z</time></trkpt><trkpt lat="46.1697926" lon="10.2957422"><ele>781.0</ele><time>2026-04-10T12:59:34.405Z</time></trkpt><trkpt lat="46.1697113" lon="10.2959072"><ele>781.0</ele><time>2026-04-10T12:59:35.405Z</time></trkpt><trkpt lat="46.1696394" lon="10.2960902"><ele>785.25</ele><time>2026-04-10T12:59:36.405Z</time></trkpt><trkpt lat="46.1695951" lon="10.2962942"><ele>789.5</ele><time>2026-04-10T12:59:37.405Z</time></trkpt><trkpt lat="46.1695657" lon="10.2965027"><ele>793.75</ele><time>2026-04-10T12:59:38.405Z</time></trkpt><trkpt lat="46.1695579" lon="10.2967213"><ele>798.0</ele><time>2026-04-10T12:59:39.404Z</time></trkpt><trkpt lat="46.1695821" lon="10.2969386"><ele>798.0</ele><time>2026-04-10T12:59:40.404Z</time></trkpt><trkpt lat="46.1696215" lon="10.2971533"><ele>798.0</ele><time>2026-04-10T12:59:41.404Z</time></trkpt><trkpt lat="46.1696709" lon="10.2973735"><ele>798.0</ele><time>2026-04-10T12:59:42.405Z</time></trkpt><trkpt lat="46.1697168" lon="10.2975962"><ele>795.0</ele><time>2026-04-10T12:59:43.405Z</time></trkpt><trkpt lat="46.1697605" lon="10.2978234"><ele>792.0</ele><time>2026-04-10T12:59:44.404Z</time></trkpt><trkpt lat="46.1697986" lon="10.2980548"><ele>789.0</ele><time>2026-04-10T12:59:45.404Z</time></trkpt><trkpt lat="46.1698221" lon="10.2982913"><ele>785.0</ele><time>2026-04-10T12:59:46.404Z</time></trkpt><trkpt lat="46.1698317" lon="10.2985332"><ele>781.0</ele><time>2026-04-10T12:59:47.405Z</time></trkpt><trkpt lat="46.1698484" lon="10.2987629"><ele>777.0</ele><time>2026-04-10T12:59:48.404Z</time></trkpt><trkpt lat="46.1698731" lon="10.2989741"><ele>768.0</ele><time>2026-04-10T12:59:49.406Z</time></trkpt><trkpt lat="46.1699085" lon="10.2991669"><ele>759.0</ele><time>2026-04-10T12:59:50.406Z</time></trkpt><trkpt lat="46.1699872" lon="10.2993406"><ele>750.0</ele><time>2026-04-10T12:59:51.406Z</time></trkpt><trkpt lat="46.1700822" lon="10.2994938"><ele>741.0</ele><time>2026-04-10T12:59:52.406Z</time></trkpt><trkpt lat="46.1701681" lon="10.2996726"><ele>740.5</ele><time>2026-04-10T12:59:53.405Z</time></trkpt><trkpt lat="46.1702432" lon="10.2998485"><ele>740.0</ele><time>2026-04-10T12:59:54.406Z</time></trkpt><trkpt lat="46.1702961" lon="10.3000197"><ele>739.5</ele><time>2026-04-10T12:59:55.405Z</time></trkpt><trkpt lat="46.1703104" lon="10.3001984"><ele>739.0</ele><time>2026-04-10T12:59:56.406Z</time></trkpt><trkpt lat="46.1702852" lon="10.3003706"><ele>739.0</ele><time>2026-04-10T12:59:57.406Z</time></trkpt><trkpt lat="46.1702261" lon="10.3005249"><ele>739.0</ele><time>2026-04-10T12:59:58.405Z</time></trkpt><trkpt lat="46.1701681" lon="10.3006756"><ele>739.0</ele><time>2026-04-10T12:59:59.405Z</time></trkpt><trkpt lat="46.1701583" lon="10.3008261"><ele>739.0</ele><time>2026-04-10T13:00:00.405Z</time></trkpt><trkpt lat="46.1701981" lon="10.3009827"><ele>739.0</ele><time>2026-04-10T13:00:01.405Z</time></trkpt><trkpt lat="46.1702382" lon="10.3011413"><ele>739.0</ele><time>2026-04-10T13:00:02.405Z</time></trkpt><trkpt lat="46.1702945" lon="10.3012932"><ele>739.0</ele><time>2026-04-10T13:00:03.405Z</time></trkpt><trkpt lat="46.1703469" lon="10.3014544"><ele>739.0</ele><time>2026-04-10T13:00:04.405Z</time></trkpt><trkpt lat="46.1704038" lon="10.3016222"><ele>739.0</ele><time>2026-04-10T13:00:05.404Z</time></trkpt><trkpt lat="46.1704643" lon="10.3017916"><ele>739.0</ele><time>2026-04-10T13:00:06.404Z</time></trkpt><trkpt lat="46.1705322" lon="10.3019653"><ele>739.0</ele><time>2026-04-10T13:00:07.406Z</time></trkpt><trkpt lat="46.1705993" lon="10.3021417"><ele>739.0</ele><time>2026-04-10T13:00:08.405Z</time></trkpt><trkpt lat="46.1706684" lon="10.3023232"><ele>731.25</ele><time>2026-04-10T13:00:09.405Z</time></trkpt><trkpt lat="46.1707353" lon="10.3025036"><ele>723.5</ele><time>2026-04-10T13:00:10.405Z</time></trkpt><trkpt lat="46.1708074" lon="10.3026858"><ele>715.75</ele><time>2026-04-10T13:00:11.404Z</time></trkpt><trkpt lat="46.1708819" lon="10.302868"><ele>708.0</ele><time>2026-04-10T13:00:12.404Z</time></trkpt><trkpt lat="46.1709585" lon="10.3030456"><ele>710.0</ele><time>2026-04-10T13:00:13.405Z</time></trkpt><trkpt lat="46.1710429" lon="10.3032182"><ele>712.0</ele><time>2026-04-10T13:00:14.405Z</time></trkpt><trkpt lat="46.1711239" lon="10.3033958"><ele>714.0</ele><time>2026-04-10T13:00:15.405Z</time></trkpt><trkpt lat="46.1711823" lon="10.30359"><ele>716.0</ele><time>2026-04-10T13:00:16.404Z</time></trkpt><trkpt lat="46.1712245" lon="10.3037882"><ele>718.5</ele><time>2026-04-10T13:00:17.405Z</time></trkpt><trkpt lat="46.1712749" lon="10.3039653"><ele>721.0</ele><time>2026-04-10T13:00:18.405Z</time></trkpt><trkpt lat="46.1713317" lon="10.3041221"><ele>723.5</ele><time>2026-04-10T13:00:19.405Z</time></trkpt><trkpt lat="46.171402" lon="10.3042432"><ele>726.0</ele><time>2026-04-10T13:00:20.405Z</time></trkpt><trkpt lat="46.1714821" lon="10.3043351"><ele>719.5</ele><time>2026-04-10T13:00:21.405Z</time></trkpt><trkpt lat="46.171561" lon="10.30441"><ele>713.0</ele><time>2026-04-10T13:00:22.406Z</time></trkpt><trkpt lat="46.1716298" lon="10.3044782"><ele>706.5</ele><time>2026-04-10T13:00:23.406Z</time></trkpt><trkpt lat="46.1716936" lon="10.3045401"><ele>700.0</ele><time>2026-04-10T13:00:24.406Z</time></trkpt><trkpt lat="46.1717529" lon="10.3045991"><ele>693.5</ele><time>2026-04-10T13:00:25.404Z</time></trkpt><trkpt lat="46.1718075" lon="10.3046557"><ele>687.0</ele><time>2026-04-10T13:00:26.406Z</time></trkpt><trkpt lat="46.1718988" lon="10.304755"><ele>687.0</ele><time>2026-04-10T13:00:28.404Z</time></trkpt><trkpt lat="46.1719296" lon="10.3048433"><ele>687.0</ele><time>2026-04-10T13:00:30.406Z</time></trkpt><trkpt lat="46.1718924" lon="10.3049269"><ele>687.0</ele><time>2026-04-10T13:00:34.407Z</time></trkpt><trkpt lat="46.1718505" lon="10.3050182"><ele>687.0</ele><time>2026-04-10T13:00:56.407Z</time></trkpt><trkpt lat="46.1718092" lon="10.3051293"><ele>687.0</ele><time>2026-04-10T13:00:59.407Z</time></trkpt><trkpt lat="46.1718421" lon="10.3052309"><ele>687.0</ele><time>2026-04-10T13:01:01.406Z</time></trkpt><trkpt lat="46.1718834" lon="10.305327"><ele>687.0</ele><time>2026-04-10T13:01:03.406Z</time></trkpt><trkpt lat="46.1719169" lon="10.3054208"><ele>687.0</ele><time>2026-04-10T13:01:05.405Z</time></trkpt><trkpt lat="46.1719436" lon="10.305524"><ele>687.0</ele><time>2026-04-10T13:01:07.406Z</time></trkpt><trkpt lat="46.1719672" lon="10.3056277"><ele>687.0</ele><time>2026-04-10T13:01:09.406Z</time></trkpt><trkpt lat="46.1719845" lon="10.3057352"><ele>687.0</ele><time>2026-04-10T13:01:11.405Z</time></trkpt><trkpt lat="46.1719964" lon="10.3058476"><ele>687.0</ele><time>2026-04-10T13:01:13.406Z</time></trkpt><trkpt lat="46.1720078" lon="10.3059645"><ele>687.1666666666666</ele><time>2026-04-10T13:01:15.406Z</time></trkpt><trkpt lat="46.1720126" lon="10.3060819"><ele>687.3333333333334</ele><time>2026-04-10T13:01:17.405Z</time></trkpt><trkpt lat="46.1720208" lon="10.3062061"><ele>687.5</ele><time>2026-04-10T13:01:19.407Z</time></trkpt><trkpt lat="46.1720204" lon="10.3063386"><ele>687.6666666666667</ele><time>2026-04-10T13:01:21.406Z</time></trkpt><trkpt lat="46.1720198" lon="10.3064704"><ele>687.8333333333334</ele><time>2026-04-10T13:01:23.407Z</time></trkpt><trkpt lat="46.1720185" lon="10.3065975"><ele>688.0</ele><time>2026-04-10T13:01:25.407Z</time></trkpt><trkpt lat="46.172026" lon="10.3067192"><ele>688.6666666666667</ele><time>2026-04-10T13:01:27.406Z</time></trkpt><trkpt lat="46.1720276" lon="10.3068412"><ele>689.3333333333334</ele><time>2026-04-10T13:01:29.407Z</time></trkpt><trkpt lat="46.1720347" lon="10.3069635"><ele>690.0</ele><time>2026-04-10T13:01:31.407Z</time></trkpt><trkpt lat="46.1720348" lon="10.3070879"><ele>690.6666666666666</ele><time>2026-04-10T13:01:33.406Z</time></trkpt><trkpt lat="46.1720313" lon="10.3072174"><ele>691.3333333333333</ele><time>2026-04-10T13:01:35.405Z</time></trkpt><trkpt lat="46.1720251" lon="10.307355"><ele>692.0</ele><time>2026-04-10T13:01:37.406Z</time></trkpt><trkpt lat="46.1720274" lon="10.3074955"><ele>693.2</ele><time>2026-04-10T13:01:39.405Z</time></trkpt><trkpt lat="46.1720416" lon="10.3076401"><ele>694.4000000000001</ele><time>2026-04-10T13:01:41.405Z</time></trkpt><trkpt lat="46.172072" lon="10.3077885"><ele>695.5999999999999</ele><time>2026-04-10T13:01:43.405Z</time></trkpt><trkpt lat="46.1721057" lon="10.3079337"><ele>696.8</ele><time>2026-04-10T13:01:45.407Z</time></trkpt><trkpt lat="46.1721405" lon="10.3080791"><ele>698.0</ele><time>2026-04-10T13:01:47.406Z</time></trkpt><trkpt lat="46.1721742" lon="10.3082282"><ele>699.0</ele><time>2026-04-10T13:01:49.405Z</time></trkpt><trkpt lat="46.1722095" lon="10.3083857"><ele>700.0</ele><time>2026-04-10T13:01:51.406Z</time></trkpt><trkpt lat="46.1722483" lon="10.3085417"><ele>701.0</ele><time>2026-04-10T13:01:53.406Z</time></trkpt><trkpt lat="46.1722871" lon="10.3086925"><ele>702.0</ele><time>2026-04-10T13:01:55.406Z</time></trkpt><trkpt lat="46.1723216" lon="10.3088381"><ele>703.0</ele><time>2026-04-10T13:01:57.406Z</time></trkpt><trkpt lat="46.1723826" lon="10.3089661"><ele>698.8333333333334</ele><time>2026-04-10T13:01:59.407Z</time></trkpt><trkpt lat="46.1724906" lon="10.3090167"><ele>694.6666666666667</ele><time>2026-04-10T13:02:01.407Z</time></trkpt><trkpt lat="46.1725976" lon="10.3090812"><ele>690.5</ele><time>2026-04-10T13:02:03.407Z</time></trkpt><trkpt lat="46.1726504" lon="10.3091321"><ele>686.3333333333334</ele><time>2026-04-10T13:02:04.405Z</time></trkpt><trkpt lat="46.1726945" lon="10.3092031"><ele>682.1666666666666</ele><time>2026-04-10T13:02:05.406Z</time></trkpt><trkpt lat="46.1727248" lon="10.3092859"><ele>678.0</ele><time>2026-04-10T13:02:06.406Z</time></trkpt><trkpt lat="46.17275" lon="10.309371"><ele>678.0</ele><time>2026-04-10T13:02:07.406Z</time></trkpt><trkpt lat="46.1727735" lon="10.3094593"><ele>678.0</ele><time>2026-04-10T13:02:08.407Z</time></trkpt><trkpt lat="46.1728133" lon="10.3095408"><ele>678.0</ele><time>2026-04-10T13:02:09.406Z</time></trkpt><trkpt lat="46.1728587" lon="10.3096201"><ele>678.0</ele><time>2026-04-10T13:02:10.405Z</time></trkpt><trkpt lat="46.1729016" lon="10.3097079"><ele>678.0</ele><time>2026-04-10T13:02:11.406Z</time></trkpt><trkpt lat="46.1729408" lon="10.3098026"><ele>678.0</ele><time>2026-04-10T13:02:12.407Z</time></trkpt><trkpt lat="46.1729861" lon="10.30988"><ele>678.0</ele><time>2026-04-10T13:02:13.406Z</time></trkpt><trkpt lat="46.1730344" lon="10.3099457"><ele>677.6666666666666</ele><time>2026-04-10T13:02:14.406Z</time></trkpt><trkpt lat="46.1730951" lon="10.3100471"><ele>677.3333333333334</ele><time>2026-04-10T13:02:16.405Z</time></trkpt><trkpt lat="46.1731339" lon="10.310126"><ele>677.0</ele><time>2026-04-10T13:03:01.406Z</time></trkpt><trkpt lat="46.1731748" lon="10.3102225"><ele>676.6666666666667</ele><time>2026-04-10T13:03:04.406Z</time></trkpt><trkpt lat="46.1732386" lon="10.3103301"><ele>676.3333333333334</ele><time>2026-04-10T13:03:07.405Z</time></trkpt><trkpt lat="46.1732899" lon="10.3104512"><ele>676.0</ele><time>2026-04-10T13:03:09.405Z</time></trkpt><trkpt lat="46.1733409" lon="10.3105921"><ele>676.0</ele><time>2026-04-10T13:03:11.405Z</time></trkpt><trkpt lat="46.1733941" lon="10.3107481"><ele>676.0</ele><time>2026-04-10T13:03:13.406Z</time></trkpt><trkpt lat="46.173423" lon="10.3109236"><ele>676.0</ele><time>2026-04-10T13:03:15.406Z</time></trkpt><trkpt lat="46.173454" lon="10.3110927"><ele>676.0</ele><time>2026-04-10T13:03:17.406Z</time></trkpt><trkpt lat="46.1734756" lon="10.3112499"><ele>676.0</ele><time>2026-04-10T13:03:19.405Z</time></trkpt><trkpt lat="46.1734946" lon="10.3114011"><ele>676.0</ele><time>2026-04-10T13:03:21.407Z</time></trkpt><trkpt lat="46.1735081" lon="10.3115424"><ele>676.0</ele><time>2026-04-10T13:03:23.406Z</time></trkpt><trkpt lat="46.1735169" lon="10.3116785"><ele>676.0</ele><time>2026-04-10T13:03:25.406Z</time></trkpt><trkpt lat="46.1735276" lon="10.3118274"><ele>676.0</ele><time>2026-04-10T13:03:27.406Z</time></trkpt><trkpt lat="46.1735381" lon="10.3119787"><ele>676.3333333333334</ele><time>2026-04-10T13:03:29.406Z</time></trkpt><trkpt lat="46.1735426" lon="10.3121211"><ele>676.6666666666667</ele><time>2026-04-10T13:03:31.406Z</time></trkpt><trkpt lat="46.1735466" lon="10.312255"><ele>677.0</ele><time>2026-04-10T13:03:33.406Z</time></trkpt><trkpt lat="46.1735402" lon="10.3123791"><ele>677.3333333333334</ele><time>2026-04-10T13:03:35.407Z</time></trkpt><trkpt lat="46.1735338" lon="10.3125015"><ele>677.6666666666666</ele><time>2026-04-10T13:03:37.407Z</time></trkpt><trkpt lat="46.1735316" lon="10.3126268"><ele>678.0</ele><time>2026-04-10T13:03:39.405Z</time></trkpt><trkpt lat="46.1735431" lon="10.3127645"><ele>679.1666666666666</ele><time>2026-04-10T13:03:41.406Z</time></trkpt><trkpt lat="46.1735981" lon="10.3128937"><ele>680.3333333333334</ele><time>2026-04-10T13:03:43.405Z</time></trkpt><trkpt lat="46.1737052" lon="10.312952"><ele>681.5</ele><time>2026-04-10T13:03:45.406Z</time></trkpt><trkpt lat="46.1737601" lon="10.313"><ele>682.6666666666667</ele><time>2026-04-10T13:03:46.407Z</time></trkpt><trkpt lat="46.1738049" lon="10.3130726"><ele>683.8333333333334</ele><time>2026-04-10T13:03:47.406Z</time></trkpt><trkpt lat="46.1738511" lon="10.3131371"><ele>685.0</ele><time>2026-04-10T13:03:48.406Z</time></trkpt><trkpt lat="46.1738918" lon="10.3132072"><ele>686.75</ele><time>2026-04-10T13:03:49.406Z</time></trkpt><trkpt lat="46.1739335" lon="10.3133675"><ele>688.5</ele><time>2026-04-10T13:03:51.406Z</time></trkpt><trkpt lat="46.1739245" lon="10.3135282"><ele>690.25</ele><time>2026-04-10T13:03:53.406Z</time></trkpt><trkpt lat="46.1739749" lon="10.3136797"><ele>692.0</ele><time>2026-04-10T13:03:55.407Z</time></trkpt><trkpt lat="46.174043" lon="10.3138306"><ele>688.6</ele><time>2026-04-10T13:03:57.407Z</time></trkpt><trkpt lat="46.1741085" lon="10.3139736"><ele>685.2</ele><time>2026-04-10T13:03:59.406Z</time></trkpt><trkpt lat="46.1741554" lon="10.3141104"><ele>681.8</ele><time>2026-04-10T13:04:01.406Z</time></trkpt><trkpt lat="46.1741917" lon="10.3142396"><ele>678.4</ele><time>2026-04-10T13:04:03.405Z</time></trkpt><trkpt lat="46.1742244" lon="10.3143665"><ele>675.0</ele><time>2026-04-10T13:04:05.405Z</time></trkpt><trkpt lat="46.1742517" lon="10.3144891"><ele>675.0</ele><time>2026-04-10T13:04:07.405Z</time></trkpt><trkpt lat="46.1742681" lon="10.3146173"><ele>675.0</ele><time>2026-04-10T13:04:09.406Z</time></trkpt><trkpt lat="46.1742786" lon="10.3147484"><ele>675.0</ele><time>2026-04-10T13:04:11.406Z</time></trkpt><trkpt lat="46.1742732" lon="10.314867"><ele>675.0</ele><time>2026-04-10T13:04:13.406Z</time></trkpt><trkpt lat="46.1742501" lon="10.3149857"><ele>675.0</ele><time>2026-04-10T13:04:16.406Z</time></trkpt><trkpt lat="46.1742658" lon="10.3151489"><ele>675.1428571428571</ele><time>2026-04-10T13:04:19.407Z</time></trkpt><trkpt lat="46.1742679" lon="10.3152413"><ele>675.2857142857143</ele><time>2026-04-10T13:04:20.407Z</time></trkpt><trkpt lat="46.1742723" lon="10.3153388"><ele>675.4285714285714</ele><time>2026-04-10T13:04:21.406Z</time></trkpt><trkpt lat="46.1742756" lon="10.3154358"><ele>675.5714285714286</ele><time>2026-04-10T13:04:22.406Z</time></trkpt><trkpt lat="46.1742801" lon="10.3155396"><ele>675.7142857142857</ele><time>2026-04-10T13:04:23.405Z</time></trkpt><trkpt lat="46.1742766" lon="10.3156474"><ele>675.8571428571429</ele><time>2026-04-10T13:04:24.406Z</time></trkpt><trkpt lat="46.1742756" lon="10.3157577"><ele>676.0</ele><time>2026-04-10T13:04:25.406Z</time></trkpt><trkpt lat="46.1742631" lon="10.315857"><ele>676.0</ele><time>2026-04-10T13:04:26.406Z</time></trkpt><trkpt lat="46.1742531" lon="10.3159488"><ele>676.0</ele><time>2026-04-10T13:04:27.406Z</time></trkpt><trkpt lat="46.1742308" lon="10.3160952"><ele>676.0</ele><time>2026-04-10T13:04:29.405Z</time></trkpt><trkpt lat="46.174204" lon="10.3162248"><ele>676.0</ele><time>2026-04-10T13:04:31.406Z</time></trkpt><trkpt lat="46.1741729" lon="10.3163362"><ele>676.0</ele><time>2026-04-10T13:04:33.405Z</time></trkpt><trkpt lat="46.1741507" lon="10.3164452"><ele>676.0</ele><time>2026-04-10T13:04:35.406Z</time></trkpt><trkpt lat="46.1741283" lon="10.3165513"><ele>675.8</ele><time>2026-04-10T13:04:37.406Z</time></trkpt><trkpt lat="46.1741045" lon="10.3166701"><ele>675.5999999999999</ele><time>2026-04-10T13:04:39.406Z</time></trkpt><trkpt lat="46.1740752" lon="10.316802"><ele>675.4</ele><time>2026-04-10T13:04:41.406Z</time></trkpt><trkpt lat="46.1740493" lon="10.316941"><ele>675.2</ele><time>2026-04-10T13:04:43.406Z</time></trkpt><trkpt lat="46.1740435" lon="10.3170943"><ele>675.0</ele><time>2026-04-10T13:04:45.406Z</time></trkpt><trkpt lat="46.1740617" lon="10.31725"><ele>674.4</ele><time>2026-04-10T13:04:47.406Z</time></trkpt><trkpt lat="46.1740951" lon="10.3173978"><ele>673.8</ele><time>2026-04-10T13:04:49.406Z</time></trkpt><trkpt lat="46.1741217" lon="10.317551"><ele>673.2</ele><time>2026-04-10T13:04:51.406Z</time></trkpt><trkpt lat="46.1741487" lon="10.317709"><ele>672.6</ele><time>2026-04-10T13:04:53.405Z</time></trkpt><trkpt lat="46.1741701" lon="10.3178588"><ele>672.0</ele><time>2026-04-10T13:04:55.407Z</time></trkpt><trkpt lat="46.1741963" lon="10.3180028"><ele>671.4000000000001</ele><time>2026-04-10T13:04:57.406Z</time></trkpt><trkpt lat="46.1742229" lon="10.3181385"><ele>670.8000000000001</ele><time>2026-04-10T13:04:59.406Z</time></trkpt><trkpt lat="46.174243" lon="10.3182785"><ele>670.2</ele><time>2026-04-10T13:05:01.406Z</time></trkpt><trkpt lat="46.174262" lon="10.3184217"><ele>669.6</ele><time>2026-04-10T13:05:03.405Z</time></trkpt><trkpt lat="46.1742761" lon="10.3185745"><ele>669.0</ele><time>2026-04-10T13:05:05.405Z</time></trkpt><trkpt lat="46.1742699" lon="10.3187351"><ele>669.0</ele><time>2026-04-10T13:05:07.406Z</time></trkpt><trkpt lat="46.1742673" lon="10.318896"><ele>669.0</ele><time>2026-04-10T13:05:09.406Z</time></trkpt><trkpt lat="46.1742666" lon="10.3190454"><ele>669.0</ele><time>2026-04-10T13:05:11.406Z</time></trkpt><trkpt lat="46.1742662" lon="10.3191738"><ele>669.0</ele><time>2026-04-10T13:05:13.406Z</time></trkpt><trkpt lat="46.17427" lon="10.319288"><ele>669.0</ele><time>2026-04-10T13:05:15.406Z</time></trkpt><trkpt lat="46.1742707" lon="10.3194025"><ele>669.2</ele><time>2026-04-10T13:05:17.407Z</time></trkpt><trkpt lat="46.1742688" lon="10.319526"><ele>669.4000000000001</ele><time>2026-04-10T13:05:19.408Z</time></trkpt><trkpt lat="46.174265" lon="10.319657"><ele>669.6</ele><time>2026-04-10T13:05:21.406Z</time></trkpt><trkpt lat="46.1742691" lon="10.319794"><ele>669.8</ele><time>2026-04-10T13:05:23.407Z</time></trkpt><trkpt lat="46.1742669" lon="10.3199323"><ele>670.0</ele><time>2026-04-10T13:05:25.406Z</time></trkpt><trkpt lat="46.1742082" lon="10.3200496"><ele>669.4</ele><time>2026-04-10T13:05:27.407Z</time></trkpt><trkpt lat="46.1741746" lon="10.3201874"><ele>668.8</ele><time>2026-04-10T13:05:29.408Z</time></trkpt><trkpt lat="46.1741389" lon="10.3203224"><ele>668.2</ele><time>2026-04-10T13:05:31.408Z</time></trkpt><trkpt lat="46.1741022" lon="10.3204613"><ele>667.6</ele><time>2026-04-10T13:05:33.408Z</time></trkpt><trkpt lat="46.1740541" lon="10.3206067"><ele>667.0</ele><time>2026-04-10T13:05:35.406Z</time></trkpt><trkpt lat="46.1740162" lon="10.3207675"><ele>674.5</ele><time>2026-04-10T13:05:37.408Z</time></trkpt><trkpt lat="46.1739981" lon="10.3209424"><ele>682.0</ele><time>2026-04-10T13:05:39.406Z</time></trkpt><trkpt lat="46.1739783" lon="10.3211114"><ele>689.5</ele><time>2026-04-10T13:05:41.408Z</time></trkpt><trkpt lat="46.1739541" lon="10.3212714"><ele>697.0</ele><time>2026-04-10T13:05:43.407Z</time></trkpt><trkpt lat="46.1739343" lon="10.3214231"><ele>697.0</ele><time>2026-04-10T13:05:45.407Z</time></trkpt><trkpt lat="46.1739189" lon="10.3215687"><ele>697.0</ele><time>2026-04-10T13:05:47.407Z</time></trkpt><trkpt lat="46.1739141" lon="10.3217135"><ele>697.0</ele><time>2026-04-10T13:05:49.407Z</time></trkpt><trkpt lat="46.1739002" lon="10.3218689"><ele>697.0</ele><time>2026-04-10T13:05:51.406Z</time></trkpt><trkpt lat="46.173891" lon="10.3220223"><ele>697.0</ele><time>2026-04-10T13:05:53.408Z</time></trkpt><trkpt lat="46.1738916" lon="10.3221695"><ele>694.2</ele><time>2026-04-10T13:05:55.407Z</time></trkpt><trkpt lat="46.1739234" lon="10.322305"><ele>691.4000000000001</ele><time>2026-04-10T13:05:57.406Z</time></trkpt><trkpt lat="46.1739293" lon="10.3224527"><ele>688.5999999999999</ele><time>2026-04-10T13:05:59.406Z</time></trkpt><trkpt lat="46.1739498" lon="10.3225979"><ele>685.8</ele><time>2026-04-10T13:06:01.407Z</time></trkpt><trkpt lat="46.1739823" lon="10.3227427"><ele>683.0</ele><time>2026-04-10T13:06:03.406Z</time></trkpt><trkpt lat="46.1740193" lon="10.3228822"><ele>679.1666666666666</ele><time>2026-04-10T13:06:05.407Z</time></trkpt><trkpt lat="46.174064" lon="10.3230122"><ele>675.3333333333333</ele><time>2026-04-10T13:06:07.406Z</time></trkpt><trkpt lat="46.1740993" lon="10.3231421"><ele>671.5</ele><time>2026-04-10T13:06:09.406Z</time></trkpt><trkpt lat="46.1741296" lon="10.3232373"><ele>667.6666666666666</ele><time>2026-04-10T13:06:11.407Z</time></trkpt><trkpt lat="46.1741504" lon="10.3233541"><ele>663.8333333333334</ele><time>2026-04-10T13:06:14.407Z</time></trkpt><trkpt lat="46.1741711" lon="10.3234434"><ele>660.0</ele><time>2026-04-10T13:06:16.407Z</time></trkpt><trkpt lat="46.1741974" lon="10.3235538"><ele>659.8</ele><time>2026-04-10T13:06:18.408Z</time></trkpt><trkpt lat="46.1742373" lon="10.3236736"><ele>659.6</ele><time>2026-04-10T13:06:20.408Z</time></trkpt><trkpt lat="46.1742795" lon="10.3237992"><ele>659.4000000000001</ele><time>2026-04-10T13:06:22.408Z</time></trkpt><trkpt lat="46.1743285" lon="10.3239309"><ele>659.2</ele><time>2026-04-10T13:06:24.407Z</time></trkpt><trkpt lat="46.1743745" lon="10.3240708"><ele>659.0</ele><time>2026-04-10T13:06:26.407Z</time></trkpt><trkpt lat="46.1744236" lon="10.3242047"><ele>659.0</ele><time>2026-04-10T13:06:28.407Z</time></trkpt><trkpt lat="46.1744644" lon="10.3243404"><ele>659.0</ele><time>2026-04-10T13:06:30.407Z</time></trkpt><trkpt lat="46.1744865" lon="10.3244834"><ele>659.0</ele><time>2026-04-10T13:06:32.407Z</time></trkpt><trkpt lat="46.174488" lon="10.3246377"><ele>659.0</ele><time>2026-04-10T13:06:34.407Z</time></trkpt><trkpt lat="46.1744686" lon="10.3247923"><ele>659.0</ele><time>2026-04-10T13:06:36.406Z</time></trkpt><trkpt lat="46.1744546" lon="10.3249449"><ele>658.8000000000001</ele><time>2026-04-10T13:06:38.407Z</time></trkpt><trkpt lat="46.1744435" lon="10.3250954"><ele>658.6</ele><time>2026-04-10T13:06:40.406Z</time></trkpt><trkpt lat="46.1744337" lon="10.32524"><ele>658.4</ele><time>2026-04-10T13:06:42.408Z</time></trkpt><trkpt lat="46.1744222" lon="10.3253825"><ele>658.2</ele><time>2026-04-10T13:06:44.408Z</time></trkpt><trkpt lat="46.1744019" lon="10.3255256"><ele>658.0</ele><time>2026-04-10T13:06:46.406Z</time></trkpt><trkpt lat="46.1743777" lon="10.3256654"><ele>657.5999999999999</ele><time>2026-04-10T13:06:48.408Z</time></trkpt><trkpt lat="46.1743456" lon="10.3257955"><ele>657.1999999999999</ele><time>2026-04-10T13:06:50.407Z</time></trkpt><trkpt lat="46.1743085" lon="10.3259217"><ele>656.8</ele><time>2026-04-10T13:06:52.407Z</time></trkpt><trkpt lat="46.1742683" lon="10.3260507"><ele>656.4</ele><time>2026-04-10T13:06:54.407Z</time></trkpt><trkpt lat="46.1742234" lon="10.3261743"><ele>656.0</ele><time>2026-04-10T13:06:56.407Z</time></trkpt><trkpt lat="46.1741699" lon="10.3262945"><ele>655.8333333333333</ele><time>2026-04-10T13:06:58.407Z</time></trkpt><trkpt lat="46.1741178" lon="10.3264155"><ele>655.6666666666666</ele><time>2026-04-10T13:07:00.407Z</time></trkpt><trkpt lat="46.1740724" lon="10.3265297"><ele>655.5</ele><time>2026-04-10T13:07:02.407Z</time></trkpt><trkpt lat="46.1740596" lon="10.3266377"><ele>655.3333333333334</ele><time>2026-04-10T13:07:04.407Z</time></trkpt><trkpt lat="46.1741125" lon="10.3267178"><ele>655.1666666666667</ele><time>2026-04-10T13:07:06.407Z</time></trkpt><trkpt lat="46.1741692" lon="10.3268121"><ele>655.0</ele><time>2026-04-10T13:07:08.406Z</time></trkpt><trkpt lat="46.1742245" lon="10.3269192"><ele>655.0</ele><time>2026-04-10T13:07:10.408Z</time></trkpt><trkpt lat="46.1742784" lon="10.3270367"><ele>655.0</ele><time>2026-04-10T13:07:12.406Z</time></trkpt><trkpt lat="46.1743179" lon="10.3271522"><ele>655.0</ele><time>2026-04-10T13:07:14.407Z</time></trkpt><trkpt lat="46.1743282" lon="10.3272503"><ele>655.0</ele><time>2026-04-10T13:07:16.407Z</time></trkpt><trkpt lat="46.1743397" lon="10.3273814"><ele>655.0</ele><time>2026-04-10T13:07:19.406Z</time></trkpt><trkpt lat="46.1743542" lon="10.327477"><ele>655.0</ele><time>2026-04-10T13:07:21.407Z</time></trkpt><trkpt lat="46.1743761" lon="10.327564"><ele>655.3333333333334</ele><time>2026-04-10T13:07:23.408Z</time></trkpt><trkpt lat="46.1743881" lon="10.3276933"><ele>655.6666666666667</ele><time>2026-04-10T13:07:26.407Z</time></trkpt><trkpt lat="46.1743637" lon="10.3277839"><ele>656.0</ele><time>2026-04-10T13:07:30.406Z</time></trkpt><trkpt lat="46.174292" lon="10.3277872"><ele>656.3333333333334</ele><time>2026-04-10T13:07:32.407Z</time></trkpt><trkpt lat="46.1741942" lon="10.3277968"><ele>656.6666666666666</ele><time>2026-04-10T13:07:34.406Z</time></trkpt><trkpt lat="46.1740908" lon="10.3278063"><ele>657.0</ele><time>2026-04-10T13:07:36.407Z</time></trkpt><trkpt lat="46.1739937" lon="10.3278134"><ele>664.3333333333334</ele><time>2026-04-10T13:07:38.407Z</time></trkpt><trkpt lat="46.1739184" lon="10.3278237"><ele>671.6666666666666</ele><time>2026-04-10T13:07:40.407Z</time></trkpt><trkpt lat="46.1739226" lon="10.3279484"><ele>679.0</ele><time>2026-04-10T13:07:44.406Z</time></trkpt><trkpt lat="46.1739372" lon="10.3280492"><ele>686.3333333333333</ele><time>2026-04-10T13:07:46.408Z</time></trkpt><trkpt lat="46.1739567" lon="10.3281723"><ele>693.6666666666666</ele><time>2026-04-10T13:07:48.407Z</time></trkpt><trkpt lat="46.1739731" lon="10.3283104"><ele>701.0</ele><time>2026-04-10T13:07:50.406Z</time></trkpt><trkpt lat="46.1739982" lon="10.3284552"><ele>691.8</ele><time>2026-04-10T13:07:52.407Z</time></trkpt><trkpt lat="46.1740269" lon="10.3286056"><ele>682.5999999999999</ele><time>2026-04-10T13:07:54.407Z</time></trkpt><trkpt lat="46.1740642" lon="10.3287559"><ele>673.4</ele><time>2026-04-10T13:07:56.407Z</time></trkpt><trkpt lat="46.1741012" lon="10.3289089"><ele>664.2</ele><time>2026-04-10T13:07:58.407Z</time></trkpt><trkpt lat="46.1741397" lon="10.3290619"><ele>655.0</ele><time>2026-04-10T13:08:00.407Z</time></trkpt><trkpt lat="46.1741741" lon="10.3292107"><ele>654.8</ele><time>2026-04-10T13:08:02.406Z</time></trkpt><trkpt lat="46.1741955" lon="10.3293555"><ele>654.6</ele><time>2026-04-10T13:08:04.408Z</time></trkpt><trkpt lat="46.1742175" lon="10.329496"><ele>654.4000000000001</ele><time>2026-04-10T13:08:06.407Z</time></trkpt><trkpt lat="46.1742162" lon="10.3296334"><ele>654.2</ele><time>2026-04-10T13:08:08.407Z</time></trkpt><trkpt lat="46.1742112" lon="10.3297785"><ele>654.0</ele><time>2026-04-10T13:08:10.408Z</time></trkpt><trkpt lat="46.1742005" lon="10.3299259"><ele>653.6</ele><time>2026-04-10T13:08:12.407Z</time></trkpt><trkpt lat="46.1741907" lon="10.3300713"><ele>653.2</ele><time>2026-04-10T13:08:14.407Z</time></trkpt><trkpt lat="46.1741804" lon="10.3302142"><ele>652.8000000000001</ele><time>2026-04-10T13:08:16.407Z</time></trkpt><trkpt lat="46.1741596" lon="10.3303571"><ele>652.4000000000001</ele><time>2026-04-10T13:08:18.406Z</time></trkpt><trkpt lat="46.1741415" lon="10.3304981"><ele>652.0</ele><time>2026-04-10T13:08:20.406Z</time></trkpt><trkpt lat="46.174121" lon="10.3306414"><ele>652.0</ele><time>2026-04-10T13:08:22.407Z</time></trkpt><trkpt lat="46.1741036" lon="10.3307904"><ele>652.0</ele><time>2026-04-10T13:08:24.408Z</time></trkpt><trkpt lat="46.174091" lon="10.3309458"><ele>652.0</ele><time>2026-04-10T13:08:26.408Z</time></trkpt><trkpt lat="46.1740631" lon="10.3311121"><ele>652.0</ele><time>2026-04-10T13:08:28.407Z</time></trkpt><trkpt lat="46.1740308" lon="10.3312562"><ele>652.0</ele><time>2026-04-10T13:08:30.407Z</time></trkpt><trkpt lat="46.1739973" lon="10.3313694"><ele>651.5714285714286</ele><time>2026-04-10T13:08:32.407Z</time></trkpt><trkpt lat="46.1739481" lon="10.3314798"><ele>651.1428571428571</ele><time>2026-04-10T13:08:35.406Z</time></trkpt><trkpt lat="46.1739204" lon="10.3315748"><ele>650.7142857142857</ele><time>2026-04-10T13:08:38.407Z</time></trkpt><trkpt lat="46.1739935" lon="10.3315694"><ele>650.2857142857142</ele><time>2026-04-10T13:08:41.407Z</time></trkpt><trkpt lat="46.1740521" lon="10.3315193"><ele>649.8571428571429</ele><time>2026-04-10T13:08:43.407Z</time></trkpt><trkpt lat="46.1741188" lon="10.3314849"><ele>649.4285714285713</ele><time>2026-04-10T13:08:45.408Z</time></trkpt><trkpt lat="46.1741826" lon="10.3314469"><ele>649.0</ele><time>2026-04-10T13:08:47.406Z</time></trkpt><trkpt lat="46.1742577" lon="10.3314255"><ele>650.1666666666667</ele><time>2026-04-10T13:08:49.408Z</time></trkpt><trkpt lat="46.1743326" lon="10.3314177"><ele>651.3333333333334</ele><time>2026-04-10T13:08:51.406Z</time></trkpt><trkpt lat="46.1744046" lon="10.331431"><ele>652.5</ele><time>2026-04-10T13:08:53.407Z</time></trkpt><trkpt lat="46.1744726" lon="10.331454"><ele>653.6666666666666</ele><time>2026-04-10T13:08:55.406Z</time></trkpt><trkpt lat="46.1745415" lon="10.3314878"><ele>654.8333333333333</ele><time>2026-04-10T13:08:57.407Z</time></trkpt><trkpt lat="46.1745968" lon="10.3315636"><ele>656.0</ele><time>2026-04-10T13:08:59.407Z</time></trkpt><trkpt lat="46.174626" lon="10.3316773"><ele>656.0</ele><time>2026-04-10T13:09:01.407Z</time></trkpt><trkpt lat="46.1746476" lon="10.3318063"><ele>656.0</ele><time>2026-04-10T13:09:03.407Z</time></trkpt><trkpt lat="46.1746465" lon="10.3319421"><ele>656.0</ele><time>2026-04-10T13:09:05.407Z</time></trkpt><trkpt lat="46.1746481" lon="10.3320698"><ele>656.0</ele><time>2026-04-10T13:09:07.406Z</time></trkpt><trkpt lat="46.1746396" lon="10.3321853"><ele>656.0</ele><time>2026-04-10T13:09:09.408Z</time></trkpt><trkpt lat="46.1746312" lon="10.3322889"><ele>656.0</ele><time>2026-04-10T13:09:11.406Z</time></trkpt><trkpt lat="46.1746267" lon="10.332394"><ele>655.9999999999999</ele><time>2026-04-10T13:09:13.407Z</time></trkpt><trkpt lat="46.1746129" lon="10.3325001"><ele>656.0</ele><time>2026-04-10T13:09:15.407Z</time></trkpt><trkpt lat="46.1746013" lon="10.332604"><ele>656.0</ele><time>2026-04-10T13:09:17.407Z</time></trkpt><trkpt lat="46.1745875" lon="10.3327048"><ele>656.0</ele><time>2026-04-10T13:09:19.407Z</time></trkpt><trkpt lat="46.1745706" lon="10.3328082"><ele>656.0</ele><time>2026-04-10T13:09:21.408Z</time></trkpt><trkpt lat="46.1745533" lon="10.3329136"><ele>655.9999999999999</ele><time>2026-04-10T13:09:23.406Z</time></trkpt><trkpt lat="46.1745337" lon="10.3330186"><ele>656.0</ele><time>2026-04-10T13:09:25.406Z</time></trkpt><trkpt lat="46.1745074" lon="10.333124"><ele>656.0</ele><time>2026-04-10T13:09:27.407Z</time></trkpt><trkpt lat="46.1744853" lon="10.3332323"><ele>656.0</ele><time>2026-04-10T13:09:29.407Z</time></trkpt><trkpt lat="46.1744628" lon="10.3333391"><ele>656.0</ele><time>2026-04-10T13:09:31.407Z</time></trkpt><trkpt lat="46.1744402" lon="10.3334452"><ele>656.0</ele><time>2026-04-10T13:09:33.406Z</time></trkpt><trkpt lat="46.1744193" lon="10.3335488"><ele>656.0</ele><time>2026-04-10T13:09:35.408Z</time></trkpt><trkpt lat="46.1743944" lon="10.3336535"><ele>656.0</ele><time>2026-04-10T13:09:37.407Z</time></trkpt><trkpt lat="46.1743678" lon="10.3337598"><ele>656.0</ele><time>2026-04-10T13:09:39.406Z</time></trkpt><trkpt lat="46.1743419" lon="10.3338699"><ele>656.0</ele><time>2026-04-10T13:09:41.407Z</time></trkpt><trkpt lat="46.1743174" lon="10.3339785"><ele>656.0</ele><time>2026-04-10T13:09:43.407Z</time></trkpt><trkpt lat="46.1742921" lon="10.3340882"><ele>656.0</ele><time>2026-04-10T13:09:45.407Z</time></trkpt><trkpt lat="46.1742704" lon="10.3341984"><ele>656.0</ele><time>2026-04-10T13:09:47.408Z</time></trkpt><trkpt lat="46.1742478" lon="10.3343084"><ele>656.0</ele><time>2026-04-10T13:09:49.409Z</time></trkpt><trkpt lat="46.1742291" lon="10.3344146"><ele>655.8333333333333</ele><time>2026-04-10T13:09:51.407Z</time></trkpt><trkpt lat="46.1742006" lon="10.3345193"><ele>655.6666666666666</ele><time>2026-04-10T13:09:53.408Z</time></trkpt><trkpt lat="46.174174" lon="10.3346342"><ele>655.5</ele><time>2026-04-10T13:09:55.408Z</time></trkpt><trkpt lat="46.1741509" lon="10.334763"><ele>655.3333333333334</ele><time>2026-04-10T13:09:57.408Z</time></trkpt><trkpt lat="46.1741236" lon="10.3348948"><ele>655.1666666666667</ele><time>2026-04-10T13:09:59.408Z</time></trkpt><trkpt lat="46.1740943" lon="10.335033"><ele>655.0</ele><time>2026-04-10T13:10:01.408Z</time></trkpt><trkpt lat="46.1740678" lon="10.3351701"><ele>655.0</ele><time>2026-04-10T13:10:03.408Z</time></trkpt><trkpt lat="46.1740409" lon="10.3353067"><ele>655.0</ele><time>2026-04-10T13:10:05.408Z</time></trkpt><trkpt lat="46.174007" lon="10.3354505"><ele>655.0</ele><time>2026-04-10T13:10:07.407Z</time></trkpt><trkpt lat="46.1739728" lon="10.3355989"><ele>655.0</ele><time>2026-04-10T13:10:09.409Z</time></trkpt><trkpt lat="46.1739415" lon="10.3357503"><ele>655.0</ele><time>2026-04-10T13:10:11.409Z</time></trkpt><trkpt lat="46.173911" lon="10.3359023"><ele>655.0</ele><time>2026-04-10T13:10:13.408Z</time></trkpt><trkpt lat="46.1738746" lon="10.3360566"><ele>655.0</ele><time>2026-04-10T13:10:15.407Z</time></trkpt><trkpt lat="46.1738415" lon="10.33622"><ele>655.0</ele><time>2026-04-10T13:10:17.408Z</time></trkpt><trkpt lat="46.1738102" lon="10.3363564"><ele>655.0</ele><time>2026-04-10T13:10:19.409Z</time></trkpt><trkpt lat="46.1737779" lon="10.3364959"><ele>655.0</ele><time>2026-04-10T13:10:21.408Z</time></trkpt><trkpt lat="46.1737333" lon="10.3366599"><ele>654.5</ele><time>2026-04-10T13:10:23.407Z</time></trkpt><trkpt lat="46.1737012" lon="10.3367739"><ele>654.0</ele><time>2026-04-10T13:10:25.408Z</time></trkpt><trkpt lat="46.1736828" lon="10.3368741"><ele>653.5</ele><time>2026-04-10T13:12:45.408Z</time></trkpt><trkpt lat="46.1736596" lon="10.3369782"><ele>653.0</ele><time>2026-04-10T13:12:48.407Z</time></trkpt><trkpt lat="46.173631" lon="10.3371086"><ele>652.5</ele><time>2026-04-10T13:12:50.408Z</time></trkpt><trkpt lat="46.1735872" lon="10.3372613"><ele>652.0</ele><time>2026-04-10T13:12:52.408Z</time></trkpt><trkpt lat="46.173539" lon="10.337437"><ele>651.8333333333334</ele><time>2026-04-10T13:12:54.409Z</time></trkpt><trkpt lat="46.1735088" lon="10.3375345"><ele>651.6666666666667</ele><time>2026-04-10T13:12:55.408Z</time></trkpt><trkpt lat="46.1734762" lon="10.3376336"><ele>651.5</ele><time>2026-04-10T13:12:56.409Z</time></trkpt><trkpt lat="46.1734446" lon="10.3377327"><ele>651.3333333333334</ele><time>2026-04-10T13:12:57.408Z</time></trkpt><trkpt lat="46.1734082" lon="10.3378322"><ele>651.1666666666666</ele><time>2026-04-10T13:12:58.408Z</time></trkpt><trkpt lat="46.1733747" lon="10.3379294"><ele>651.0</ele><time>2026-04-10T13:12:59.407Z</time></trkpt><trkpt lat="46.173339" lon="10.3380281"><ele>651.0</ele><time>2026-04-10T13:13:00.409Z</time></trkpt><trkpt lat="46.1733021" lon="10.3381243"><ele>651.0</ele><time>2026-04-10T13:13:01.408Z</time></trkpt><trkpt lat="46.1732659" lon="10.3382192"><ele>651.0</ele><time>2026-04-10T13:13:02.408Z</time></trkpt><trkpt lat="46.1732305" lon="10.3383139"><ele>651.0</ele><time>2026-04-10T13:13:03.407Z</time></trkpt><trkpt lat="46.173189" lon="10.3384061"><ele>651.0</ele><time>2026-04-10T13:13:04.408Z</time></trkpt><trkpt lat="46.1731506" lon="10.3384989"><ele>651.0</ele><time>2026-04-10T13:13:05.408Z</time></trkpt><trkpt lat="46.173111" lon="10.338591"><ele>651.0</ele><time>2026-04-10T13:13:06.409Z</time></trkpt><trkpt lat="46.1730712" lon="10.3386784"><ele>651.0</ele><time>2026-04-10T13:13:07.408Z</time></trkpt><trkpt lat="46.1730325" lon="10.3387702"><ele>651.0</ele><time>2026-04-10T13:13:08.408Z</time></trkpt><trkpt lat="46.1729887" lon="10.3388566"><ele>651.0</ele><time>2026-04-10T13:13:09.409Z</time></trkpt><trkpt lat="46.1729471" lon="10.3389447"><ele>651.0</ele><time>2026-04-10T13:13:10.408Z</time></trkpt><trkpt lat="46.1729055" lon="10.3390346"><ele>651.0</ele><time>2026-04-10T13:13:11.407Z</time></trkpt><trkpt lat="46.1728614" lon="10.3391227"><ele>651.0</ele><time>2026-04-10T13:13:12.409Z</time></trkpt><trkpt lat="46.1728174" lon="10.339208"><ele>651.0</ele><time>2026-04-10T13:13:13.408Z</time></trkpt><trkpt lat="46.1727718" lon="10.3392911"><ele>651.0</ele><time>2026-04-10T13:13:14.409Z</time></trkpt><trkpt lat="46.1727271" lon="10.3393758"><ele>651.0</ele><time>2026-04-10T13:13:15.409Z</time></trkpt><trkpt lat="46.1726812" lon="10.3394583"><ele>651.0</ele><time>2026-04-10T13:13:16.409Z</time></trkpt><trkpt lat="46.1726338" lon="10.3395388"><ele>651.0</ele><time>2026-04-10T13:13:17.409Z</time></trkpt><trkpt lat="46.1725873" lon="10.3396188"><ele>651.0</ele><time>2026-04-10T13:13:18.407Z</time></trkpt><trkpt lat="46.1725404" lon="10.3396971"><ele>651.0</ele><time>2026-04-10T13:13:19.408Z</time></trkpt><trkpt lat="46.1724953" lon="10.3397712"><ele>650.4285714285714</ele><time>2026-04-10T13:13:20.408Z</time></trkpt><trkpt lat="46.1724481" lon="10.3398428"><ele>649.8571428571429</ele><time>2026-04-10T13:13:21.407Z</time></trkpt><trkpt lat="46.1724035" lon="10.3399243"><ele>649.2857142857142</ele><time>2026-04-10T13:13:22.408Z</time></trkpt><trkpt lat="46.1723582" lon="10.3399993"><ele>648.7142857142858</ele><time>2026-04-10T13:13:23.408Z</time></trkpt><trkpt lat="46.1723097" lon="10.3400728"><ele>648.1428571428571</ele><time>2026-04-10T13:13:24.409Z</time></trkpt><trkpt lat="46.1722604" lon="10.3401467"><ele>647.5714285714286</ele><time>2026-04-10T13:13:25.408Z</time></trkpt><trkpt lat="46.1722129" lon="10.3402215"><ele>647.0</ele><time>2026-04-10T13:13:26.408Z</time></trkpt><trkpt lat="46.1721651" lon="10.340295"><ele>647.0</ele><time>2026-04-10T13:13:27.408Z</time></trkpt><trkpt lat="46.1721176" lon="10.3403668"><ele>647.0</ele><time>2026-04-10T13:13:28.408Z</time></trkpt><trkpt lat="46.17207" lon="10.3404374"><ele>647.0</ele><time>2026-04-10T13:13:29.408Z</time></trkpt><trkpt lat="46.1720225" lon="10.3405131"><ele>647.0</ele><time>2026-04-10T13:13:30.407Z</time></trkpt><trkpt lat="46.1719737" lon="10.3405879"><ele>647.0</ele><time>2026-04-10T13:13:31.408Z</time></trkpt><trkpt lat="46.1719263" lon="10.3406645"><ele>647.0</ele><time>2026-04-10T13:13:32.407Z</time></trkpt><trkpt lat="46.1718787" lon="10.3407404"><ele>647.0</ele><time>2026-04-10T13:13:33.408Z</time></trkpt><trkpt lat="46.1718303" lon="10.3408154"><ele>646.5714285714286</ele><time>2026-04-10T13:13:34.407Z</time></trkpt><trkpt lat="46.1717807" lon="10.3408901"><ele>646.1428571428571</ele><time>2026-04-10T13:13:35.408Z</time></trkpt><trkpt lat="46.1717301" lon="10.3409631"><ele>645.7142857142858</ele><time>2026-04-10T13:13:36.409Z</time></trkpt><trkpt lat="46.1716813" lon="10.3410387"><ele>645.2857142857142</ele><time>2026-04-10T13:13:37.408Z</time></trkpt><trkpt lat="46.1716335" lon="10.3411143"><ele>644.8571428571429</ele><time>2026-04-10T13:13:38.407Z</time></trkpt><trkpt lat="46.1715863" lon="10.3411894"><ele>644.4285714285714</ele><time>2026-04-10T13:13:39.407Z</time></trkpt><trkpt lat="46.1715378" lon="10.3412635"><ele>644.0</ele><time>2026-04-10T13:13:40.409Z</time></trkpt><trkpt lat="46.1714882" lon="10.341339"><ele>643.2857142857143</ele><time>2026-04-10T13:13:41.409Z</time></trkpt><trkpt lat="46.1714379" lon="10.3414185"><ele>642.5714285714286</ele><time>2026-04-10T13:13:42.408Z</time></trkpt><trkpt lat="46.1713884" lon="10.3414987"><ele>641.8571428571429</ele><time>2026-04-10T13:13:43.407Z</time></trkpt><trkpt lat="46.1713401" lon="10.3415793"><ele>641.1428571428571</ele><time>2026-04-10T13:13:44.407Z</time></trkpt><trkpt lat="46.1712972" lon="10.3416641"><ele>640.4285714285714</ele><time>2026-04-10T13:13:45.407Z</time></trkpt><trkpt lat="46.171263" lon="10.3417559"><ele>639.7142857142858</ele><time>2026-04-10T13:13:46.409Z</time></trkpt><trkpt lat="46.1712458" lon="10.3418579"><ele>639.0</ele><time>2026-04-10T13:13:47.407Z</time></trkpt><trkpt lat="46.1712416" lon="10.341962"><ele>639.0000000000001</ele><time>2026-04-10T13:13:48.409Z</time></trkpt><trkpt lat="46.1712469" lon="10.3420646"><ele>639.0</ele><time>2026-04-10T13:13:49.409Z</time></trkpt><trkpt lat="46.1712615" lon="10.3421672"><ele>639.0</ele><time>2026-04-10T13:13:50.408Z</time></trkpt><trkpt lat="46.1712905" lon="10.3422628"><ele>639.0</ele><time>2026-04-10T13:13:51.409Z</time></trkpt><trkpt lat="46.1713243" lon="10.3423558"><ele>639.0</ele><time>2026-04-10T13:13:52.408Z</time></trkpt><trkpt lat="46.1713585" lon="10.3424481"><ele>639.0000000000001</ele><time>2026-04-10T13:13:53.407Z</time></trkpt><trkpt lat="46.1713813" lon="10.342544"><ele>639.0</ele><time>2026-04-10T13:13:54.408Z</time></trkpt><trkpt lat="46.1713983" lon="10.3427034"><ele>639.2</ele><time>2026-04-10T13:13:56.408Z</time></trkpt><trkpt lat="46.1713947" lon="10.3428355"><ele>639.4</ele><time>2026-04-10T13:13:58.408Z</time></trkpt><trkpt lat="46.1713841" lon="10.3429648"><ele>639.6</ele><time>2026-04-10T13:14:00.409Z</time></trkpt><trkpt lat="46.1713628" lon="10.343105"><ele>639.8</ele><time>2026-04-10T13:14:02.408Z</time></trkpt><trkpt lat="46.1713341" lon="10.3432562"><ele>640.0</ele><time>2026-04-10T13:14:04.409Z</time></trkpt><trkpt lat="46.171293" lon="10.343411"><ele>639.2</ele><time>2026-04-10T13:14:06.407Z</time></trkpt><trkpt lat="46.1712359" lon="10.3435706"><ele>638.4</ele><time>2026-04-10T13:14:08.408Z</time></trkpt><trkpt lat="46.1711737" lon="10.3437231"><ele>637.6</ele><time>2026-04-10T13:14:10.408Z</time></trkpt><trkpt lat="46.1710969" lon="10.3438627"><ele>636.8</ele><time>2026-04-10T13:14:12.408Z</time></trkpt><trkpt lat="46.1710573" lon="10.3439344"><ele>636.0</ele><time>2026-04-10T13:14:13.408Z</time></trkpt><trkpt lat="46.1709745" lon="10.3440673"><ele>635.6</ele><time>2026-04-10T13:14:15.408Z</time></trkpt><trkpt lat="46.1708903" lon="10.3441996"><ele>635.2</ele><time>2026-04-10T13:14:17.408Z</time></trkpt><trkpt lat="46.1708045" lon="10.3443349"><ele>634.8</ele><time>2026-04-10T13:14:19.408Z</time></trkpt><trkpt lat="46.1707208" lon="10.3444703"><ele>634.4</ele><time>2026-04-10T13:14:21.408Z</time></trkpt><trkpt lat="46.1706769" lon="10.3445444"><ele>634.0</ele><time>2026-04-10T13:14:22.407Z</time></trkpt><trkpt lat="46.1706329" lon="10.3446135"><ele>634.0</ele><time>2026-04-10T13:14:23.407Z</time></trkpt><trkpt lat="46.1705885" lon="10.3446843"><ele>634.0</ele><time>2026-04-10T13:14:24.409Z</time></trkpt><trkpt lat="46.1705456" lon="10.3447528"><ele>634.0</ele><time>2026-04-10T13:14:25.408Z</time></trkpt><trkpt lat="46.1704613" lon="10.344887"><ele>634.0</ele><time>2026-04-10T13:14:27.409Z</time></trkpt><trkpt lat="46.1704179" lon="10.3449548"><ele>634.0</ele><time>2026-04-10T13:14:28.408Z</time></trkpt><trkpt lat="46.1703763" lon="10.3450248"><ele>634.0</ele><time>2026-04-10T13:14:29.407Z</time></trkpt><trkpt lat="46.170333" lon="10.3450956"><ele>634.0</ele><time>2026-04-10T13:14:30.409Z</time></trkpt><trkpt lat="46.1702915" lon="10.3451644"><ele>633.8</ele><time>2026-04-10T13:14:31.408Z</time></trkpt><trkpt lat="46.1702062" lon="10.3452947"><ele>633.5999999999999</ele><time>2026-04-10T13:14:33.409Z</time></trkpt><trkpt lat="46.1701212" lon="10.3454296"><ele>633.4</ele><time>2026-04-10T13:14:35.408Z</time></trkpt><trkpt lat="46.1700788" lon="10.3454993"><ele>633.1999999999999</ele><time>2026-04-10T13:14:36.408Z</time></trkpt><trkpt lat="46.1699947" lon="10.3456312"><ele>633.0</ele><time>2026-04-10T13:14:38.408Z</time></trkpt><trkpt lat="46.1699513" lon="10.3456972"><ele>632.8571428571429</ele><time>2026-04-10T13:14:39.409Z</time></trkpt><trkpt lat="46.1699077" lon="10.3457628"><ele>632.7142857142858</ele><time>2026-04-10T13:14:40.409Z</time></trkpt><trkpt lat="46.1698662" lon="10.3458316"><ele>632.5714285714287</ele><time>2026-04-10T13:14:41.408Z</time></trkpt><trkpt lat="46.169823" lon="10.3459"><ele>632.4285714285714</ele><time>2026-04-10T13:14:42.409Z</time></trkpt><trkpt lat="46.1697808" lon="10.3459703"><ele>632.2857142857143</ele><time>2026-04-10T13:14:43.409Z</time></trkpt><trkpt lat="46.1697346" lon="10.3460383"><ele>632.1428571428572</ele><time>2026-04-10T13:14:44.41Z</time></trkpt><trkpt lat="46.169657" lon="10.346174"><ele>632.0</ele><time>2026-04-10T13:14:46.409Z</time></trkpt><trkpt lat="46.1695748" lon="10.3463062"><ele>631.0</ele><time>2026-04-10T13:14:48.409Z</time></trkpt><trkpt lat="46.1695002" lon="10.3464291"><ele>630.0</ele><time>2026-04-10T13:14:50.408Z</time></trkpt><trkpt lat="46.1694254" lon="10.3465493"><ele>629.0</ele><time>2026-04-10T13:14:52.409Z</time></trkpt><trkpt lat="46.1693367" lon="10.3466553"><ele>628.0</ele><time>2026-04-10T13:14:54.41Z</time></trkpt><trkpt lat="46.1692219" lon="10.3467269"><ele>628.0</ele><time>2026-04-10T13:14:56.408Z</time></trkpt><trkpt lat="46.1691669" lon="10.3467786"><ele>628.0</ele><time>2026-04-10T13:14:57.409Z</time></trkpt><trkpt lat="46.1691288" lon="10.3468596"><ele>628.0</ele><time>2026-04-10T13:14:58.41Z</time></trkpt><trkpt lat="46.1691152" lon="10.3469528"><ele>628.0</ele><time>2026-04-10T13:14:59.41Z</time></trkpt><trkpt lat="46.1690991" lon="10.3470425"><ele>628.0</ele><time>2026-04-10T13:15:00.409Z</time></trkpt><trkpt lat="46.1690658" lon="10.3471237"><ele>628.0</ele><time>2026-04-10T13:15:01.409Z</time></trkpt><trkpt lat="46.168982" lon="10.3472569"><ele>627.5</ele><time>2026-04-10T13:15:03.409Z</time></trkpt><trkpt lat="46.1689026" lon="10.3473826"><ele>627.0</ele><time>2026-04-10T13:15:05.409Z</time></trkpt><trkpt lat="46.1688233" lon="10.3475008"><ele>626.5</ele><time>2026-04-10T13:15:07.409Z</time></trkpt><trkpt lat="46.1687436" lon="10.3476203"><ele>626.0</ele><time>2026-04-10T13:15:09.409Z</time></trkpt><trkpt lat="46.1686628" lon="10.347739"><ele>626.0</ele><time>2026-04-10T13:15:11.41Z</time></trkpt><trkpt lat="46.1685805" lon="10.34786"><ele>626.0</ele><time>2026-04-10T13:15:13.409Z</time></trkpt><trkpt lat="46.1685009" lon="10.3479799"><ele>626.0</ele><time>2026-04-10T13:15:15.408Z</time></trkpt><trkpt lat="46.1684203" lon="10.348108"><ele>626.0</ele><time>2026-04-10T13:15:17.408Z</time></trkpt><trkpt lat="46.1683416" lon="10.3482331"><ele>626.1666666666666</ele><time>2026-04-10T13:15:19.408Z</time></trkpt><trkpt lat="46.1682646" lon="10.3483531"><ele>626.3333333333333</ele><time>2026-04-10T13:15:21.409Z</time></trkpt><trkpt lat="46.168181" lon="10.3484846"><ele>626.5</ele><time>2026-04-10T13:15:23.409Z</time></trkpt><trkpt lat="46.1681369" lon="10.3485551"><ele>626.6666666666666</ele><time>2026-04-10T13:15:24.409Z</time></trkpt><trkpt lat="46.1680932" lon="10.3486241"><ele>626.8333333333334</ele><time>2026-04-10T13:15:25.41Z</time></trkpt><trkpt lat="46.1680487" lon="10.3486945"><ele>627.0</ele><time>2026-04-10T13:15:26.409Z</time></trkpt><trkpt lat="46.168003" lon="10.3487658"><ele>626.7142857142858</ele><time>2026-04-10T13:15:27.409Z</time></trkpt><trkpt lat="46.1679578" lon="10.3488369"><ele>626.4285714285714</ele><time>2026-04-10T13:15:28.41Z</time></trkpt><trkpt lat="46.167912" lon="10.3489052"><ele>626.1428571428571</ele><time>2026-04-10T13:15:29.409Z</time></trkpt><trkpt lat="46.1678636" lon="10.348972"><ele>625.8571428571429</ele><time>2026-04-10T13:15:30.409Z</time></trkpt><trkpt lat="46.1678117" lon="10.3490334"><ele>625.5714285714286</ele><time>2026-04-10T13:15:31.41Z</time></trkpt><trkpt lat="46.1677579" lon="10.3490912"><ele>625.2857142857143</ele><time>2026-04-10T13:15:32.41Z</time></trkpt><trkpt lat="46.1677004" lon="10.3491463"><ele>625.0</ele><time>2026-04-10T13:15:33.408Z</time></trkpt><trkpt lat="46.1676466" lon="10.3492019"><ele>624.8571428571429</ele><time>2026-04-10T13:15:34.409Z</time></trkpt><trkpt lat="46.16759" lon="10.3492519"><ele>624.7142857142858</ele><time>2026-04-10T13:15:35.408Z</time></trkpt><trkpt lat="46.1675312" lon="10.3492962"><ele>624.5714285714287</ele><time>2026-04-10T13:15:36.409Z</time></trkpt><trkpt lat="46.1674707" lon="10.3493374"><ele>624.4285714285714</ele><time>2026-04-10T13:15:37.409Z</time></trkpt><trkpt lat="46.1674118" lon="10.349372"><ele>624.2857142857142</ele><time>2026-04-10T13:15:38.408Z</time></trkpt><trkpt lat="46.1673508" lon="10.3494001"><ele>624.1428571428572</ele><time>2026-04-10T13:15:39.409Z</time></trkpt><trkpt lat="46.1672895" lon="10.3494309"><ele>624.0</ele><time>2026-04-10T13:15:40.41Z</time></trkpt><trkpt lat="46.1671706" lon="10.3494757"><ele>623.4285714285714</ele><time>2026-04-10T13:15:42.408Z</time></trkpt><trkpt lat="46.1670501" lon="10.3495127"><ele>622.8571428571428</ele><time>2026-04-10T13:15:44.409Z</time></trkpt><trkpt lat="46.1669873" lon="10.3495278"><ele>622.2857142857142</ele><time>2026-04-10T13:15:45.409Z</time></trkpt><trkpt lat="46.1669232" lon="10.3495454"><ele>621.7142857142858</ele><time>2026-04-10T13:15:46.409Z</time></trkpt><trkpt lat="46.1668587" lon="10.3495642"><ele>621.1428571428571</ele><time>2026-04-10T13:15:47.41Z</time></trkpt><trkpt lat="46.1667953" lon="10.3495836"><ele>620.5714285714286</ele><time>2026-04-10T13:15:48.408Z</time></trkpt><trkpt lat="46.166732" lon="10.3496046"><ele>620.0</ele><time>2026-04-10T13:15:49.41Z</time></trkpt><trkpt lat="46.1666673" lon="10.3496211"><ele>620.0</ele><time>2026-04-10T13:15:50.409Z</time></trkpt><trkpt lat="46.1666043" lon="10.3496363"><ele>620.0</ele><time>2026-04-10T13:15:51.409Z</time></trkpt><trkpt lat="46.1665414" lon="10.3496508"><ele>620.0</ele><time>2026-04-10T13:15:52.409Z</time></trkpt><trkpt lat="46.1664785" lon="10.3496681"><ele>620.0</ele><time>2026-04-10T13:15:53.409Z</time></trkpt><trkpt lat="46.1664142" lon="10.3496829"><ele>620.0</ele><time>2026-04-10T13:15:54.408Z</time></trkpt><trkpt lat="46.1663516" lon="10.3497019"><ele>620.0</ele><time>2026-04-10T13:15:55.408Z</time></trkpt><trkpt lat="46.1662282" lon="10.3497337"><ele>620.0</ele><time>2026-04-10T13:15:57.409Z</time></trkpt><trkpt lat="46.1661661" lon="10.3497487"><ele>620.25</ele><time>2026-04-10T13:15:58.409Z</time></trkpt><trkpt lat="46.1660476" lon="10.3497792"><ele>620.5</ele><time>2026-04-10T13:16:00.408Z</time></trkpt><trkpt lat="46.1659285" lon="10.3498058"><ele>620.75</ele><time>2026-04-10T13:16:02.409Z</time></trkpt><trkpt lat="46.1658087" lon="10.3498348"><ele>621.0</ele><time>2026-04-10T13:16:04.409Z</time></trkpt><trkpt lat="46.1656899" lon="10.3498664"><ele>621.0</ele><time>2026-04-10T13:16:06.409Z</time></trkpt><trkpt lat="46.1655672" lon="10.3499023"><ele>621.0</ele><time>2026-04-10T13:16:08.41Z</time></trkpt><trkpt lat="46.165447" lon="10.3499439"><ele>621.0</ele><time>2026-04-10T13:16:10.41Z</time></trkpt><trkpt lat="46.1653292" lon="10.3499881"><ele>621.0</ele><time>2026-04-10T13:16:12.41Z</time></trkpt><trkpt lat="46.1652161" lon="10.3500407"><ele>621.0</ele><time>2026-04-10T13:16:14.408Z</time></trkpt><trkpt lat="46.1651033" lon="10.3500766"><ele>621.0</ele><time>2026-04-10T13:16:16.41Z</time></trkpt><trkpt lat="46.1649901" lon="10.3500659"><ele>621.0</ele><time>2026-04-10T13:16:18.408Z</time></trkpt><trkpt lat="46.1648765" lon="10.3500801"><ele>621.0</ele><time>2026-04-10T13:16:20.41Z</time></trkpt><trkpt lat="46.164769" lon="10.3501174"><ele>620.8</ele><time>2026-04-10T13:16:22.409Z</time></trkpt><trkpt lat="46.1646547" lon="10.3501163"><ele>620.6</ele><time>2026-04-10T13:16:24.408Z</time></trkpt><trkpt lat="46.1645426" lon="10.3501366"><ele>620.4</ele><time>2026-04-10T13:16:26.409Z</time></trkpt><trkpt lat="46.1644324" lon="10.3501705"><ele>620.2</ele><time>2026-04-10T13:16:28.408Z</time></trkpt><trkpt lat="46.1643304" lon="10.3501963"><ele>620.0</ele><time>2026-04-10T13:16:30.408Z</time></trkpt><trkpt lat="46.1642159" lon="10.3502247"><ele>620.0</ele><time>2026-04-10T13:16:32.408Z</time></trkpt><trkpt lat="46.1641009" lon="10.3502524"><ele>620.0</ele><time>2026-04-10T13:16:34.408Z</time></trkpt><trkpt lat="46.1639854" lon="10.350285"><ele>620.0</ele><time>2026-04-10T13:16:36.409Z</time></trkpt><trkpt lat="46.163871" lon="10.3503138"><ele>620.0</ele><time>2026-04-10T13:16:38.409Z</time></trkpt><trkpt lat="46.1637588" lon="10.350334"><ele>619.6</ele><time>2026-04-10T13:16:40.408Z</time></trkpt><trkpt lat="46.1636526" lon="10.3503341"><ele>619.2</ele><time>2026-04-10T13:16:42.409Z</time></trkpt><trkpt lat="46.1635525" lon="10.3503585"><ele>618.8</ele><time>2026-04-10T13:16:44.409Z</time></trkpt><trkpt lat="46.1634607" lon="10.3503919"><ele>618.4</ele><time>2026-04-10T13:16:46.409Z</time></trkpt><trkpt lat="46.163373" lon="10.3504192"><ele>618.0</ele><time>2026-04-10T13:16:48.409Z</time></trkpt><trkpt lat="46.1632806" lon="10.3504649"><ele>617.6</ele><time>2026-04-10T13:16:50.408Z</time></trkpt><trkpt lat="46.163178" lon="10.3504996"><ele>617.1999999999999</ele><time>2026-04-10T13:16:52.408Z</time></trkpt><trkpt lat="46.1630768" lon="10.3505117"><ele>616.8</ele><time>2026-04-10T13:16:54.409Z</time></trkpt><trkpt lat="46.162965" lon="10.3505092"><ele>616.4</ele><time>2026-04-10T13:16:56.409Z</time></trkpt><trkpt lat="46.162857" lon="10.3505229"><ele>616.0</ele><time>2026-04-10T13:16:58.408Z</time></trkpt><trkpt lat="46.1627543" lon="10.3505304"><ele>616.0</ele><time>2026-04-10T13:17:00.409Z</time></trkpt><trkpt lat="46.1626588" lon="10.3505347"><ele>616.0</ele><time>2026-04-10T13:17:02.408Z</time></trkpt><trkpt lat="46.1625618" lon="10.3505286"><ele>616.0</ele><time>2026-04-10T13:17:04.409Z</time></trkpt><trkpt lat="46.1624679" lon="10.3505134"><ele>616.0</ele><time>2026-04-10T13:17:06.409Z</time></trkpt><trkpt lat="46.1623723" lon="10.350497"><ele>616.0</ele><time>2026-04-10T13:17:08.409Z</time></trkpt><trkpt lat="46.1622772" lon="10.3504729"><ele>616.0</ele><time>2026-04-10T13:17:10.409Z</time></trkpt><trkpt lat="46.1621763" lon="10.3504443"><ele>616.0</ele><time>2026-04-10T13:17:12.408Z</time></trkpt><trkpt lat="46.1620709" lon="10.3504051"><ele>616.0</ele><time>2026-04-10T13:17:14.41Z</time></trkpt><trkpt lat="46.1619647" lon="10.3503518"><ele>616.0</ele><time>2026-04-10T13:17:16.409Z</time></trkpt><trkpt lat="46.1618576" lon="10.3502915"><ele>616.0</ele><time>2026-04-10T13:17:18.409Z</time></trkpt><trkpt lat="46.161755" lon="10.3502209"><ele>616.0</ele><time>2026-04-10T13:17:20.409Z</time></trkpt><trkpt lat="46.1616545" lon="10.3501554"><ele>616.0</ele><time>2026-04-10T13:17:22.409Z</time></trkpt><trkpt lat="46.1615517" lon="10.3500731"><ele>616.0</ele><time>2026-04-10T13:17:24.409Z</time></trkpt><trkpt lat="46.1614389" lon="10.3499878"><ele>616.0</ele><time>2026-04-10T13:17:26.408Z</time></trkpt><trkpt lat="46.1613789" lon="10.3499423"><ele>616.0</ele><time>2026-04-10T13:17:27.41Z</time></trkpt><trkpt lat="46.1613167" lon="10.3498927"><ele>615.7142857142857</ele><time>2026-04-10T13:17:28.41Z</time></trkpt><trkpt lat="46.161253" lon="10.3498417"><ele>615.4285714285714</ele><time>2026-04-10T13:17:29.409Z</time></trkpt><trkpt lat="46.1611878" lon="10.3497931"><ele>615.1428571428571</ele><time>2026-04-10T13:17:30.408Z</time></trkpt><trkpt lat="46.1611209" lon="10.3497455"><ele>614.8571428571429</ele><time>2026-04-10T13:17:31.408Z</time></trkpt><trkpt lat="46.161053" lon="10.3497007"><ele>614.5714285714286</ele><time>2026-04-10T13:17:32.408Z</time></trkpt><trkpt lat="46.160988" lon="10.3496518"><ele>614.2857142857142</ele><time>2026-04-10T13:17:33.41Z</time></trkpt><trkpt lat="46.1609294" lon="10.3496057"><ele>614.0</ele><time>2026-04-10T13:17:34.41Z</time></trkpt><trkpt lat="46.1608674" lon="10.3495632"><ele>613.9999999999999</ele><time>2026-04-10T13:17:35.408Z</time></trkpt><trkpt lat="46.1608075" lon="10.3495184"><ele>614.0</ele><time>2026-04-10T13:17:36.41Z</time></trkpt><trkpt lat="46.1607455" lon="10.3494747"><ele>614.0</ele><time>2026-04-10T13:17:37.41Z</time></trkpt><trkpt lat="46.1606849" lon="10.3494311"><ele>614.0</ele><time>2026-04-10T13:17:38.41Z</time></trkpt><trkpt lat="46.160625" lon="10.3493863"><ele>614.0</ele><time>2026-04-10T13:17:39.409Z</time></trkpt><trkpt lat="46.1605642" lon="10.3493457"><ele>613.9999999999999</ele><time>2026-04-10T13:17:40.409Z</time></trkpt><trkpt lat="46.1605035" lon="10.3493037"><ele>614.0</ele><time>2026-04-10T13:17:41.409Z</time></trkpt><trkpt lat="46.1604452" lon="10.3492638"><ele>614.5714285714286</ele><time>2026-04-10T13:17:42.409Z</time></trkpt><trkpt lat="46.1603866" lon="10.3492244"><ele>615.1428571428571</ele><time>2026-04-10T13:17:43.409Z</time></trkpt><trkpt lat="46.1603263" lon="10.3491839"><ele>615.7142857142858</ele><time>2026-04-10T13:17:44.409Z</time></trkpt><trkpt lat="46.1602658" lon="10.3491408"><ele>616.2857142857142</ele><time>2026-04-10T13:17:45.408Z</time></trkpt><trkpt lat="46.1602033" lon="10.3490971"><ele>616.8571428571429</ele><time>2026-04-10T13:17:46.409Z</time></trkpt><trkpt lat="46.1601433" lon="10.3490542"><ele>617.4285714285714</ele><time>2026-04-10T13:17:47.408Z</time></trkpt><trkpt lat="46.1600849" lon="10.3490124"><ele>618.0</ele><time>2026-04-10T13:17:48.41Z</time></trkpt><trkpt lat="46.1600244" lon="10.3489711"><ele>618.0000000000001</ele><time>2026-04-10T13:17:49.409Z</time></trkpt><trkpt lat="46.1599661" lon="10.3489226"><ele>618.0</ele><time>2026-04-10T13:17:50.409Z</time></trkpt><trkpt lat="46.1599075" lon="10.3488766"><ele>618.0</ele><time>2026-04-10T13:17:51.41Z</time></trkpt><trkpt lat="46.1598455" lon="10.3488374"><ele>618.0</ele><time>2026-04-10T13:17:52.409Z</time></trkpt><trkpt lat="46.1597804" lon="10.3488011"><ele>618.0</ele><time>2026-04-10T13:17:53.409Z</time></trkpt><trkpt lat="46.1597187" lon="10.348764"><ele>618.0000000000001</ele><time>2026-04-10T13:17:54.409Z</time></trkpt><trkpt lat="46.1596531" lon="10.3487323"><ele>618.0</ele><time>2026-04-10T13:17:55.409Z</time></trkpt><trkpt lat="46.1595874" lon="10.3486976"><ele>617.2857142857143</ele><time>2026-04-10T13:17:56.409Z</time></trkpt><trkpt lat="46.1595204" lon="10.3486717"><ele>616.5714285714286</ele><time>2026-04-10T13:17:57.409Z</time></trkpt><trkpt lat="46.159455" lon="10.3486457"><ele>615.8571428571429</ele><time>2026-04-10T13:17:58.41Z</time></trkpt><trkpt lat="46.1593869" lon="10.3486386"><ele>615.1428571428571</ele><time>2026-04-10T13:17:59.41Z</time></trkpt><trkpt lat="46.1593187" lon="10.3486398"><ele>614.4285714285714</ele><time>2026-04-10T13:18:00.409Z</time></trkpt><trkpt lat="46.159252" lon="10.3486411"><ele>613.7142857142858</ele><time>2026-04-10T13:18:01.41Z</time></trkpt><trkpt lat="46.1591847" lon="10.3486412"><ele>613.0</ele><time>2026-04-10T13:18:02.41Z</time></trkpt><trkpt lat="46.1591185" lon="10.3486493"><ele>613.0</ele><time>2026-04-10T13:18:03.41Z</time></trkpt><trkpt lat="46.1590546" lon="10.3486558"><ele>613.0</ele><time>2026-04-10T13:18:04.41Z</time></trkpt><trkpt lat="46.1589887" lon="10.3486665"><ele>613.0</ele><time>2026-04-10T13:18:05.408Z</time></trkpt><trkpt lat="46.1589209" lon="10.3486817"><ele>613.0</ele><time>2026-04-10T13:18:06.41Z</time></trkpt><trkpt lat="46.1588542" lon="10.3486913"><ele>613.0</ele><time>2026-04-10T13:18:07.409Z</time></trkpt><trkpt lat="46.158787" lon="10.3487088"><ele>613.0</ele><time>2026-04-10T13:18:08.409Z</time></trkpt><trkpt lat="46.1587233" lon="10.348719"><ele>613.0</ele><time>2026-04-10T13:18:09.41Z</time></trkpt><trkpt lat="46.1586247" lon="10.348716"><ele>612.8333333333334</ele><time>2026-04-10T13:18:11.408Z</time></trkpt><trkpt lat="46.1585568" lon="10.3487277"><ele>612.6666666666667</ele><time>2026-04-10T13:18:12.409Z</time></trkpt><trkpt lat="46.158489" lon="10.3487426"><ele>612.5</ele><time>2026-04-10T13:18:13.409Z</time></trkpt><trkpt lat="46.1584245" lon="10.3487566"><ele>612.3333333333334</ele><time>2026-04-10T13:18:14.41Z</time></trkpt><trkpt lat="46.1583613" lon="10.3487788"><ele>612.1666666666666</ele><time>2026-04-10T13:18:15.408Z</time></trkpt><trkpt lat="46.1582471" lon="10.348804"><ele>612.0</ele><time>2026-04-10T13:18:17.408Z</time></trkpt><trkpt lat="46.1581462" lon="10.3488258"><ele>612.0</ele><time>2026-04-10T13:18:19.409Z</time></trkpt><trkpt lat="46.1580399" lon="10.3488468"><ele>612.0</ele><time>2026-04-10T13:18:21.41Z</time></trkpt><trkpt lat="46.1579423" lon="10.3488466"><ele>612.0</ele><time>2026-04-10T13:18:23.409Z</time></trkpt><trkpt lat="46.1578465" lon="10.3488249"><ele>612.0</ele><time>2026-04-10T13:18:25.409Z</time></trkpt><trkpt lat="46.1577565" lon="10.3487523"><ele>612.0</ele><time>2026-04-10T13:18:27.408Z</time></trkpt><trkpt lat="46.1576784" lon="10.3486388"><ele>612.0</ele><time>2026-04-10T13:18:29.408Z</time></trkpt><trkpt lat="46.1576215" lon="10.3484887"><ele>612.0</ele><time>2026-04-10T13:18:31.409Z</time></trkpt><trkpt lat="46.1576005" lon="10.3483298"><ele>612.0</ele><time>2026-04-10T13:18:33.41Z</time></trkpt><trkpt lat="46.1576026" lon="10.3481683"><ele>612.0</ele><time>2026-04-10T13:18:35.408Z</time></trkpt><trkpt lat="46.157604" lon="10.3480041"><ele>611.2</ele><time>2026-04-10T13:18:37.409Z</time></trkpt><trkpt lat="46.1576031" lon="10.3478523"><ele>610.4000000000001</ele><time>2026-04-10T13:18:39.409Z</time></trkpt><trkpt lat="46.1575747" lon="10.3477117"><ele>609.5999999999999</ele><time>2026-04-10T13:18:41.409Z</time></trkpt><trkpt lat="46.1575258" lon="10.3475942"><ele>608.8</ele><time>2026-04-10T13:18:43.409Z</time></trkpt><trkpt lat="46.1574559" lon="10.3474969"><ele>608.0</ele><time>2026-04-10T13:18:45.408Z</time></trkpt><trkpt lat="46.1573643" lon="10.3474077"><ele>608.0</ele><time>2026-04-10T13:18:47.41Z</time></trkpt><trkpt lat="46.1572629" lon="10.3473211"><ele>608.0</ele><time>2026-04-10T13:18:49.409Z</time></trkpt><trkpt lat="46.157158" lon="10.3472372"><ele>608.0</ele><time>2026-04-10T13:18:51.41Z</time></trkpt><trkpt lat="46.1570531" lon="10.3471529"><ele>608.0</ele><time>2026-04-10T13:18:53.409Z</time></trkpt><trkpt lat="46.1569524" lon="10.3470748"><ele>610.25</ele><time>2026-04-10T13:18:55.409Z</time></trkpt><trkpt lat="46.1568507" lon="10.3469921"><ele>612.5</ele><time>2026-04-10T13:18:57.409Z</time></trkpt><trkpt lat="46.1567502" lon="10.3469134"><ele>614.75</ele><time>2026-04-10T13:18:59.41Z</time></trkpt><trkpt lat="46.1566511" lon="10.3468296"><ele>617.0</ele><time>2026-04-10T13:19:01.409Z</time></trkpt><trkpt lat="46.1565472" lon="10.3467432"><ele>614.75</ele><time>2026-04-10T13:19:03.409Z</time></trkpt><trkpt lat="46.1564434" lon="10.3466589"><ele>612.5</ele><time>2026-04-10T13:19:05.409Z</time></trkpt><trkpt lat="46.156339" lon="10.3465703"><ele>610.25</ele><time>2026-04-10T13:19:07.409Z</time></trkpt><trkpt lat="46.1562356" lon="10.3464826"><ele>608.0</ele><time>2026-04-10T13:19:09.409Z</time></trkpt><trkpt lat="46.1561357" lon="10.3463909"><ele>609.8</ele><time>2026-04-10T13:19:11.41Z</time></trkpt><trkpt lat="46.1560366" lon="10.3463065"><ele>611.5999999999999</ele><time>2026-04-10T13:19:13.408Z</time></trkpt><trkpt lat="46.1559385" lon="10.3462417"><ele>613.4000000000001</ele><time>2026-04-10T13:19:15.41Z</time></trkpt><trkpt lat="46.155842" lon="10.3461958"><ele>615.2</ele><time>2026-04-10T13:19:17.409Z</time></trkpt><trkpt lat="46.1557515" lon="10.3461627"><ele>617.0</ele><time>2026-04-10T13:19:19.408Z</time></trkpt><trkpt lat="46.1556655" lon="10.346141"><ele>617.0</ele><time>2026-04-10T13:19:21.409Z</time></trkpt><trkpt lat="46.1555937" lon="10.3460998"><ele>617.0</ele><time>2026-04-10T13:19:23.409Z</time></trkpt><trkpt lat="46.1555675" lon="10.3460066"><ele>617.0</ele><time>2026-04-10T13:19:25.41Z</time></trkpt><trkpt lat="46.1555699" lon="10.3459058"><ele>617.0</ele><time>2026-04-10T13:19:29.408Z</time></trkpt><trkpt lat="46.155611" lon="10.3457919"><ele>617.0</ele><time>2026-04-10T13:19:32.41Z</time></trkpt><trkpt lat="46.1556879" lon="10.3457659"><ele>617.0</ele><time>2026-04-10T13:19:35.409Z</time></trkpt><trkpt lat="46.1557573" lon="10.3457753"><ele>617.0</ele><time>2026-04-10T13:19:38.408Z</time></trkpt><trkpt lat="46.1558312" lon="10.3457095"><ele>617.0</ele><time>2026-04-10T13:22:37.41Z</time></trkpt><trkpt lat="46.1558122" lon="10.3456207"><ele>617.0</ele><time>2026-04-10T13:22:42.409Z</time></trkpt><trkpt lat="46.155743" lon="10.3455591"><ele>617.0</ele><time>2026-04-10T13:22:46.41Z</time></trkpt><trkpt lat="46.1556755" lon="10.3454918"><ele>617.0</ele><time>2026-04-10T13:22:50.41Z</time></trkpt><trkpt lat="46.1556172" lon="10.3454476"><ele>617.0</ele><time>2026-04-10T13:22:53.411Z</time></trkpt><trkpt lat="46.1555512" lon="10.3454247"><ele>617.0</ele><time>2026-04-10T13:22:56.411Z</time></trkpt><trkpt lat="46.15547" lon="10.3454132"><ele>617.5</ele><time>2026-04-10T13:23:00.41Z</time></trkpt><trkpt lat="46.1554081" lon="10.3454344"><ele>618.0</ele><time>2026-04-10T13:23:03.41Z</time></trkpt><trkpt lat="46.155333" lon="10.3454762"><ele>618.5</ele><time>2026-04-10T13:23:07.411Z</time></trkpt><trkpt lat="46.1552671" lon="10.3455111"><ele>619.0</ele><time>2026-04-10T13:23:11.411Z</time></trkpt><trkpt lat="46.1551951" lon="10.345528"><ele>619.5</ele><time>2026-04-10T13:23:15.41Z</time></trkpt><trkpt lat="46.1551171" lon="10.345557"><ele>620.0</ele><time>2026-04-10T13:23:19.411Z</time></trkpt><trkpt lat="46.1550481" lon="10.3456207"><ele>620.0</ele><time>2026-04-10T13:23:23.41Z</time></trkpt><trkpt lat="46.1549946" lon="10.3456725"><ele>620.0</ele><time>2026-04-10T13:23:26.41Z</time></trkpt><trkpt lat="46.1549347" lon="10.3457163"><ele>620.0</ele><time>2026-04-10T13:23:29.411Z</time></trkpt><trkpt lat="46.1548531" lon="10.3457269"><ele>620.0</ele><time>2026-04-10T13:23:33.411Z</time></trkpt><trkpt lat="46.1547892" lon="10.3457097"><ele>620.0</ele><time>2026-04-10T13:23:36.41Z</time></trkpt><trkpt lat="46.1547306" lon="10.3456758"><ele>620.0</ele><time>2026-04-10T13:23:39.411Z</time></trkpt><trkpt lat="46.1546592" lon="10.3456248"><ele>620.0</ele><time>2026-04-10T13:23:43.41Z</time></trkpt><trkpt lat="46.1545806" lon="10.3455814"><ele>619.5</ele><time>2026-04-10T13:23:47.409Z</time></trkpt><trkpt lat="46.1545102" lon="10.3455605"><ele>619.0</ele><time>2026-04-10T13:23:50.41Z</time></trkpt><trkpt lat="46.1544243" lon="10.3455404"><ele>618.5</ele><time>2026-04-10T13:23:53.411Z</time></trkpt><trkpt lat="46.1543592" lon="10.3455183"><ele>618.0</ele><time>2026-04-10T13:23:55.409Z</time></trkpt><trkpt lat="46.1542879" lon="10.3454926"><ele>617.5</ele><time>2026-04-10T13:23:57.41Z</time></trkpt><trkpt lat="46.1542033" lon="10.3454615"><ele>617.0</ele><time>2026-04-10T13:23:59.41Z</time></trkpt><trkpt lat="46.1541128" lon="10.3454209"><ele>619.6</ele><time>2026-04-10T13:24:01.41Z</time></trkpt><trkpt lat="46.1540141" lon="10.3453713"><ele>622.2</ele><time>2026-04-10T13:24:03.411Z</time></trkpt><trkpt lat="46.153917" lon="10.3453169"><ele>624.8</ele><time>2026-04-10T13:24:05.41Z</time></trkpt><trkpt lat="46.1538221" lon="10.3452742"><ele>627.4</ele><time>2026-04-10T13:24:07.409Z</time></trkpt><trkpt lat="46.1537441" lon="10.3452235"><ele>630.0</ele><time>2026-04-10T13:24:09.411Z</time></trkpt><trkpt lat="46.1536718" lon="10.3451765"><ele>630.0</ele><time>2026-04-10T13:24:11.411Z</time></trkpt><trkpt lat="46.153606" lon="10.3451316"><ele>630.0</ele><time>2026-04-10T13:24:13.409Z</time></trkpt><trkpt lat="46.1535408" lon="10.3450875"><ele>630.0</ele><time>2026-04-10T13:24:16.409Z</time></trkpt><trkpt lat="46.1534774" lon="10.3450428"><ele>630.0</ele><time>2026-04-10T13:24:20.41Z</time></trkpt><trkpt lat="46.153424" lon="10.3449887"><ele>630.0</ele><time>2026-04-10T13:24:25.411Z</time></trkpt><trkpt lat="46.1533485" lon="10.3449555"><ele>630.0</ele><time>2026-04-10T13:24:54.41Z</time></trkpt><trkpt lat="46.1532772" lon="10.3449184"><ele>630.0</ele><time>2026-04-10T13:24:57.411Z</time></trkpt><trkpt lat="46.1532125" lon="10.3448892"><ele>630.0</ele><time>2026-04-10T13:24:59.411Z</time></trkpt><trkpt lat="46.1531366" lon="10.3448411"><ele>630.0</ele><time>2026-04-10T13:25:01.412Z</time></trkpt><trkpt lat="46.1530404" lon="10.344807"><ele>630.0</ele><time>2026-04-10T13:25:03.411Z</time></trkpt><trkpt lat="46.1529251" lon="10.3447906"><ele>630.0</ele><time>2026-04-10T13:25:05.411Z</time></trkpt><trkpt lat="46.1528591" lon="10.3447866"><ele>630.0</ele><time>2026-04-10T13:25:06.412Z</time></trkpt><trkpt lat="46.152717" lon="10.3448333"><ele>630.0</ele><time>2026-04-10T13:25:08.41Z</time></trkpt><trkpt lat="46.1526452" lon="10.3448617"><ele>630.0</ele><time>2026-04-10T13:25:09.411Z</time></trkpt><trkpt lat="46.1525725" lon="10.344892"><ele>630.0</ele><time>2026-04-10T13:25:10.411Z</time></trkpt><trkpt lat="46.1524926" lon="10.34489"><ele>630.0</ele><time>2026-04-10T13:25:11.41Z</time></trkpt><trkpt lat="46.1524232" lon="10.3448891"><ele>630.0</ele><time>2026-04-10T13:25:12.41Z</time></trkpt><trkpt lat="46.15231" lon="10.3449013"><ele>630.0</ele><time>2026-04-10T13:25:14.412Z</time></trkpt><trkpt lat="46.1522454" lon="10.3449337"><ele>630.0</ele><time>2026-04-10T13:25:16.412Z</time></trkpt><trkpt lat="46.1521695" lon="10.3449493"><ele>630.0</ele><time>2026-04-10T13:25:19.411Z</time></trkpt><trkpt lat="46.1520955" lon="10.344926"><ele>630.0</ele><time>2026-04-10T13:25:22.411Z</time></trkpt><trkpt lat="46.1520161" lon="10.3448989"><ele>630.0</ele><time>2026-04-10T13:25:25.412Z</time></trkpt><trkpt lat="46.1519416" lon="10.3448688"><ele>630.0</ele><time>2026-04-10T13:25:28.411Z</time></trkpt><trkpt lat="46.1518798" lon="10.3448413"><ele>630.0</ele><time>2026-04-10T13:25:31.411Z</time></trkpt><trkpt lat="46.1518161" lon="10.3448119"><ele>630.0</ele><time>2026-04-10T13:25:35.41Z</time></trkpt><trkpt lat="46.151754" lon="10.3447841"><ele>630.0</ele><time>2026-04-10T13:25:39.41Z</time></trkpt><trkpt lat="46.151691" lon="10.3447458"><ele>630.0</ele><time>2026-04-10T13:25:43.412Z</time></trkpt><trkpt lat="46.1516274" lon="10.3446925"><ele>630.0</ele><time>2026-04-10T13:25:47.411Z</time></trkpt><trkpt lat="46.1515673" lon="10.3446353"><ele>630.0</ele><time>2026-04-10T13:25:51.412Z</time></trkpt><trkpt lat="46.1515026" lon="10.3445777"><ele>630.0</ele><time>2026-04-10T13:25:55.41Z</time></trkpt><trkpt lat="46.1514394" lon="10.3445102"><ele>630.0</ele><time>2026-04-10T13:25:59.41Z</time></trkpt><trkpt lat="46.1513788" lon="10.3444559"><ele>630.0</ele><time>2026-04-10T13:26:03.411Z</time></trkpt><trkpt lat="46.1513149" lon="10.3444052"><ele>632.0</ele><time>2026-04-10T13:26:08.412Z</time></trkpt><trkpt lat="46.1512485" lon="10.3443613"><ele>634.0</ele><time>2026-04-10T13:27:17.412Z</time></trkpt><trkpt lat="46.1511865" lon="10.3442978"><ele>636.0</ele><time>2026-04-10T13:27:21.411Z</time></trkpt><trkpt lat="46.1511319" lon="10.3442462"><ele>638.0</ele><time>2026-04-10T13:27:25.411Z</time></trkpt><trkpt lat="46.1510713" lon="10.3441872"><ele>640.0</ele><time>2026-04-10T13:27:29.41Z</time></trkpt><trkpt lat="46.1510141" lon="10.3441153"><ele>642.0</ele><time>2026-04-10T13:27:33.411Z</time></trkpt><trkpt lat="46.1509496" lon="10.3440431"><ele>644.0</ele><time>2026-04-10T13:27:37.411Z</time></trkpt><trkpt lat="46.1509021" lon="10.3439595"><ele>644.5714285714286</ele><time>2026-04-10T13:27:41.411Z</time></trkpt><trkpt lat="46.1508687" lon="10.3438718"><ele>645.1428571428571</ele><time>2026-04-10T13:27:45.412Z</time></trkpt><trkpt lat="46.1508507" lon="10.3437596"><ele>645.7142857142858</ele><time>2026-04-10T13:27:49.412Z</time></trkpt><trkpt lat="46.1508479" lon="10.3436453"><ele>646.2857142857142</ele><time>2026-04-10T13:27:53.412Z</time></trkpt><trkpt lat="46.1508238" lon="10.3435464"><ele>646.8571428571429</ele><time>2026-04-10T13:27:57.412Z</time></trkpt><trkpt lat="46.1507818" lon="10.3434619"><ele>647.4285714285714</ele><time>2026-04-10T13:28:01.411Z</time></trkpt><trkpt lat="46.1507304" lon="10.3433956"><ele>648.0</ele><time>2026-04-10T13:28:05.412Z</time></trkpt><trkpt lat="46.1506974" lon="10.3433141"><ele>648.0</ele><time>2026-04-10T13:28:08.411Z</time></trkpt><trkpt lat="46.1506831" lon="10.3432093"><ele>648.0</ele><time>2026-04-10T13:28:12.412Z</time></trkpt><trkpt lat="46.1506545" lon="10.3431114"><ele>648.0</ele><time>2026-04-10T13:28:16.411Z</time></trkpt><trkpt lat="46.1506208" lon="10.3430189"><ele>648.0</ele><time>2026-04-10T13:28:19.41Z</time></trkpt><trkpt lat="46.1505875" lon="10.3429092"><ele>648.0</ele><time>2026-04-10T13:28:22.411Z</time></trkpt><trkpt lat="46.1505523" lon="10.3428108"><ele>648.0</ele><time>2026-04-10T13:28:24.411Z</time></trkpt><trkpt lat="46.1505054" lon="10.3427235"><ele>648.5</ele><time>2026-04-10T13:28:26.411Z</time></trkpt><trkpt lat="46.1504559" lon="10.34264"><ele>649.0</ele><time>2026-04-10T13:28:27.411Z</time></trkpt><trkpt lat="46.1503826" lon="10.3424889"><ele>649.5</ele><time>2026-04-10T13:28:29.411Z</time></trkpt><trkpt lat="46.1503758" lon="10.3423869"><ele>650.0</ele><time>2026-04-10T13:28:30.411Z</time></trkpt><trkpt lat="46.1503745" lon="10.3422899"><ele>650.5</ele><time>2026-04-10T13:28:31.41Z</time></trkpt><trkpt lat="46.1503755" lon="10.3421935"><ele>651.0</ele><time>2026-04-10T13:28:32.411Z</time></trkpt><trkpt lat="46.1503701" lon="10.3420995"><ele>651.0</ele><time>2026-04-10T13:28:33.411Z</time></trkpt><trkpt lat="46.1503677" lon="10.3420083"><ele>651.0</ele><time>2026-04-10T13:28:34.41Z</time></trkpt><trkpt lat="46.1503143" lon="10.3418824"><ele>651.0</ele><time>2026-04-10T13:28:36.411Z</time></trkpt><trkpt lat="46.1502632" lon="10.3417863"><ele>651.0</ele><time>2026-04-10T13:28:38.411Z</time></trkpt><trkpt lat="46.1502306" lon="10.3416619"><ele>651.0</ele><time>2026-04-10T13:28:41.411Z</time></trkpt><trkpt lat="46.1502059" lon="10.3415698"><ele>651.0</ele><time>2026-04-10T13:28:43.411Z</time></trkpt><trkpt lat="46.150144" lon="10.3414786"><ele>651.0</ele><time>2026-04-10T13:28:45.411Z</time></trkpt><trkpt lat="46.1500432" lon="10.3414246"><ele>651.0</ele><time>2026-04-10T13:28:47.411Z</time></trkpt><trkpt lat="46.1499371" lon="10.3413368"><ele>651.0</ele><time>2026-04-10T13:28:49.41Z</time></trkpt><trkpt lat="46.1498552" lon="10.3412347"><ele>651.0</ele><time>2026-04-10T13:28:51.41Z</time></trkpt><trkpt lat="46.1497771" lon="10.3411553"><ele>651.0</ele><time>2026-04-10T13:28:53.412Z</time></trkpt><trkpt lat="46.1496847" lon="10.3411372"><ele>651.3333333333334</ele><time>2026-04-10T13:28:55.411Z</time></trkpt><trkpt lat="46.149621" lon="10.3410781"><ele>651.6666666666666</ele><time>2026-04-10T13:28:57.411Z</time></trkpt><trkpt lat="46.1495423" lon="10.3410014"><ele>652.0</ele><time>2026-04-10T13:28:59.411Z</time></trkpt><trkpt lat="46.1494881" lon="10.3409551"><ele>652.3333333333333</ele><time>2026-04-10T13:29:01.411Z</time></trkpt><trkpt lat="46.1494223" lon="10.3408801"><ele>652.6666666666666</ele><time>2026-04-10T13:29:04.41Z</time></trkpt><trkpt lat="46.1493907" lon="10.3407894"><ele>653.0</ele><time>2026-04-10T13:29:07.411Z</time></trkpt><trkpt lat="46.1493481" lon="10.3406891"><ele>653.0000000000001</ele><time>2026-04-10T13:29:11.411Z</time></trkpt><trkpt lat="46.1492975" lon="10.3405947"><ele>653.0</ele><time>2026-04-10T13:29:15.412Z</time></trkpt><trkpt lat="46.149255" lon="10.3404868"><ele>653.0</ele><time>2026-04-10T13:29:19.41Z</time></trkpt><trkpt lat="46.1492127" lon="10.3404049"><ele>653.0</ele><time>2026-04-10T13:29:22.411Z</time></trkpt><trkpt lat="46.1491713" lon="10.3403253"><ele>653.0</ele><time>2026-04-10T13:29:25.412Z</time></trkpt><trkpt lat="46.1491302" lon="10.3402432"><ele>653.0000000000001</ele><time>2026-04-10T13:29:28.412Z</time></trkpt><trkpt lat="46.1490898" lon="10.3401705"><ele>653.0</ele><time>2026-04-10T13:29:31.411Z</time></trkpt><trkpt lat="46.1490483" lon="10.3400794"><ele>655.5714285714287</ele><time>2026-04-10T13:29:36.411Z</time></trkpt><trkpt lat="46.1490123" lon="10.3399989"><ele>658.1428571428571</ele><time>2026-04-10T13:29:40.411Z</time></trkpt><trkpt lat="46.14896" lon="10.3399397"><ele>660.7142857142858</ele><time>2026-04-10T13:29:44.4Z</time></trkpt><trkpt lat="46.1488971" lon="10.3399127"><ele>663.2857142857143</ele><time>2026-04-10T13:29:48.41Z</time></trkpt><trkpt lat="46.1488289" lon="10.3398677"><ele>665.8571428571429</ele><time>2026-04-10T13:29:52.411Z</time></trkpt><trkpt lat="46.1487607" lon="10.3398258"><ele>668.4285714285714</ele><time>2026-04-10T13:29:56.412Z</time></trkpt><trkpt lat="46.1486909" lon="10.339808"><ele>671.0</ele><time>2026-04-10T13:30:00.411Z</time></trkpt><trkpt lat="46.1486126" lon="10.3397956"><ele>671.0</ele><time>2026-04-10T13:30:05.411Z</time></trkpt><trkpt lat="46.1485437" lon="10.3397676"><ele>671.0</ele><time>2026-04-10T13:30:10.411Z</time></trkpt><trkpt lat="46.1484814" lon="10.3397248"><ele>671.0</ele><time>2026-04-10T13:30:15.411Z</time></trkpt><trkpt lat="46.1484359" lon="10.3396517"><ele>671.0</ele><time>2026-04-10T13:30:20.411Z</time></trkpt><trkpt lat="46.1483919" lon="10.3395695"><ele>671.0</ele><time>2026-04-10T13:30:25.412Z</time></trkpt><trkpt lat="46.1483502" lon="10.3394862"><ele>671.0</ele><time>2026-04-10T13:30:30.388Z</time></trkpt><trkpt lat="46.1483096" lon="10.3394119"><ele>671.0</ele><time>2026-04-10T13:30:35.107Z</time></trkpt><trkpt lat="46.1482752" lon="10.3393175"><ele>672.4285714285714</ele><time>2026-04-10T13:30:40.41Z</time></trkpt><trkpt lat="46.1482369" lon="10.3392298"><ele>673.8571428571429</ele><time>2026-04-10T13:30:46.411Z</time></trkpt><trkpt lat="46.1481902" lon="10.3391592"><ele>675.2857142857143</ele><time>2026-04-10T13:30:51.41Z</time></trkpt><trkpt lat="46.1481426" lon="10.3390858"><ele>676.7142857142858</ele><time>2026-04-10T13:30:57.335Z</time></trkpt><trkpt lat="46.1480925" lon="10.3390133"><ele>678.1428571428571</ele><time>2026-04-10T13:31:03.394Z</time></trkpt><trkpt lat="46.1480336" lon="10.3389698"><ele>679.5714285714287</ele><time>2026-04-10T13:31:09.374Z</time></trkpt><trkpt lat="46.1479686" lon="10.3389412"><ele>681.0</ele><time>2026-04-10T13:31:15.412Z</time></trkpt><trkpt lat="46.1478983" lon="10.3388812"><ele>683.6666666666666</ele><time>2026-04-10T13:31:20.412Z</time></trkpt><trkpt lat="46.1478522" lon="10.3388168"><ele>686.3333333333334</ele><time>2026-04-10T13:31:23.413Z</time></trkpt><trkpt lat="46.1477857" lon="10.3387407"><ele>689.0</ele><time>2026-04-10T13:31:27.413Z</time></trkpt><trkpt lat="46.1477011" lon="10.3386715"><ele>691.6666666666667</ele><time>2026-04-10T13:31:28.411Z</time></trkpt><trkpt lat="46.1476402" lon="10.3385938"><ele>694.3333333333334</ele><time>2026-04-10T13:31:32.412Z</time></trkpt><trkpt lat="46.1475751" lon="10.3385299"><ele>697.0</ele><time>2026-04-10T13:31:36.412Z</time></trkpt><trkpt lat="46.1475313" lon="10.3384569"><ele>697.0</ele><time>2026-04-10T13:31:42.411Z</time></trkpt><trkpt lat="46.1474734" lon="10.3384045"><ele>697.0</ele><time>2026-04-10T13:31:46.412Z</time></trkpt><trkpt lat="46.147408" lon="10.3383577"><ele>697.0</ele><time>2026-04-10T13:33:11.412Z</time></trkpt><trkpt lat="46.1473598" lon="10.3382716"><ele>697.0</ele><time>2026-04-10T13:33:14.412Z</time></trkpt><trkpt lat="46.1473086" lon="10.3381869"><ele>697.0</ele><time>2026-04-10T13:33:17.412Z</time></trkpt><trkpt lat="46.1472456" lon="10.3381003"><ele>697.0</ele><time>2026-04-10T13:33:20.412Z</time></trkpt><trkpt lat="46.1471741" lon="10.3380127"><ele>695.8333333333334</ele><time>2026-04-10T13:33:23.413Z</time></trkpt><trkpt lat="46.1471092" lon="10.3379275"><ele>694.6666666666667</ele><time>2026-04-10T13:33:27.412Z</time></trkpt><trkpt lat="46.1470555" lon="10.3378642"><ele>693.5</ele><time>2026-04-10T13:33:29.411Z</time></trkpt><trkpt lat="46.1469846" lon="10.3377901"><ele>692.3333333333334</ele><time>2026-04-10T13:33:32.412Z</time></trkpt><trkpt lat="46.1469061" lon="10.3377187"><ele>691.1666666666666</ele><time>2026-04-10T13:33:35.412Z</time></trkpt><trkpt lat="46.1468499" lon="10.3376354"><ele>690.0</ele><time>2026-04-10T13:33:37.412Z</time></trkpt><trkpt lat="46.1467983" lon="10.3375562"><ele>690.0</ele><time>2026-04-10T13:33:39.412Z</time></trkpt><trkpt lat="46.1467302" lon="10.3374779"><ele>690.0</ele><time>2026-04-10T13:33:41.412Z</time></trkpt><trkpt lat="46.1466749" lon="10.3373906"><ele>690.0</ele><time>2026-04-10T13:33:42.411Z</time></trkpt><trkpt lat="46.1466018" lon="10.3372813"><ele>690.0</ele><time>2026-04-10T13:33:44.412Z</time></trkpt><trkpt lat="46.1465707" lon="10.337149"><ele>690.0</ele><time>2026-04-10T13:33:47.412Z</time></trkpt><trkpt lat="46.1465229" lon="10.3370743"><ele>690.0</ele><time>2026-04-10T13:33:49.411Z</time></trkpt><trkpt lat="46.1464451" lon="10.3370174"><ele>690.0</ele><time>2026-04-10T13:33:52.412Z</time></trkpt><trkpt lat="46.1463708" lon="10.3369733"><ele>690.0</ele><time>2026-04-10T13:33:55.412Z</time></trkpt><trkpt lat="46.146325" lon="10.3369061"><ele>690.0</ele><time>2026-04-10T13:33:57.411Z</time></trkpt><trkpt lat="46.1462874" lon="10.3368184"><ele>690.0</ele><time>2026-04-10T13:33:59.413Z</time></trkpt><trkpt lat="46.1462407" lon="10.3367421"><ele>690.0</ele><time>2026-04-10T13:34:01.412Z</time></trkpt><trkpt lat="46.1462138" lon="10.3366307"><ele>690.0</ele><time>2026-04-10T13:34:04.412Z</time></trkpt><trkpt lat="46.1461852" lon="10.336539"><ele>690.0</ele><time>2026-04-10T13:34:07.412Z</time></trkpt><trkpt lat="46.1461302" lon="10.3364377"><ele>694.0</ele><time>2026-04-10T13:34:10.411Z</time></trkpt><trkpt lat="46.1460968" lon="10.3363583"><ele>698.0</ele><time>2026-04-10T13:34:12.412Z</time></trkpt><trkpt lat="46.1460506" lon="10.3362614"><ele>702.0</ele><time>2026-04-10T13:34:15.412Z</time></trkpt><trkpt lat="46.1459914" lon="10.3361917"><ele>706.0</ele><time>2026-04-10T13:34:19.412Z</time></trkpt><trkpt lat="46.1459286" lon="10.3361567"><ele>710.0</ele><time>2026-04-10T13:34:23.411Z</time></trkpt><trkpt lat="46.1458566" lon="10.3361344"><ele>714.0</ele><time>2026-04-10T13:34:28.413Z</time></trkpt><trkpt lat="46.1457918" lon="10.3361452"><ele>718.0</ele><time>2026-04-10T13:34:33.404Z</time></trkpt><trkpt lat="46.1457214" lon="10.3361708"><ele>717.5714285714286</ele><time>2026-04-10T13:34:39.412Z</time></trkpt><trkpt lat="46.1456527" lon="10.3361631"><ele>717.1428571428571</ele><time>2026-04-10T13:34:44.411Z</time></trkpt><trkpt lat="46.1455802" lon="10.3361484"><ele>716.7142857142858</ele><time>2026-04-10T13:34:49.412Z</time></trkpt><trkpt lat="46.1455169" lon="10.3361303"><ele>716.2857142857142</ele><time>2026-04-10T13:34:53.412Z</time></trkpt><trkpt lat="46.1454537" lon="10.336114"><ele>715.8571428571428</ele><time>2026-04-10T13:34:57.414Z</time></trkpt><trkpt lat="46.1453962" lon="10.3360763"><ele>715.4285714285714</ele><time>2026-04-10T13:35:01.345Z</time></trkpt><trkpt lat="46.1453212" lon="10.3360509"><ele>715.0</ele><time>2026-04-10T13:35:05.412Z</time></trkpt><trkpt lat="46.1452577" lon="10.3360149"><ele>715.0</ele><time>2026-04-10T13:35:09.413Z</time></trkpt><trkpt lat="46.145184" lon="10.3359782"><ele>715.0</ele><time>2026-04-10T13:35:13.411Z</time></trkpt><trkpt lat="46.1451189" lon="10.3359483"><ele>715.0</ele><time>2026-04-10T13:35:17.412Z</time></trkpt><trkpt lat="46.1450575" lon="10.3359132"><ele>715.0</ele><time>2026-04-10T13:35:21.412Z</time></trkpt><trkpt lat="46.1449935" lon="10.3358816"><ele>715.0</ele><time>2026-04-10T13:35:25.412Z</time></trkpt><trkpt lat="46.1449271" lon="10.3358463"><ele>715.0</ele><time>2026-04-10T13:35:29.412Z</time></trkpt><trkpt lat="46.1448487" lon="10.3358092"><ele>715.0</ele><time>2026-04-10T13:35:33.412Z</time></trkpt><trkpt lat="46.1447836" lon="10.3357864"><ele>714.6666666666667</ele><time>2026-04-10T13:35:36.412Z</time></trkpt><trkpt lat="46.1447011" lon="10.3357797"><ele>714.3333333333334</ele><time>2026-04-10T13:35:40.413Z</time></trkpt><trkpt lat="46.1446238" lon="10.3357682"><ele>714.0</ele><time>2026-04-10T13:35:44.411Z</time></trkpt><trkpt lat="46.144559" lon="10.3357503"><ele>713.6666666666666</ele><time>2026-04-10T13:35:48.411Z</time></trkpt><trkpt lat="46.1444872" lon="10.3357196"><ele>713.3333333333333</ele><time>2026-04-10T13:35:52.412Z</time></trkpt><trkpt lat="46.1444174" lon="10.3356581"><ele>713.0</ele><time>2026-04-10T13:35:56.412Z</time></trkpt><trkpt lat="46.1443523" lon="10.3356105"><ele>714.4285714285714</ele><time>2026-04-10T13:36:00.411Z</time></trkpt><trkpt lat="46.144289" lon="10.3355503"><ele>715.8571428571429</ele><time>2026-04-10T13:36:04.413Z</time></trkpt><trkpt lat="46.1442326" lon="10.3354835"><ele>717.2857142857143</ele><time>2026-04-10T13:36:08.412Z</time></trkpt><trkpt lat="46.1441655" lon="10.3354249"><ele>718.7142857142858</ele><time>2026-04-10T13:36:12.413Z</time></trkpt><trkpt lat="46.1441102" lon="10.3353533"><ele>720.1428571428571</ele><time>2026-04-10T13:36:16.413Z</time></trkpt><trkpt lat="46.1440625" lon="10.3352705"><ele>721.5714285714287</ele><time>2026-04-10T13:36:20.412Z</time></trkpt><trkpt lat="46.1440084" lon="10.3352046"><ele>723.0</ele><time>2026-04-10T13:36:24.411Z</time></trkpt><trkpt lat="46.1439456" lon="10.3351439"><ele>723.0000000000001</ele><time>2026-04-10T13:36:28.413Z</time></trkpt><trkpt lat="46.14391" lon="10.335048"><ele>723.0</ele><time>2026-04-10T13:36:33.412Z</time></trkpt><trkpt lat="46.143901" lon="10.3349373"><ele>723.0</ele><time>2026-04-10T13:36:38.413Z</time></trkpt><trkpt lat="46.143902" lon="10.3348338"><ele>723.0</ele><time>2026-04-10T13:36:43.413Z</time></trkpt><trkpt lat="46.1438688" lon="10.3347472"><ele>723.0</ele><time>2026-04-10T13:36:47.414Z</time></trkpt><trkpt lat="46.143812" lon="10.3346868"><ele>723.0000000000001</ele><time>2026-04-10T13:36:51.413Z</time></trkpt><trkpt lat="46.1437497" lon="10.3346217"><ele>723.0</ele><time>2026-04-10T13:36:56.413Z</time></trkpt><trkpt lat="46.1436826" lon="10.3345915"><ele>727.0</ele><time>2026-04-10T13:37:01.413Z</time></trkpt><trkpt lat="46.1436235" lon="10.3345348"><ele>731.0</ele><time>2026-04-10T13:37:06.412Z</time></trkpt><trkpt lat="46.1435693" lon="10.3344672"><ele>735.0</ele><time>2026-04-10T13:37:11.412Z</time></trkpt><trkpt lat="46.1435129" lon="10.3343994"><ele>739.0</ele><time>2026-04-10T13:38:32.414Z</time></trkpt><trkpt lat="46.1434604" lon="10.3343467"><ele>743.0</ele><time>2026-04-10T13:38:36.414Z</time></trkpt><trkpt lat="46.1433701" lon="10.3342828"><ele>747.0</ele><time>2026-04-10T13:38:38.413Z</time></trkpt><trkpt lat="46.1432772" lon="10.3341724"><ele>746.9999999999999</ele><time>2026-04-10T13:38:40.412Z</time></trkpt><trkpt lat="46.1432234" lon="10.3341206"><ele>747.0</ele><time>2026-04-10T13:38:41.412Z</time></trkpt><trkpt lat="46.1431601" lon="10.3340669"><ele>747.0</ele><time>2026-04-10T13:38:42.413Z</time></trkpt><trkpt lat="46.1430894" lon="10.3340332"><ele>747.0</ele><time>2026-04-10T13:38:43.413Z</time></trkpt><trkpt lat="46.143031" lon="10.3339763"><ele>747.0</ele><time>2026-04-10T13:38:44.412Z</time></trkpt><trkpt lat="46.1429781" lon="10.3339132"><ele>746.9999999999999</ele><time>2026-04-10T13:38:45.414Z</time></trkpt><trkpt lat="46.1429285" lon="10.3338569"><ele>747.0</ele><time>2026-04-10T13:38:46.413Z</time></trkpt><trkpt lat="46.1428199" lon="10.3337929"><ele>746.25</ele><time>2026-04-10T13:38:48.413Z</time></trkpt><trkpt lat="46.1426898" lon="10.3337746"><ele>745.5</ele><time>2026-04-10T13:38:50.413Z</time></trkpt><trkpt lat="46.1425879" lon="10.3336993"><ele>744.75</ele><time>2026-04-10T13:38:52.413Z</time></trkpt><trkpt lat="46.1424861" lon="10.3336269"><ele>744.0</ele><time>2026-04-10T13:38:54.413Z</time></trkpt><trkpt lat="46.1424052" lon="10.3335633"><ele>742.5</ele><time>2026-04-10T13:38:57.412Z</time></trkpt><trkpt lat="46.1423432" lon="10.3335086"><ele>741.0</ele><time>2026-04-10T13:39:00.413Z</time></trkpt><trkpt lat="46.1422614" lon="10.3334403"><ele>739.5</ele><time>2026-04-10T13:39:03.414Z</time></trkpt><trkpt lat="46.1422179" lon="10.3333701"><ele>738.0</ele><time>2026-04-10T13:39:05.412Z</time></trkpt><trkpt lat="46.1421422" lon="10.3332996"><ele>736.5</ele><time>2026-04-10T13:39:08.413Z</time></trkpt><trkpt lat="46.1420705" lon="10.333268"><ele>735.0</ele><time>2026-04-10T13:39:11.414Z</time></trkpt><trkpt lat="46.1419869" lon="10.3332593"><ele>735.0</ele><time>2026-04-10T13:39:14.413Z</time></trkpt><trkpt lat="46.1419161" lon="10.3332355"><ele>735.0</ele><time>2026-04-10T13:39:16.413Z</time></trkpt><trkpt lat="46.1418396" lon="10.3332052"><ele>735.0</ele><time>2026-04-10T13:39:18.412Z</time></trkpt><trkpt lat="46.1417688" lon="10.3331938"><ele>735.0</ele><time>2026-04-10T13:39:20.412Z</time></trkpt><trkpt lat="46.1417002" lon="10.3331843"><ele>735.0</ele><time>2026-04-10T13:39:22.413Z</time></trkpt><trkpt lat="46.1416252" lon="10.3331288"><ele>735.0</ele><time>2026-04-10T13:39:24.412Z</time></trkpt><trkpt lat="46.141564" lon="10.3330542"><ele>736.1666666666666</ele><time>2026-04-10T13:39:26.413Z</time></trkpt><trkpt lat="46.1415147" lon="10.3329893"><ele>737.3333333333334</ele><time>2026-04-10T13:39:28.413Z</time></trkpt><trkpt lat="46.1414428" lon="10.3329418"><ele>738.5</ele><time>2026-04-10T13:39:30.413Z</time></trkpt><trkpt lat="46.1413755" lon="10.3329046"><ele>739.6666666666667</ele><time>2026-04-10T13:39:32.413Z</time></trkpt><trkpt lat="46.1413211" lon="10.3328295"><ele>740.8333333333334</ele><time>2026-04-10T13:39:34.413Z</time></trkpt><trkpt lat="46.1412596" lon="10.332756"><ele>742.0</ele><time>2026-04-10T13:39:37.412Z</time></trkpt><trkpt lat="46.1411696" lon="10.3327104"><ele>742.0</ele><time>2026-04-10T13:39:40.413Z</time></trkpt><trkpt lat="46.1410816" lon="10.3326914"><ele>742.0</ele><time>2026-04-10T13:39:42.412Z</time></trkpt><trkpt lat="46.1410144" lon="10.3326424"><ele>742.0</ele><time>2026-04-10T13:39:44.412Z</time></trkpt><trkpt lat="46.1409414" lon="10.332591"><ele>742.0</ele><time>2026-04-10T13:39:47.412Z</time></trkpt><trkpt lat="46.1408774" lon="10.3325555"><ele>742.0</ele><time>2026-04-10T13:39:50.412Z</time></trkpt><trkpt lat="46.1408076" lon="10.3325693"><ele>742.0</ele><time>2026-04-10T13:39:54.413Z</time></trkpt><trkpt lat="46.1407374" lon="10.3325727"><ele>742.1666666666667</ele><time>2026-04-10T13:39:58.414Z</time></trkpt><trkpt lat="46.1406805" lon="10.3326262"><ele>742.3333333333334</ele><time>2026-04-10T13:40:19.413Z</time></trkpt><trkpt lat="46.1405955" lon="10.3326789"><ele>742.5</ele><time>2026-04-10T13:40:22.412Z</time></trkpt><trkpt lat="46.1405258" lon="10.3327192"><ele>742.6666666666666</ele><time>2026-04-10T13:40:24.414Z</time></trkpt><trkpt lat="46.1404058" lon="10.3327898"><ele>742.8333333333333</ele><time>2026-04-10T13:40:26.412Z</time></trkpt><trkpt lat="46.1403408" lon="10.3328133"><ele>743.0</ele><time>2026-04-10T13:40:27.412Z</time></trkpt><trkpt lat="46.1402745" lon="10.3328129"><ele>743.0</ele><time>2026-04-10T13:40:28.412Z</time></trkpt><trkpt lat="46.1402109" lon="10.3328133"><ele>743.0</ele><time>2026-04-10T13:40:29.412Z</time></trkpt><trkpt lat="46.140095" lon="10.3328019"><ele>743.0</ele><time>2026-04-10T13:40:31.412Z</time></trkpt><trkpt lat="46.1400005" lon="10.3327773"><ele>743.0</ele><time>2026-04-10T13:40:33.413Z</time></trkpt><trkpt lat="46.1399271" lon="10.332718"><ele>743.0</ele><time>2026-04-10T13:40:35.413Z</time></trkpt><trkpt lat="46.1398605" lon="10.3326172"><ele>742.6666666666666</ele><time>2026-04-10T13:40:37.412Z</time></trkpt><trkpt lat="46.139799" lon="10.3325465"><ele>742.3333333333333</ele><time>2026-04-10T13:40:39.413Z</time></trkpt><trkpt lat="46.1397356" lon="10.3324669"><ele>742.0</ele><time>2026-04-10T13:40:41.412Z</time></trkpt><trkpt lat="46.1396738" lon="10.332387"><ele>741.6666666666666</ele><time>2026-04-10T13:40:43.413Z</time></trkpt><trkpt lat="46.13961" lon="10.3323061"><ele>741.3333333333334</ele><time>2026-04-10T13:40:45.414Z</time></trkpt><trkpt lat="46.139549" lon="10.3322336"><ele>741.0</ele><time>2026-04-10T13:40:47.413Z</time></trkpt><trkpt lat="46.1394827" lon="10.3321695"><ele>741.0</ele><time>2026-04-10T13:40:49.413Z</time></trkpt><trkpt lat="46.1393704" lon="10.3320884"><ele>741.0</ele><time>2026-04-10T13:40:51.412Z</time></trkpt><trkpt lat="46.1392935" lon="10.3320694"><ele>741.0</ele><time>2026-04-10T13:40:52.414Z</time></trkpt><trkpt lat="46.1392124" lon="10.3320606"><ele>741.0</ele><time>2026-04-10T13:40:53.414Z</time></trkpt><trkpt lat="46.139129" lon="10.3320457"><ele>741.0</ele><time>2026-04-10T13:40:54.414Z</time></trkpt><trkpt lat="46.1390531" lon="10.3320213"><ele>741.0</ele><time>2026-04-10T13:40:55.412Z</time></trkpt><trkpt lat="46.1389855" lon="10.3319825"><ele>737.5714285714286</ele><time>2026-04-10T13:40:56.414Z</time></trkpt><trkpt lat="46.1389236" lon="10.3319181"><ele>734.1428571428572</ele><time>2026-04-10T13:40:57.413Z</time></trkpt><trkpt lat="46.1388552" lon="10.3318683"><ele>730.7142857142858</ele><time>2026-04-10T13:40:58.413Z</time></trkpt><trkpt lat="46.1387971" lon="10.3318009"><ele>727.2857142857142</ele><time>2026-04-10T13:40:59.412Z</time></trkpt><trkpt lat="46.138735" lon="10.3317485"><ele>723.8571428571429</ele><time>2026-04-10T13:41:00.413Z</time></trkpt><trkpt lat="46.1386751" lon="10.3317048"><ele>720.4285714285714</ele><time>2026-04-10T13:41:01.412Z</time></trkpt><trkpt lat="46.138618" lon="10.3316588"><ele>717.0</ele><time>2026-04-10T13:41:02.412Z</time></trkpt><trkpt lat="46.1385624" lon="10.331615"><ele>717.0</ele><time>2026-04-10T13:41:03.414Z</time></trkpt><trkpt lat="46.1385086" lon="10.3315631"><ele>717.0</ele><time>2026-04-10T13:41:04.414Z</time></trkpt><trkpt lat="46.1384268" lon="10.331467"><ele>717.0</ele><time>2026-04-10T13:41:06.414Z</time></trkpt><trkpt lat="46.138365" lon="10.3313806"><ele>717.0</ele><time>2026-04-10T13:41:08.413Z</time></trkpt><trkpt lat="46.1382877" lon="10.3312941"><ele>717.0</ele><time>2026-04-10T13:41:10.412Z</time></trkpt><trkpt lat="46.1382287" lon="10.3311787"><ele>715.2</ele><time>2026-04-10T13:41:12.413Z</time></trkpt><trkpt lat="46.1381745" lon="10.331082"><ele>713.4000000000001</ele><time>2026-04-10T13:41:14.414Z</time></trkpt><trkpt lat="46.1381066" lon="10.3310124"><ele>711.5999999999999</ele><time>2026-04-10T13:41:16.414Z</time></trkpt><trkpt lat="46.1380114" lon="10.3309503"><ele>709.8</ele><time>2026-04-10T13:41:18.414Z</time></trkpt><trkpt lat="46.1378865" lon="10.3309029"><ele>708.0</ele><time>2026-04-10T13:41:20.413Z</time></trkpt><trkpt lat="46.1378243" lon="10.3308749"><ele>708.0</ele><time>2026-04-10T13:41:21.414Z</time></trkpt><trkpt lat="46.1377146" lon="10.3308465"><ele>708.0</ele><time>2026-04-10T13:41:23.412Z</time></trkpt><trkpt lat="46.1376201" lon="10.3307623"><ele>708.0</ele><time>2026-04-10T13:41:25.413Z</time></trkpt><trkpt lat="46.1375649" lon="10.3307181"><ele>708.0</ele><time>2026-04-10T13:41:26.414Z</time></trkpt><trkpt lat="46.1374774" lon="10.3306269"><ele>708.0</ele><time>2026-04-10T13:41:28.413Z</time></trkpt><trkpt lat="46.1373959" lon="10.3305312"><ele>703.4</ele><time>2026-04-10T13:41:30.414Z</time></trkpt><trkpt lat="46.1373106" lon="10.3304084"><ele>698.8</ele><time>2026-04-10T13:41:32.412Z</time></trkpt><trkpt lat="46.1372705" lon="10.3303373"><ele>694.2</ele><time>2026-04-10T13:41:33.413Z</time></trkpt><trkpt lat="46.1371579" lon="10.3302443"><ele>689.6</ele><time>2026-04-10T13:41:35.413Z</time></trkpt><trkpt lat="46.1370959" lon="10.3301801"><ele>685.0</ele><time>2026-04-10T13:41:36.413Z</time></trkpt><trkpt lat="46.1370378" lon="10.3301121"><ele>685.0</ele><time>2026-04-10T13:41:37.414Z</time></trkpt><trkpt lat="46.1369452" lon="10.3300029"><ele>685.0</ele><time>2026-04-10T13:41:39.412Z</time></trkpt><trkpt lat="46.1368458" lon="10.3299078"><ele>685.0</ele><time>2026-04-10T13:41:41.414Z</time></trkpt><trkpt lat="46.1367727" lon="10.329793"><ele>685.0</ele><time>2026-04-10T13:41:43.414Z</time></trkpt><trkpt lat="46.1367266" lon="10.3297221"><ele>685.0</ele><time>2026-04-10T13:41:44.413Z</time></trkpt><trkpt lat="46.1366845" lon="10.3296324"><ele>688.3333333333334</ele><time>2026-04-10T13:41:45.413Z</time></trkpt><trkpt lat="46.1366408" lon="10.3295434"><ele>691.6666666666667</ele><time>2026-04-10T13:41:46.412Z</time></trkpt><trkpt lat="46.1365984" lon="10.3294456"><ele>695.0</ele><time>2026-04-10T13:41:47.412Z</time></trkpt><trkpt lat="46.1365487" lon="10.3293375"><ele>698.3333333333334</ele><time>2026-04-10T13:41:48.414Z</time></trkpt><trkpt lat="46.1365087" lon="10.3292246"><ele>701.6666666666666</ele><time>2026-04-10T13:41:49.414Z</time></trkpt><trkpt lat="46.1364697" lon="10.3291179"><ele>705.0</ele><time>2026-04-10T13:41:50.413Z</time></trkpt><trkpt lat="46.1364075" lon="10.3290429"><ele>700.4</ele><time>2026-04-10T13:41:51.413Z</time></trkpt><trkpt lat="46.1363177" lon="10.3289591"><ele>695.8</ele><time>2026-04-10T13:41:53.413Z</time></trkpt><trkpt lat="46.1362172" lon="10.3288608"><ele>691.2</ele><time>2026-04-10T13:41:55.413Z</time></trkpt><trkpt lat="46.1361674" lon="10.3287818"><ele>686.6</ele><time>2026-04-10T13:41:56.413Z</time></trkpt><trkpt lat="46.1361248" lon="10.3286993"><ele>682.0</ele><time>2026-04-10T13:41:57.413Z</time></trkpt><trkpt lat="46.1360672" lon="10.3286006"><ele>682.0</ele><time>2026-04-10T13:41:58.412Z</time></trkpt><trkpt lat="46.1359706" lon="10.3284562"><ele>682.0</ele><time>2026-04-10T13:42:00.413Z</time></trkpt><trkpt lat="46.1359172" lon="10.328391"><ele>682.0</ele><time>2026-04-10T13:42:01.413Z</time></trkpt><trkpt lat="46.1358341" lon="10.3283758"><ele>682.0</ele><time>2026-04-10T13:42:02.414Z</time></trkpt><trkpt lat="46.1357701" lon="10.3283254"><ele>682.0</ele><time>2026-04-10T13:42:03.413Z</time></trkpt><trkpt lat="46.1356998" lon="10.3282739"><ele>682.0</ele><time>2026-04-10T13:42:04.413Z</time></trkpt><trkpt lat="46.1355875" lon="10.3282497"><ele>677.3333333333334</ele><time>2026-04-10T13:42:06.413Z</time></trkpt><trkpt lat="46.1354721" lon="10.3282001"><ele>672.6666666666667</ele><time>2026-04-10T13:42:08.413Z</time></trkpt><trkpt lat="46.1353724" lon="10.3281386"><ele>668.0</ele><time>2026-04-10T13:42:10.413Z</time></trkpt><trkpt lat="46.1353271" lon="10.3280675"><ele>663.3333333333334</ele><time>2026-04-10T13:42:11.413Z</time></trkpt><trkpt lat="46.1352766" lon="10.3279875"><ele>658.6666666666666</ele><time>2026-04-10T13:42:12.413Z</time></trkpt><trkpt lat="46.1352217" lon="10.327915"><ele>654.0</ele><time>2026-04-10T13:42:13.412Z</time></trkpt><trkpt lat="46.1351711" lon="10.3278402"><ele>654.0</ele><time>2026-04-10T13:42:14.414Z</time></trkpt><trkpt lat="46.1351295" lon="10.3277637"><ele>654.0</ele><time>2026-04-10T13:42:15.413Z</time></trkpt><trkpt lat="46.1350803" lon="10.327698"><ele>654.0</ele><time>2026-04-10T13:42:16.413Z</time></trkpt><trkpt lat="46.1350243" lon="10.3275734"><ele>654.0</ele><time>2026-04-10T13:42:19.413Z</time></trkpt><trkpt lat="46.1349985" lon="10.3274811"><ele>654.0</ele><time>2026-04-10T13:42:22.413Z</time></trkpt><trkpt lat="46.1349822" lon="10.3273825"><ele>654.0</ele><time>2026-04-10T13:43:24.413Z</time></trkpt><trkpt lat="46.1349612" lon="10.327294"><ele>654.0</ele><time>2026-04-10T13:43:28.413Z</time></trkpt><trkpt lat="46.1349462" lon="10.3272055"><ele>656.3333333333334</ele><time>2026-04-10T13:43:32.413Z</time></trkpt><trkpt lat="46.1349502" lon="10.3270877"><ele>658.6666666666666</ele><time>2026-04-10T13:43:37.413Z</time></trkpt><trkpt lat="46.1349426" lon="10.3269791"><ele>661.0</ele><time>2026-04-10T13:43:41.414Z</time></trkpt><trkpt lat="46.1349468" lon="10.3268697"><ele>663.3333333333333</ele><time>2026-04-10T13:43:45.414Z</time></trkpt><trkpt lat="46.1349532" lon="10.326763"><ele>665.6666666666666</ele><time>2026-04-10T13:43:49.415Z</time></trkpt><trkpt lat="46.1349619" lon="10.3266533"><ele>668.0</ele><time>2026-04-10T13:43:53.414Z</time></trkpt><trkpt lat="46.1349656" lon="10.3265482"><ele>668.0</ele><time>2026-04-10T13:43:58.414Z</time></trkpt><trkpt lat="46.1349657" lon="10.3264422"><ele>668.0</ele><time>2026-04-10T13:44:02.414Z</time></trkpt><trkpt lat="46.1349745" lon="10.3263387"><ele>668.0</ele><time>2026-04-10T13:44:07.415Z</time></trkpt><trkpt lat="46.1349737" lon="10.3262284"><ele>668.0</ele><time>2026-04-10T13:44:11.415Z</time></trkpt><trkpt lat="46.1349931" lon="10.3261262"><ele>668.0</ele><time>2026-04-10T13:44:16.415Z</time></trkpt><trkpt lat="46.1349951" lon="10.3260306"><ele>668.0</ele><time>2026-04-10T13:44:21.414Z</time></trkpt><trkpt lat="46.1349988" lon="10.3259342"><ele>668.0</ele><time>2026-04-10T13:44:26.413Z</time></trkpt><trkpt lat="46.1349918" lon="10.3258302"><ele>668.7142857142857</ele><time>2026-04-10T13:44:31.413Z</time></trkpt><trkpt lat="46.1349869" lon="10.3257343"><ele>669.4285714285714</ele><time>2026-04-10T13:44:35.414Z</time></trkpt><trkpt lat="46.1349791" lon="10.3256221"><ele>670.1428571428571</ele><time>2026-04-10T13:44:39.414Z</time></trkpt><trkpt lat="46.1349655" lon="10.3255084"><ele>670.8571428571429</ele><time>2026-04-10T13:44:43.414Z</time></trkpt><trkpt lat="46.1349566" lon="10.3254164"><ele>671.5714285714286</ele><time>2026-04-10T13:44:46.414Z</time></trkpt><trkpt lat="46.1349396" lon="10.3253144"><ele>672.2857142857143</ele><time>2026-04-10T13:44:50.414Z</time></trkpt><trkpt lat="46.1349011" lon="10.3252255"><ele>673.0</ele><time>2026-04-10T13:44:53.414Z</time></trkpt><trkpt lat="46.1348445" lon="10.3251382"><ele>673.0</ele><time>2026-04-10T13:44:57.415Z</time></trkpt><trkpt lat="46.1347889" lon="10.3250755"><ele>673.0</ele><time>2026-04-10T13:45:01.415Z</time></trkpt><trkpt lat="46.1347386" lon="10.3250092"><ele>673.0</ele><time>2026-04-10T13:45:05.414Z</time></trkpt><trkpt lat="46.1346942" lon="10.3249411"><ele>673.0</ele><time>2026-04-10T13:45:09.415Z</time></trkpt><trkpt lat="46.1346498" lon="10.324874"><ele>673.0</ele><time>2026-04-10T13:45:14.413Z</time></trkpt><trkpt lat="46.1345827" lon="10.3248188"><ele>673.0</ele><time>2026-04-10T13:45:18.415Z</time></trkpt><trkpt lat="46.1345189" lon="10.3247479"><ele>673.0</ele><time>2026-04-10T13:45:22.414Z</time></trkpt><trkpt lat="46.1344703" lon="10.3246578"><ele>677.7142857142858</ele><time>2026-04-10T13:45:26.414Z</time></trkpt><trkpt lat="46.134431" lon="10.3245845"><ele>682.4285714285713</ele><time>2026-04-10T13:45:29.414Z</time></trkpt><trkpt lat="46.134378" lon="10.3245094"><ele>687.1428571428571</ele><time>2026-04-10T13:45:33.414Z</time></trkpt><trkpt lat="46.1343311" lon="10.3244308"><ele>691.8571428571429</ele><time>2026-04-10T13:45:37.415Z</time></trkpt><trkpt lat="46.1342865" lon="10.3243663"><ele>696.5714285714287</ele><time>2026-04-10T13:45:41.413Z</time></trkpt><trkpt lat="46.1342406" lon="10.3242908"><ele>701.2857142857142</ele><time>2026-04-10T13:45:45.415Z</time></trkpt><trkpt lat="46.1341933" lon="10.3242275"><ele>706.0</ele><time>2026-04-10T13:45:49.414Z</time></trkpt><trkpt lat="46.1341468" lon="10.3241622"><ele>706.0</ele><time>2026-04-10T13:45:53.414Z</time></trkpt><trkpt lat="46.1341006" lon="10.3240993"><ele>706.0</ele><time>2026-04-10T13:45:57.413Z</time></trkpt><trkpt lat="46.1340608" lon="10.3240247"><ele>706.0</ele><time>2026-04-10T13:46:01.414Z</time></trkpt><trkpt lat="46.1340105" lon="10.3239349"><ele>706.0</ele><time>2026-04-10T13:46:06.414Z</time></trkpt><trkpt lat="46.1339641" lon="10.3238536"><ele>706.0</ele><time>2026-04-10T13:46:10.413Z</time></trkpt><trkpt lat="46.1339251" lon="10.3237667"><ele>706.0</ele><time>2026-04-10T13:46:14.414Z</time></trkpt><trkpt lat="46.1338886" lon="10.323674"><ele>706.0</ele><time>2026-04-10T13:46:19.414Z</time></trkpt><trkpt lat="46.1338403" lon="10.3235858"><ele>706.5714285714286</ele><time>2026-04-10T13:46:24.414Z</time></trkpt><trkpt lat="46.1337945" lon="10.3234959"><ele>707.1428571428572</ele><time>2026-04-10T13:46:29.414Z</time></trkpt><trkpt lat="46.1337614" lon="10.3234178"><ele>707.7142857142858</ele><time>2026-04-10T13:46:33.413Z</time></trkpt><trkpt lat="46.1337162" lon="10.3233364"><ele>708.2857142857142</ele><time>2026-04-10T13:46:37.413Z</time></trkpt><trkpt lat="46.1336612" lon="10.3232592"><ele>708.8571428571429</ele><time>2026-04-10T13:46:42.414Z</time></trkpt><trkpt lat="46.1336067" lon="10.3231868"><ele>709.4285714285714</ele><time>2026-04-10T13:46:46.414Z</time></trkpt><trkpt lat="46.1335443" lon="10.323107"><ele>710.0</ele><time>2026-04-10T13:46:50.413Z</time></trkpt><trkpt lat="46.1334928" lon="10.3230324"><ele>709.0</ele><time>2026-04-10T13:46:53.413Z</time></trkpt><trkpt lat="46.133433" lon="10.322961"><ele>708.0</ele><time>2026-04-10T13:46:56.414Z</time></trkpt><trkpt lat="46.133364" lon="10.3228868"><ele>707.0</ele><time>2026-04-10T13:46:59.413Z</time></trkpt><trkpt lat="46.1333032" lon="10.3228046"><ele>706.0</ele><time>2026-04-10T13:47:02.414Z</time></trkpt><trkpt lat="46.133249" lon="10.3227314"><ele>705.0</ele><time>2026-04-10T13:47:05.413Z</time></trkpt><trkpt lat="46.133196" lon="10.3226551"><ele>704.0</ele><time>2026-04-10T13:47:08.414Z</time></trkpt><trkpt lat="46.1331424" lon="10.3225827"><ele>704.0</ele><time>2026-04-10T13:47:11.414Z</time></trkpt><trkpt lat="46.133089" lon="10.3225162"><ele>704.0</ele><time>2026-04-10T13:47:14.413Z</time></trkpt><trkpt lat="46.1330344" lon="10.3224377"><ele>704.0</ele><time>2026-04-10T13:47:17.414Z</time></trkpt><trkpt lat="46.1329839" lon="10.3223785"><ele>704.0</ele><time>2026-04-10T13:47:20.414Z</time></trkpt><trkpt lat="46.1329295" lon="10.3223287"><ele>704.0</ele><time>2026-04-10T13:47:23.414Z</time></trkpt><trkpt lat="46.1328648" lon="10.3222617"><ele>704.0</ele><time>2026-04-10T13:47:26.414Z</time></trkpt><trkpt lat="46.1328062" lon="10.3221696"><ele>704.0</ele><time>2026-04-10T13:47:29.415Z</time></trkpt><trkpt lat="46.132769" lon="10.3220512"><ele>706.6666666666666</ele><time>2026-04-10T13:47:32.415Z</time></trkpt><trkpt lat="46.132735" lon="10.3219539"><ele>709.3333333333333</ele><time>2026-04-10T13:47:35.414Z</time></trkpt><trkpt lat="46.1326929" lon="10.3218731"><ele>712.0</ele><time>2026-04-10T13:47:38.413Z</time></trkpt><trkpt lat="46.1326269" lon="10.3217798"><ele>714.6666666666666</ele><time>2026-04-10T13:47:41.414Z</time></trkpt><trkpt lat="46.1325664" lon="10.3216885"><ele>717.3333333333334</ele><time>2026-04-10T13:47:44.414Z</time></trkpt><trkpt lat="46.132515" lon="10.3215949"><ele>720.0</ele><time>2026-04-10T13:47:47.413Z</time></trkpt><trkpt lat="46.1324724" lon="10.3215197"><ele>720.0</ele><time>2026-04-10T13:49:44.414Z</time></trkpt><trkpt lat="46.1324164" lon="10.3214284"><ele>720.0</ele><time>2026-04-10T13:49:48.414Z</time></trkpt><trkpt lat="46.1323649" lon="10.3213319"><ele>720.0</ele><time>2026-04-10T13:49:51.415Z</time></trkpt><trkpt lat="46.1323245" lon="10.321236"><ele>720.0</ele><time>2026-04-10T13:49:54.413Z</time></trkpt><trkpt lat="46.1323114" lon="10.3211452"><ele>720.0</ele><time>2026-04-10T13:49:56.413Z</time></trkpt><trkpt lat="46.1322883" lon="10.3210352"><ele>720.0</ele><time>2026-04-10T13:49:59.414Z</time></trkpt><trkpt lat="46.1322611" lon="10.3209428"><ele>717.7142857142857</ele><time>2026-04-10T13:50:03.413Z</time></trkpt><trkpt lat="46.1322341" lon="10.3208536"><ele>715.4285714285714</ele><time>2026-04-10T13:50:06.414Z</time></trkpt><trkpt lat="46.1321867" lon="10.3207885"><ele>713.1428571428571</ele><time>2026-04-10T13:50:08.414Z</time></trkpt><trkpt lat="46.1321268" lon="10.3207417"><ele>710.8571428571429</ele><time>2026-04-10T13:50:10.414Z</time></trkpt><trkpt lat="46.1320607" lon="10.3207103"><ele>708.5714285714286</ele><time>2026-04-10T13:50:13.413Z</time></trkpt><trkpt lat="46.1319864" lon="10.3206651"><ele>706.2857142857143</ele><time>2026-04-10T13:51:24.415Z</time></trkpt><trkpt lat="46.1319197" lon="10.3206268"><ele>704.0</ele><time>2026-04-10T13:51:26.414Z</time></trkpt><trkpt lat="46.1318108" lon="10.3205853"><ele>702.3333333333333</ele><time>2026-04-10T13:51:28.413Z</time></trkpt><trkpt lat="46.1317002" lon="10.3205581"><ele>700.6666666666666</ele><time>2026-04-10T13:51:30.414Z</time></trkpt><trkpt lat="46.1316254" lon="10.3205615"><ele>699.0</ele><time>2026-04-10T13:51:31.414Z</time></trkpt><trkpt lat="46.1315468" lon="10.3205505"><ele>697.3333333333334</ele><time>2026-04-10T13:51:32.414Z</time></trkpt><trkpt lat="46.1314654" lon="10.3205119"><ele>695.6666666666667</ele><time>2026-04-10T13:51:33.413Z</time></trkpt><trkpt lat="46.1313844" lon="10.32045"><ele>694.0</ele><time>2026-04-10T13:51:34.414Z</time></trkpt><trkpt lat="46.1313001" lon="10.3203756"><ele>694.0</ele><time>2026-04-10T13:51:35.414Z</time></trkpt><trkpt lat="46.131209" lon="10.3203099"><ele>694.0</ele><time>2026-04-10T13:51:36.415Z</time></trkpt><trkpt lat="46.1311302" lon="10.3202496"><ele>694.0</ele><time>2026-04-10T13:51:37.415Z</time></trkpt><trkpt lat="46.1310668" lon="10.3202155"><ele>694.0</ele><time>2026-04-10T13:51:38.414Z</time></trkpt><trkpt lat="46.1310054" lon="10.3201718"><ele>694.0</ele><time>2026-04-10T13:51:39.413Z</time></trkpt><trkpt lat="46.1309512" lon="10.3201195"><ele>694.0</ele><time>2026-04-10T13:51:40.413Z</time></trkpt><trkpt lat="46.1308891" lon="10.3200317"><ele>694.0</ele><time>2026-04-10T13:51:41.415Z</time></trkpt><trkpt lat="46.1308478" lon="10.3199312"><ele>694.0</ele><time>2026-04-10T13:51:42.414Z</time></trkpt><trkpt lat="46.1308195" lon="10.3197947"><ele>694.0</ele><time>2026-04-10T13:51:44.415Z</time></trkpt><trkpt lat="46.1307769" lon="10.3196961"><ele>694.0</ele><time>2026-04-10T13:51:47.414Z</time></trkpt><trkpt lat="46.1307466" lon="10.3196094"><ele>694.0</ele><time>2026-04-10T13:51:50.415Z</time></trkpt><trkpt lat="46.1306842" lon="10.3195478"><ele>694.0</ele><time>2026-04-10T13:51:54.415Z</time></trkpt><trkpt lat="46.1306157" lon="10.3194522"><ele>693.8571428571429</ele><time>2026-04-10T13:51:57.414Z</time></trkpt><trkpt lat="46.130567" lon="10.3193799"><ele>693.7142857142857</ele><time>2026-04-10T13:51:59.413Z</time></trkpt><trkpt lat="46.1305131" lon="10.3193199"><ele>693.5714285714286</ele><time>2026-04-10T13:52:01.413Z</time></trkpt><trkpt lat="46.130455" lon="10.3192513"><ele>693.4285714285714</ele><time>2026-04-10T13:52:03.414Z</time></trkpt><trkpt lat="46.1304068" lon="10.3191813"><ele>693.2857142857142</ele><time>2026-04-10T13:52:05.414Z</time></trkpt><trkpt lat="46.1303515" lon="10.3191001"><ele>693.1428571428571</ele><time>2026-04-10T13:52:08.415Z</time></trkpt><trkpt lat="46.1303017" lon="10.3190244"><ele>693.0</ele><time>2026-04-10T13:52:11.413Z</time></trkpt><trkpt lat="46.1302458" lon="10.3189645"><ele>693.0</ele><time>2026-04-10T13:52:14.414Z</time></trkpt><trkpt lat="46.1301724" lon="10.3189046"><ele>693.0</ele><time>2026-04-10T13:52:17.414Z</time></trkpt><trkpt lat="46.1301158" lon="10.3188273"><ele>693.0</ele><time>2026-04-10T13:52:20.415Z</time></trkpt><trkpt lat="46.1300681" lon="10.3187343"><ele>693.0</ele><time>2026-04-10T13:52:24.415Z</time></trkpt><trkpt lat="46.1300369" lon="10.3186552"><ele>693.0</ele><time>2026-04-10T13:52:27.413Z</time></trkpt><trkpt lat="46.1300085" lon="10.318572"><ele>693.0</ele><time>2026-04-10T13:52:30.414Z</time></trkpt><trkpt lat="46.1299705" lon="10.3184744"><ele>693.0</ele><time>2026-04-10T13:52:34.415Z</time></trkpt><trkpt lat="46.1299291" lon="10.3183877"><ele>694.0</ele><time>2026-04-10T13:52:38.414Z</time></trkpt><trkpt lat="46.1298961" lon="10.318304"><ele>695.0</ele><time>2026-04-10T13:52:42.415Z</time></trkpt><trkpt lat="46.1298534" lon="10.3182359"><ele>696.0</ele><time>2026-04-10T13:52:46.415Z</time></trkpt><trkpt lat="46.1298037" lon="10.3181767"><ele>697.0</ele><time>2026-04-10T13:52:50.414Z</time></trkpt><trkpt lat="46.1297451" lon="10.3181118"><ele>698.0</ele><time>2026-04-10T13:52:54.414Z</time></trkpt><trkpt lat="46.1296896" lon="10.3180425"><ele>699.0</ele><time>2026-04-10T13:52:59.413Z</time></trkpt><trkpt lat="46.1296514" lon="10.3179675"><ele>700.0</ele><time>2026-04-10T13:53:03.414Z</time></trkpt><trkpt lat="46.1296136" lon="10.3178736"><ele>703.2857142857143</ele><time>2026-04-10T13:53:08.414Z</time></trkpt><trkpt lat="46.1295808" lon="10.3177927"><ele>706.5714285714286</ele><time>2026-04-10T13:53:13.413Z</time></trkpt><trkpt lat="46.1295768" lon="10.3176965"><ele>709.8571428571429</ele><time>2026-04-10T13:53:18.415Z</time></trkpt><trkpt lat="46.1296441" lon="10.3176865"><ele>713.1428571428571</ele><time>2026-04-10T13:53:23.414Z</time></trkpt><trkpt lat="46.1297086" lon="10.317729"><ele>716.4285714285714</ele><time>2026-04-10T13:53:28.413Z</time></trkpt><trkpt lat="46.1297734" lon="10.3177621"><ele>719.7142857142858</ele><time>2026-04-10T13:53:32.414Z</time></trkpt><trkpt lat="46.1298338" lon="10.3178053"><ele>723.0</ele><time>2026-04-10T13:53:36.414Z</time></trkpt><trkpt lat="46.1298958" lon="10.3178362"><ele>727.7142857142858</ele><time>2026-04-10T13:53:40.415Z</time></trkpt><trkpt lat="46.1299663" lon="10.3178504"><ele>732.4285714285714</ele><time>2026-04-10T13:53:45.414Z</time></trkpt><trkpt lat="46.1300288" lon="10.3178717"><ele>737.1428571428571</ele><time>2026-04-10T13:53:49.414Z</time></trkpt><trkpt lat="46.1300976" lon="10.317901"><ele>741.8571428571429</ele><time>2026-04-10T13:53:54.414Z</time></trkpt><trkpt lat="46.1300899" lon="10.3178097"><ele>746.5714285714286</ele><time>2026-04-10T13:54:01.415Z</time></trkpt><trkpt lat="46.1300281" lon="10.3177464"><ele>751.2857142857143</ele><time>2026-04-10T13:54:06.415Z</time></trkpt><trkpt lat="46.1299827" lon="10.3176711"><ele>756.0</ele><time>2026-04-10T13:54:11.414Z</time></trkpt><trkpt lat="46.1299569" lon="10.3175851"><ele>756.0</ele><time>2026-04-10T13:54:15.415Z</time></trkpt><trkpt lat="46.129931" lon="10.317499"><ele>756.0</ele><time>2026-04-10T13:54:20.414Z</time></trkpt><trkpt lat="46.129899" lon="10.3174084"><ele>756.0</ele><time>2026-04-10T13:54:25.413Z</time></trkpt><trkpt lat="46.1298581" lon="10.3173305"><ele>756.0</ele><time>2026-04-10T13:54:30.415Z</time></trkpt><trkpt lat="46.129816" lon="10.317257"><ele>756.0</ele><time>2026-04-10T13:54:35.414Z</time></trkpt><trkpt lat="46.1297774" lon="10.317175"><ele>756.0</ele><time>2026-04-10T13:54:40.414Z</time></trkpt><trkpt lat="46.1297411" lon="10.317082"><ele>756.0</ele><time>2026-04-10T13:54:45.414Z</time></trkpt><trkpt lat="46.1297026" lon="10.3169996"><ele>755.1428571428571</ele><time>2026-04-10T13:54:50.414Z</time></trkpt><trkpt lat="46.1296564" lon="10.3169147"><ele>754.2857142857142</ele><time>2026-04-10T13:54:55.415Z</time></trkpt><trkpt lat="46.1296138" lon="10.3168352"><ele>753.4285714285714</ele><time>2026-04-10T13:55:00.415Z</time></trkpt><trkpt lat="46.1295695" lon="10.3167521"><ele>752.5714285714286</ele><time>2026-04-10T13:55:05.414Z</time></trkpt><trkpt lat="46.1295243" lon="10.3166648"><ele>751.7142857142857</ele><time>2026-04-10T13:55:10.413Z</time></trkpt><trkpt lat="46.1294847" lon="10.3165659"><ele>750.8571428571429</ele><time>2026-04-10T13:55:16.415Z</time></trkpt><trkpt lat="46.1294477" lon="10.316489"><ele>750.0</ele><time>2026-04-10T13:55:20.413Z</time></trkpt><trkpt lat="46.1294079" lon="10.3163958"><ele>753.1428571428572</ele><time>2026-04-10T13:55:24.415Z</time></trkpt><trkpt lat="46.1293688" lon="10.3162992"><ele>756.2857142857142</ele><time>2026-04-10T13:55:28.415Z</time></trkpt><trkpt lat="46.129333" lon="10.3161944"><ele>759.4285714285714</ele><time>2026-04-10T13:55:32.414Z</time></trkpt><trkpt lat="46.1293011" lon="10.3161015"><ele>762.5714285714287</ele><time>2026-04-10T13:55:36.413Z</time></trkpt><trkpt lat="46.1292575" lon="10.316026"><ele>765.7142857142858</ele><time>2026-04-10T13:55:40.414Z</time></trkpt><trkpt lat="46.1291999" lon="10.3159448"><ele>768.8571428571429</ele><time>2026-04-10T13:55:45.415Z</time></trkpt><trkpt lat="46.1291516" lon="10.3158716"><ele>772.0</ele><time>2026-04-10T13:55:49.415Z</time></trkpt><trkpt lat="46.1291031" lon="10.3157794"><ele>772.0000000000001</ele><time>2026-04-10T13:55:53.416Z</time></trkpt><trkpt lat="46.1290642" lon="10.3156891"><ele>772.0</ele><time>2026-04-10T13:55:57.414Z</time></trkpt><trkpt lat="46.1290311" lon="10.3156074"><ele>772.0</ele><time>2026-04-10T13:56:01.414Z</time></trkpt><trkpt lat="46.1290182" lon="10.3155153"><ele>772.0</ele><time>2026-04-10T13:56:06.415Z</time></trkpt><trkpt lat="46.1290273" lon="10.3154221"><ele>772.0</ele><time>2026-04-10T13:56:12.414Z</time></trkpt><trkpt lat="46.129091" lon="10.3154431"><ele>772.0000000000001</ele><time>2026-04-10T13:56:18.415Z</time></trkpt><trkpt lat="46.1291128" lon="10.3155294"><ele>772.0</ele><time>2026-04-10T13:57:54.416Z</time></trkpt><trkpt lat="46.1291604" lon="10.3156044"><ele>772.0000000000001</ele><time>2026-04-10T13:57:58.415Z</time></trkpt><trkpt lat="46.1292215" lon="10.3156774"><ele>772.0</ele><time>2026-04-10T13:58:03.415Z</time></trkpt><trkpt lat="46.1292727" lon="10.3157379"><ele>772.0</ele><time>2026-04-10T13:58:07.415Z</time></trkpt><trkpt lat="46.1293246" lon="10.3157947"><ele>772.0</ele><time>2026-04-10T13:58:11.416Z</time></trkpt><trkpt lat="46.1293966" lon="10.3158313"><ele>772.0</ele><time>2026-04-10T13:58:15.416Z</time></trkpt><trkpt lat="46.1294595" lon="10.3158854"><ele>772.0000000000001</ele><time>2026-04-10T13:58:19.414Z</time></trkpt><trkpt lat="46.1295198" lon="10.3159534"><ele>772.0</ele><time>2026-04-10T13:58:23.416Z</time></trkpt><trkpt lat="46.1295815" lon="10.3160194"><ele>772.0000000000001</ele><time>2026-04-10T13:58:27.415Z</time></trkpt><trkpt lat="46.1296464" lon="10.3160857"><ele>772.0</ele><time>2026-04-10T13:58:31.415Z</time></trkpt><trkpt lat="46.1297057" lon="10.3161593"><ele>772.0</ele><time>2026-04-10T13:58:35.416Z</time></trkpt><trkpt lat="46.1297642" lon="10.3162471"><ele>772.0</ele><time>2026-04-10T13:58:39.415Z</time></trkpt><trkpt lat="46.1298126" lon="10.3163087"><ele>772.0</ele><time>2026-04-10T13:58:42.414Z</time></trkpt><trkpt lat="46.1298672" lon="10.3163638"><ele>772.0000000000001</ele><time>2026-04-10T13:58:45.414Z</time></trkpt><trkpt lat="46.129919" lon="10.3164231"><ele>772.0</ele><time>2026-04-10T13:58:48.415Z</time></trkpt><trkpt lat="46.1299729" lon="10.3164736"><ele>773.8571428571429</ele><time>2026-04-10T13:58:51.415Z</time></trkpt><trkpt lat="46.1300276" lon="10.3165191"><ele>775.7142857142858</ele><time>2026-04-10T13:58:54.416Z</time></trkpt><trkpt lat="46.1300885" lon="10.3165935"><ele>777.5714285714287</ele><time>2026-04-10T13:58:58.415Z</time></trkpt><trkpt lat="46.1301551" lon="10.3166628"><ele>779.4285714285714</ele><time>2026-04-10T13:59:02.414Z</time></trkpt><trkpt lat="46.1302274" lon="10.3167061"><ele>781.2857142857142</ele><time>2026-04-10T13:59:06.416Z</time></trkpt><trkpt lat="46.1302849" lon="10.3167525"><ele>783.1428571428572</ele><time>2026-04-10T13:59:09.415Z</time></trkpt><trkpt lat="46.1303434" lon="10.3168114"><ele>785.0</ele><time>2026-04-10T13:59:12.415Z</time></trkpt><trkpt lat="46.1303941" lon="10.3168701"><ele>785.0</ele><time>2026-04-10T13:59:15.415Z</time></trkpt><trkpt lat="46.1304446" lon="10.3169274"><ele>785.0</ele><time>2026-04-10T13:59:18.414Z</time></trkpt><trkpt lat="46.1305012" lon="10.3169704"><ele>785.0</ele><time>2026-04-10T13:59:21.416Z</time></trkpt><trkpt lat="46.1305802" lon="10.3170074"><ele>785.0</ele><time>2026-04-10T13:59:25.415Z</time></trkpt><trkpt lat="46.1306561" lon="10.3170366"><ele>785.0</ele><time>2026-04-10T13:59:29.416Z</time></trkpt><trkpt lat="46.1307175" lon="10.3170742"><ele>785.0</ele><time>2026-04-10T13:59:32.415Z</time></trkpt><trkpt lat="46.1307734" lon="10.3171211"><ele>785.0</ele><time>2026-04-10T13:59:35.414Z</time></trkpt><trkpt lat="46.1308475" lon="10.3171716"><ele>786.4285714285714</ele><time>2026-04-10T13:59:39.416Z</time></trkpt><trkpt lat="46.1309069" lon="10.3172217"><ele>787.8571428571428</ele><time>2026-04-10T13:59:42.416Z</time></trkpt><trkpt lat="46.1309657" lon="10.3172567"><ele>789.2857142857142</ele><time>2026-04-10T13:59:45.416Z</time></trkpt><trkpt lat="46.1310402" lon="10.3173078"><ele>790.7142857142858</ele><time>2026-04-10T13:59:49.414Z</time></trkpt><trkpt lat="46.1311174" lon="10.3173531"><ele>792.1428571428571</ele><time>2026-04-10T13:59:53.414Z</time></trkpt><trkpt lat="46.1311821" lon="10.3173773"><ele>793.5714285714286</ele><time>2026-04-10T13:59:56.416Z</time></trkpt><trkpt lat="46.1312401" lon="10.3174127"><ele>795.0</ele><time>2026-04-10T13:59:59.414Z</time></trkpt><trkpt lat="46.1313021" lon="10.3174437"><ele>795.0</ele><time>2026-04-10T14:00:02.415Z</time></trkpt><trkpt lat="46.1313654" lon="10.3174663"><ele>795.0</ele><time>2026-04-10T14:00:05.415Z</time></trkpt><trkpt lat="46.1314295" lon="10.3174898"><ele>795.0</ele><time>2026-04-10T14:00:08.414Z</time></trkpt><trkpt lat="46.1314941" lon="10.3175115"><ele>795.0</ele><time>2026-04-10T14:00:11.415Z</time></trkpt><trkpt lat="46.131555" lon="10.317539"><ele>795.0</ele><time>2026-04-10T14:00:14.416Z</time></trkpt><trkpt lat="46.1316141" lon="10.317582"><ele>795.0</ele><time>2026-04-10T14:00:17.415Z</time></trkpt><trkpt lat="46.1316778" lon="10.3176189"><ele>795.0</ele><time>2026-04-10T14:00:20.414Z</time></trkpt><trkpt lat="46.1317381" lon="10.317658"><ele>799.0</ele><time>2026-04-10T14:00:23.416Z</time></trkpt><trkpt lat="46.1318137" lon="10.3177112"><ele>803.0</ele><time>2026-04-10T14:00:27.415Z</time></trkpt><trkpt lat="46.1318701" lon="10.317758"><ele>807.0</ele><time>2026-04-10T14:00:30.415Z</time></trkpt><trkpt lat="46.1319293" lon="10.3177999"><ele>811.0</ele><time>2026-04-10T14:00:33.415Z</time></trkpt><trkpt lat="46.1319879" lon="10.3178344"><ele>815.0</ele><time>2026-04-10T14:00:36.414Z</time></trkpt><trkpt lat="46.1320455" lon="10.3178732"><ele>819.0</ele><time>2026-04-10T14:00:39.415Z</time></trkpt><trkpt lat="46.1321068" lon="10.3179013"><ele>823.0</ele><time>2026-04-10T14:00:42.414Z</time></trkpt><trkpt lat="46.1321813" lon="10.3179507"><ele>822.9999999999999</ele><time>2026-04-10T14:00:46.415Z</time></trkpt><trkpt lat="46.1322395" lon="10.31799"><ele>823.0</ele><time>2026-04-10T14:00:49.414Z</time></trkpt><trkpt lat="46.1323162" lon="10.318037"><ele>823.0</ele><time>2026-04-10T14:00:53.415Z</time></trkpt><trkpt lat="46.1323874" lon="10.3180908"><ele>823.0</ele><time>2026-04-10T14:00:57.415Z</time></trkpt><trkpt lat="46.1324869" lon="10.3181623"><ele>822.9999999999999</ele><time>2026-04-10T14:01:02.415Z</time></trkpt><trkpt lat="46.1325461" lon="10.3181932"><ele>823.0</ele><time>2026-04-10T14:01:05.415Z</time></trkpt><trkpt lat="46.132609" lon="10.318243"><ele>823.1666666666666</ele><time>2026-04-10T14:01:09.416Z</time></trkpt><trkpt lat="46.1326773" lon="10.318284"><ele>823.3333333333333</ele><time>2026-04-10T14:01:12.416Z</time></trkpt><trkpt lat="46.132776" lon="10.3183571"><ele>823.5</ele><time>2026-04-10T14:01:17.416Z</time></trkpt><trkpt lat="46.1328328" lon="10.318397"><ele>823.6666666666667</ele><time>2026-04-10T14:01:20.416Z</time></trkpt><trkpt lat="46.1328971" lon="10.3184343"><ele>823.8333333333334</ele><time>2026-04-10T14:01:23.415Z</time></trkpt><trkpt lat="46.1329799" lon="10.3184691"><ele>824.0</ele><time>2026-04-10T14:01:27.415Z</time></trkpt><trkpt lat="46.1330589" lon="10.3185225"><ele>823.9999999999999</ele><time>2026-04-10T14:01:32.414Z</time></trkpt><trkpt lat="46.1331252" lon="10.3185752"><ele>824.0</ele><time>2026-04-10T14:01:35.415Z</time></trkpt><trkpt lat="46.1331843" lon="10.3186398"><ele>824.0</ele><time>2026-04-10T14:01:38.415Z</time></trkpt><trkpt lat="46.1332351" lon="10.3186964"><ele>824.0</ele><time>2026-04-10T14:01:41.415Z</time></trkpt><trkpt lat="46.1332893" lon="10.3187549"><ele>824.0</ele><time>2026-04-10T14:01:44.416Z</time></trkpt><trkpt lat="46.1333487" lon="10.3188101"><ele>823.9999999999999</ele><time>2026-04-10T14:01:47.415Z</time></trkpt><trkpt lat="46.1334136" lon="10.318864"><ele>824.0</ele><time>2026-04-10T14:01:50.416Z</time></trkpt><trkpt lat="46.1334783" lon="10.3189191"><ele>824.0000000000001</ele><time>2026-04-10T14:01:53.416Z</time></trkpt><trkpt lat="46.1335466" lon="10.3189761"><ele>824.0</ele><time>2026-04-10T14:01:56.416Z</time></trkpt><trkpt lat="46.1336095" lon="10.3190407"><ele>824.0</ele><time>2026-04-10T14:01:59.415Z</time></trkpt><trkpt lat="46.1336583" lon="10.3191387"><ele>824.0</ele><time>2026-04-10T14:02:02.415Z</time></trkpt><trkpt lat="46.133714" lon="10.3192302"><ele>824.0000000000001</ele><time>2026-04-10T14:02:05.415Z</time></trkpt><trkpt lat="46.1337635" lon="10.3193202"><ele>824.0</ele><time>2026-04-10T14:02:08.416Z</time></trkpt><trkpt lat="46.1338145" lon="10.3194116"><ele>824.0000000000001</ele><time>2026-04-10T14:02:11.415Z</time></trkpt><trkpt lat="46.1338651" lon="10.3194918"><ele>824.0</ele><time>2026-04-10T14:02:14.415Z</time></trkpt><trkpt lat="46.1339152" lon="10.3195739"><ele>824.0</ele><time>2026-04-10T14:02:17.415Z</time></trkpt><trkpt lat="46.1339649" lon="10.3196635"><ele>824.0</ele><time>2026-04-10T14:02:20.415Z</time></trkpt><trkpt lat="46.1340085" lon="10.31976"><ele>824.0000000000001</ele><time>2026-04-10T14:02:23.415Z</time></trkpt><trkpt lat="46.1340443" lon="10.3198553"><ele>824.0</ele><time>2026-04-10T14:02:26.416Z</time></trkpt><trkpt lat="46.1340809" lon="10.319944"><ele>823.9999999999999</ele><time>2026-04-10T14:02:29.415Z</time></trkpt><trkpt lat="46.1341484" lon="10.3199669"><ele>824.0</ele><time>2026-04-10T14:02:32.415Z</time></trkpt><trkpt lat="46.1341795" lon="10.3198703"><ele>824.0</ele><time>2026-04-10T14:02:35.414Z</time></trkpt><trkpt lat="46.1341378" lon="10.3197716"><ele>824.0</ele><time>2026-04-10T14:02:38.415Z</time></trkpt><trkpt lat="46.1340885" lon="10.3196801"><ele>824.0</ele><time>2026-04-10T14:02:41.416Z</time></trkpt><trkpt lat="46.134049" lon="10.3195879"><ele>823.9999999999999</ele><time>2026-04-10T14:02:44.415Z</time></trkpt><trkpt lat="46.1340154" lon="10.3195004"><ele>824.0</ele><time>2026-04-10T14:02:47.415Z</time></trkpt><trkpt lat="46.133977" lon="10.3194096"><ele>823.9999999999999</ele><time>2026-04-10T14:02:51.415Z</time></trkpt><trkpt lat="46.1339476" lon="10.3193109"><ele>824.0</ele><time>2026-04-10T14:02:55.416Z</time></trkpt><trkpt lat="46.1339128" lon="10.319225"><ele>824.0</ele><time>2026-04-10T14:02:58.415Z</time></trkpt><trkpt lat="46.1338752" lon="10.3191521"><ele>824.0</ele><time>2026-04-10T14:03:01.414Z</time></trkpt><trkpt lat="46.1338268" lon="10.3190627"><ele>824.0</ele><time>2026-04-10T14:03:04.416Z</time></trkpt><trkpt lat="46.1337863" lon="10.3189729"><ele>823.9999999999999</ele><time>2026-04-10T14:03:07.414Z</time></trkpt><trkpt lat="46.1337417" lon="10.3188909"><ele>824.0</ele><time>2026-04-10T14:03:10.415Z</time></trkpt><trkpt lat="46.1336938" lon="10.318809"><ele>828.4285714285713</ele><time>2026-04-10T14:03:13.415Z</time></trkpt><trkpt lat="46.1336457" lon="10.3187337"><ele>832.8571428571429</ele><time>2026-04-10T14:03:16.415Z</time></trkpt><trkpt lat="46.1336003" lon="10.3186592"><ele>837.2857142857142</ele><time>2026-04-10T14:03:19.415Z</time></trkpt><trkpt lat="46.1335514" lon="10.3185861"><ele>841.7142857142857</ele><time>2026-04-10T14:03:22.414Z</time></trkpt><trkpt lat="46.1335009" lon="10.3185119"><ele>846.1428571428571</ele><time>2026-04-10T14:03:25.416Z</time></trkpt><trkpt lat="46.1334653" lon="10.3184285"><ele>850.5714285714286</ele><time>2026-04-10T14:03:28.415Z</time></trkpt><trkpt lat="46.1334345" lon="10.3183492"><ele>855.0</ele><time>2026-04-10T14:03:31.416Z</time></trkpt><trkpt lat="46.1333946" lon="10.3182619"><ele>855.0</ele><time>2026-04-10T14:03:34.414Z</time></trkpt><trkpt lat="46.1333518" lon="10.318179"><ele>855.0</ele><time>2026-04-10T14:03:37.414Z</time></trkpt><trkpt lat="46.1333044" lon="10.3181036"><ele>855.0</ele><time>2026-04-10T14:03:40.416Z</time></trkpt><trkpt lat="46.1332506" lon="10.3180285"><ele>855.0</ele><time>2026-04-10T14:03:43.415Z</time></trkpt><trkpt lat="46.1332008" lon="10.3179509"><ele>855.0</ele><time>2026-04-10T14:03:46.414Z</time></trkpt><trkpt lat="46.1331512" lon="10.3178801"><ele>855.0</ele><time>2026-04-10T14:03:49.415Z</time></trkpt><trkpt lat="46.1331032" lon="10.3178086"><ele>855.0</ele><time>2026-04-10T14:03:52.415Z</time></trkpt><trkpt lat="46.1330556" lon="10.3177377"><ele>855.1428571428572</ele><time>2026-04-10T14:03:55.416Z</time></trkpt><trkpt lat="46.1330033" lon="10.3176737"><ele>855.2857142857142</ele><time>2026-04-10T14:03:58.416Z</time></trkpt><trkpt lat="46.1329539" lon="10.3176043"><ele>855.4285714285714</ele><time>2026-04-10T14:04:01.414Z</time></trkpt><trkpt lat="46.1328996" lon="10.3175354"><ele>855.5714285714287</ele><time>2026-04-10T14:04:04.415Z</time></trkpt><trkpt lat="46.1328415" lon="10.3174745"><ele>855.7142857142858</ele><time>2026-04-10T14:04:07.415Z</time></trkpt><trkpt lat="46.1327865" lon="10.3174136"><ele>855.8571428571429</ele><time>2026-04-10T14:04:10.415Z</time></trkpt><trkpt lat="46.1327304" lon="10.3173582"><ele>856.0</ele><time>2026-04-10T14:04:13.416Z</time></trkpt><trkpt lat="46.1326692" lon="10.3172972"><ele>855.9999999999999</ele><time>2026-04-10T14:04:16.415Z</time></trkpt><trkpt lat="46.1326036" lon="10.3172383"><ele>856.0</ele><time>2026-04-10T14:04:19.415Z</time></trkpt><trkpt lat="46.1325364" lon="10.3171733"><ele>856.0</ele><time>2026-04-10T14:04:22.416Z</time></trkpt><trkpt lat="46.1324693" lon="10.3171231"><ele>856.0</ele><time>2026-04-10T14:04:25.414Z</time></trkpt><trkpt lat="46.1324046" lon="10.317058"><ele>855.9999999999999</ele><time>2026-04-10T14:04:28.416Z</time></trkpt><trkpt lat="46.1323438" lon="10.3169977"><ele>856.0</ele><time>2026-04-10T14:04:31.415Z</time></trkpt><trkpt lat="46.1322791" lon="10.3169338"><ele>855.5714285714287</ele><time>2026-04-10T14:04:34.415Z</time></trkpt><trkpt lat="46.1322141" lon="10.3168728"><ele>855.1428571428571</ele><time>2026-04-10T14:04:37.416Z</time></trkpt><trkpt lat="46.132153" lon="10.3167991"><ele>854.7142857142858</ele><time>2026-04-10T14:04:40.416Z</time></trkpt><trkpt lat="46.13209" lon="10.316734"><ele>854.2857142857143</ele><time>2026-04-10T14:04:43.414Z</time></trkpt><trkpt lat="46.1320305" lon="10.3166675"><ele>853.8571428571429</ele><time>2026-04-10T14:04:46.415Z</time></trkpt><trkpt lat="46.1319793" lon="10.3165983"><ele>853.4285714285714</ele><time>2026-04-10T14:04:49.415Z</time></trkpt><trkpt lat="46.1319459" lon="10.3165109"><ele>853.0</ele><time>2026-04-10T14:04:52.415Z</time></trkpt><trkpt lat="46.1320048" lon="10.3164667"><ele>852.9999999999999</ele><time>2026-04-10T14:04:55.416Z</time></trkpt><trkpt lat="46.1320798" lon="10.3165322"><ele>853.0</ele><time>2026-04-10T14:04:58.415Z</time></trkpt><trkpt lat="46.1321411" lon="10.3166164"><ele>853.0</ele><time>2026-04-10T14:05:01.416Z</time></trkpt><trkpt lat="46.1322048" lon="10.316683"><ele>853.0</ele><time>2026-04-10T14:05:04.415Z</time></trkpt><trkpt lat="46.1322667" lon="10.3167439"><ele>852.9999999999999</ele><time>2026-04-10T14:05:07.416Z</time></trkpt><trkpt lat="46.1323349" lon="10.3167965"><ele>853.0</ele><time>2026-04-10T14:05:10.415Z</time></trkpt><trkpt lat="46.1323976" lon="10.3168399"><ele>859.5714285714286</ele><time>2026-04-10T14:05:13.415Z</time></trkpt><trkpt lat="46.1324654" lon="10.3168861"><ele>866.1428571428571</ele><time>2026-04-10T14:05:16.415Z</time></trkpt><trkpt lat="46.1325313" lon="10.3169349"><ele>872.7142857142857</ele><time>2026-04-10T14:05:19.416Z</time></trkpt><trkpt lat="46.1325985" lon="10.3169838"><ele>879.2857142857142</ele><time>2026-04-10T14:05:22.415Z</time></trkpt><trkpt lat="46.1326681" lon="10.3170267"><ele>885.8571428571429</ele><time>2026-04-10T14:05:25.415Z</time></trkpt><trkpt lat="46.1327377" lon="10.3170666"><ele>892.4285714285713</ele><time>2026-04-10T14:05:28.415Z</time></trkpt><trkpt lat="46.1328042" lon="10.3171118"><ele>898.9999999999999</ele><time>2026-04-10T14:05:31.416Z</time></trkpt><trkpt lat="46.1328707" lon="10.3171569"><ele>898.9999999999999</ele><time>2026-04-10T14:05:34.414Z</time></trkpt><trkpt lat="46.1329352" lon="10.3172027"><ele>899.0</ele><time>2026-04-10T14:05:37.414Z</time></trkpt><trkpt lat="46.1330045" lon="10.3172394"><ele>898.9999999999999</ele><time>2026-04-10T14:05:40.415Z</time></trkpt><trkpt lat="46.133068" lon="10.317289"><ele>898.9999999999999</ele><time>2026-04-10T14:05:43.416Z</time></trkpt><trkpt lat="46.1331364" lon="10.3173395"><ele>899.0</ele><time>2026-04-10T14:05:46.416Z</time></trkpt><trkpt lat="46.1332023" lon="10.3173963"><ele>898.9999999999999</ele><time>2026-04-10T14:05:49.415Z</time></trkpt><trkpt lat="46.1332666" lon="10.3174573"><ele>898.9999999999999</ele><time>2026-04-10T14:05:52.415Z</time></trkpt><trkpt lat="46.1333259" lon="10.3175181"><ele>898.142857142857</ele><time>2026-04-10T14:05:55.414Z</time></trkpt><trkpt lat="46.1333865" lon="10.3175729"><ele>897.2857142857142</ele><time>2026-04-10T14:05:58.415Z</time></trkpt><trkpt lat="46.1334507" lon="10.3176213"><ele>896.4285714285713</ele><time>2026-04-10T14:06:01.414Z</time></trkpt><trkpt lat="46.1335152" lon="10.3176697"><ele>895.5714285714284</ele><time>2026-04-10T14:06:04.414Z</time></trkpt><trkpt lat="46.1335872" lon="10.3176983"><ele>894.7142857142858</ele><time>2026-04-10T14:06:07.415Z</time></trkpt><trkpt lat="46.1336532" lon="10.3177349"><ele>893.8571428571429</ele><time>2026-04-10T14:06:10.415Z</time></trkpt><trkpt lat="46.1337228" lon="10.3177606"><ele>893.0</ele><time>2026-04-10T14:06:13.415Z</time></trkpt><trkpt lat="46.1337898" lon="10.3177994"><ele>893.0</ele><time>2026-04-10T14:06:16.414Z</time></trkpt><trkpt lat="46.1338584" lon="10.3178203"><ele>893.0</ele><time>2026-04-10T14:06:19.414Z</time></trkpt><trkpt lat="46.1339213" lon="10.3178452"><ele>893.0</ele><time>2026-04-10T14:06:22.415Z</time></trkpt><trkpt lat="46.1339874" lon="10.3178683"><ele>893.0</ele><time>2026-04-10T14:06:25.414Z</time></trkpt><trkpt lat="46.1340507" lon="10.3179053"><ele>893.0</ele><time>2026-04-10T14:06:28.414Z</time></trkpt><trkpt lat="46.1341101" lon="10.3179522"><ele>893.0</ele><time>2026-04-10T14:06:31.415Z</time></trkpt><trkpt lat="46.1341655" lon="10.3180141"><ele>893.0</ele><time>2026-04-10T14:06:34.415Z</time></trkpt><trkpt lat="46.1342171" lon="10.3180803"><ele>893.4285714285714</ele><time>2026-04-10T14:06:37.414Z</time></trkpt><trkpt lat="46.1342666" lon="10.3181529"><ele>893.8571428571429</ele><time>2026-04-10T14:06:40.415Z</time></trkpt><trkpt lat="46.1343188" lon="10.3182243"><ele>894.2857142857142</ele><time>2026-04-10T14:06:43.416Z</time></trkpt><trkpt lat="46.134374" lon="10.3182939"><ele>894.7142857142858</ele><time>2026-04-10T14:06:46.415Z</time></trkpt><trkpt lat="46.1344255" lon="10.318347"><ele>895.1428571428571</ele><time>2026-04-10T14:06:49.415Z</time></trkpt><trkpt lat="46.1344857" lon="10.3183803"><ele>895.5714285714286</ele><time>2026-04-10T14:06:52.415Z</time></trkpt><trkpt lat="46.1345502" lon="10.3184095"><ele>896.0</ele><time>2026-04-10T14:06:55.416Z</time></trkpt><trkpt lat="46.1346169" lon="10.3184543"><ele>896.0</ele><time>2026-04-10T14:06:58.415Z</time></trkpt><trkpt lat="46.1346803" lon="10.3185048"><ele>896.0</ele><time>2026-04-10T14:07:01.415Z</time></trkpt><trkpt lat="46.1347384" lon="10.318568"><ele>896.0</ele><time>2026-04-10T14:07:04.415Z</time></trkpt><trkpt lat="46.134793" lon="10.3186311"><ele>896.0</ele><time>2026-04-10T14:07:07.415Z</time></trkpt><trkpt lat="46.1348487" lon="10.3187005"><ele>896.0</ele><time>2026-04-10T14:07:10.415Z</time></trkpt><trkpt lat="46.1349024" lon="10.3187696"><ele>896.0</ele><time>2026-04-10T14:07:13.416Z</time></trkpt><trkpt lat="46.1349507" lon="10.3188452"><ele>896.0</ele><time>2026-04-10T14:07:16.415Z</time></trkpt><trkpt lat="46.135016" lon="10.3189315"><ele>897.8333333333334</ele><time>2026-04-10T14:07:20.416Z</time></trkpt><trkpt lat="46.1350736" lon="10.3190171"><ele>899.6666666666667</ele><time>2026-04-10T14:07:23.415Z</time></trkpt><trkpt lat="46.1351259" lon="10.319103"><ele>901.5</ele><time>2026-04-10T14:07:26.416Z</time></trkpt><trkpt lat="46.1351835" lon="10.3191835"><ele>903.3333333333333</ele><time>2026-04-10T14:07:29.416Z</time></trkpt><trkpt lat="46.1352324" lon="10.3192588"><ele>905.1666666666666</ele><time>2026-04-10T14:07:32.415Z</time></trkpt><trkpt lat="46.1352685" lon="10.3193349"><ele>907.0</ele><time>2026-04-10T14:07:35.414Z</time></trkpt><trkpt lat="46.1353019" lon="10.3194371"><ele>906.9999999999999</ele><time>2026-04-10T14:07:38.416Z</time></trkpt><trkpt lat="46.1353344" lon="10.3195491"><ele>907.0</ele><time>2026-04-10T14:07:41.416Z</time></trkpt><trkpt lat="46.1353681" lon="10.3196635"><ele>907.0</ele><time>2026-04-10T14:07:44.415Z</time></trkpt><trkpt lat="46.1354063" lon="10.3197686"><ele>907.0</ele><time>2026-04-10T14:07:47.415Z</time></trkpt><trkpt lat="46.1354487" lon="10.3198559"><ele>906.9999999999999</ele><time>2026-04-10T14:07:50.415Z</time></trkpt><trkpt lat="46.1354891" lon="10.3199402"><ele>907.0</ele><time>2026-04-10T14:07:53.415Z</time></trkpt><trkpt lat="46.1355335" lon="10.320025"><ele>904.4285714285716</ele><time>2026-04-10T14:07:56.416Z</time></trkpt><trkpt lat="46.1355823" lon="10.3201086"><ele>901.8571428571429</ele><time>2026-04-10T14:07:59.415Z</time></trkpt><trkpt lat="46.135629" lon="10.3201827"><ele>899.2857142857143</ele><time>2026-04-10T14:08:02.415Z</time></trkpt><trkpt lat="46.1356762" lon="10.3202578"><ele>896.7142857142858</ele><time>2026-04-10T14:08:05.416Z</time></trkpt><trkpt lat="46.1357252" lon="10.3203385"><ele>894.1428571428571</ele><time>2026-04-10T14:08:08.415Z</time></trkpt><trkpt lat="46.135781" lon="10.3204052"><ele>891.5714285714286</ele><time>2026-04-10T14:08:11.415Z</time></trkpt><trkpt lat="46.1358343" lon="10.3204749"><ele>889.0</ele><time>2026-04-10T14:08:14.414Z</time></trkpt><trkpt lat="46.135883" lon="10.3205369"><ele>892.4285714285714</ele><time>2026-04-10T14:08:17.415Z</time></trkpt><trkpt lat="46.135937" lon="10.3205964"><ele>895.8571428571429</ele><time>2026-04-10T14:08:20.416Z</time></trkpt><trkpt lat="46.1359963" lon="10.3206514"><ele>899.2857142857142</ele><time>2026-04-10T14:08:23.415Z</time></trkpt><trkpt lat="46.1360557" lon="10.3207079"><ele>902.7142857142857</ele><time>2026-04-10T14:08:26.415Z</time></trkpt><trkpt lat="46.1361135" lon="10.3207653"><ele>906.1428571428571</ele><time>2026-04-10T14:08:29.414Z</time></trkpt><trkpt lat="46.136165" lon="10.3208384"><ele>909.5714285714284</ele><time>2026-04-10T14:08:32.414Z</time></trkpt><trkpt lat="46.1362083" lon="10.3209309"><ele>912.9999999999999</ele><time>2026-04-10T14:08:35.416Z</time></trkpt><trkpt lat="46.1362279" lon="10.3210483"><ele>912.9999999999999</ele><time>2026-04-10T14:08:38.415Z</time></trkpt><trkpt lat="46.1362387" lon="10.3211619"><ele>913.0</ele><time>2026-04-10T14:08:41.415Z</time></trkpt><trkpt lat="46.1362528" lon="10.3212697"><ele>913.0</ele><time>2026-04-10T14:08:44.415Z</time></trkpt><trkpt lat="46.1362858" lon="10.3213676"><ele>913.0</ele><time>2026-04-10T14:08:47.415Z</time></trkpt><trkpt lat="46.1363284" lon="10.3214698"><ele>912.9999999999999</ele><time>2026-04-10T14:08:50.415Z</time></trkpt><trkpt lat="46.1363696" lon="10.3215722"><ele>913.0</ele><time>2026-04-10T14:08:53.415Z</time></trkpt><trkpt lat="46.1364317" lon="10.3216655"><ele>916.2857142857142</ele><time>2026-04-10T14:08:56.414Z</time></trkpt><trkpt lat="46.1364813" lon="10.3217221"><ele>919.5714285714286</ele><time>2026-04-10T14:08:58.416Z</time></trkpt><trkpt lat="46.1365374" lon="10.3217711"><ele>922.8571428571429</ele><time>2026-04-10T14:09:00.415Z</time></trkpt><trkpt lat="46.136595" lon="10.3218253"><ele>926.1428571428571</ele><time>2026-04-10T14:09:02.415Z</time></trkpt><trkpt lat="46.1366561" lon="10.3218904"><ele>929.4285714285716</ele><time>2026-04-10T14:09:04.415Z</time></trkpt><trkpt lat="46.1367165" lon="10.3219553"><ele>932.7142857142858</ele><time>2026-04-10T14:09:06.415Z</time></trkpt><trkpt lat="46.1367741" lon="10.3220119"><ele>936.0</ele><time>2026-04-10T14:09:08.414Z</time></trkpt><trkpt lat="46.1368344" lon="10.3220662"><ele>936.0</ele><time>2026-04-10T14:09:10.414Z</time></trkpt><trkpt lat="46.1368958" lon="10.3221066"><ele>936.0</ele><time>2026-04-10T14:09:12.415Z</time></trkpt><trkpt lat="46.136958" lon="10.3221366"><ele>936.0</ele><time>2026-04-10T14:09:14.415Z</time></trkpt><trkpt lat="46.1370178" lon="10.3221669"><ele>936.0</ele><time>2026-04-10T14:09:16.415Z</time></trkpt><trkpt lat="46.1371036" lon="10.3221992"><ele>936.0</ele><time>2026-04-10T14:09:19.414Z</time></trkpt><trkpt lat="46.1371859" lon="10.322233"><ele>936.0</ele><time>2026-04-10T14:09:22.416Z</time></trkpt><trkpt lat="46.1372662" lon="10.3222745"><ele>936.3333333333334</ele><time>2026-04-10T14:09:25.415Z</time></trkpt><trkpt lat="46.1373431" lon="10.3223269"><ele>936.6666666666667</ele><time>2026-04-10T14:09:28.415Z</time></trkpt><trkpt lat="46.1374063" lon="10.3224"><ele>937.0</ele><time>2026-04-10T14:09:31.416Z</time></trkpt><trkpt lat="46.1374638" lon="10.3224875"><ele>937.3333333333334</ele><time>2026-04-10T14:09:34.416Z</time></trkpt><trkpt lat="46.1375242" lon="10.3225805"><ele>937.6666666666667</ele><time>2026-04-10T14:09:37.414Z</time></trkpt><trkpt lat="46.1375969" lon="10.322664"><ele>938.0</ele><time>2026-04-10T14:09:40.416Z</time></trkpt><trkpt lat="46.1376688" lon="10.322729"><ele>938.0</ele><time>2026-04-10T14:09:43.416Z</time></trkpt><trkpt lat="46.1377302" lon="10.3227942"><ele>938.0</ele><time>2026-04-10T14:09:46.415Z</time></trkpt><trkpt lat="46.1377897" lon="10.322847"><ele>938.0</ele><time>2026-04-10T14:09:49.416Z</time></trkpt><trkpt lat="46.1378468" lon="10.3228979"><ele>938.0</ele><time>2026-04-10T14:09:52.416Z</time></trkpt><trkpt lat="46.1379051" lon="10.3229688"><ele>938.0</ele><time>2026-04-10T14:09:56.416Z</time></trkpt><trkpt lat="46.1379594" lon="10.3230505"><ele>938.0</ele><time>2026-04-10T14:10:00.416Z</time></trkpt><trkpt lat="46.1379979" lon="10.3231238"><ele>938.0</ele><time>2026-04-10T14:10:03.415Z</time></trkpt><trkpt lat="46.1380469" lon="10.3232097"><ele>940.0</ele><time>2026-04-10T14:10:07.415Z</time></trkpt><trkpt lat="46.1380962" lon="10.3232851"><ele>942.0</ele><time>2026-04-10T14:10:11.415Z</time></trkpt><trkpt lat="46.1381439" lon="10.3233614"><ele>944.0</ele><time>2026-04-10T14:10:15.415Z</time></trkpt><trkpt lat="46.1381994" lon="10.3234355"><ele>946.0</ele><time>2026-04-10T14:10:19.414Z</time></trkpt><trkpt lat="46.1382506" lon="10.3235252"><ele>948.0</ele><time>2026-04-10T14:10:23.415Z</time></trkpt><trkpt lat="46.1382961" lon="10.3235931"><ele>950.0</ele><time>2026-04-10T14:10:26.416Z</time></trkpt><trkpt lat="46.1383314" lon="10.3236689"><ele>952.0</ele><time>2026-04-10T14:10:29.415Z</time></trkpt><trkpt lat="46.1383667" lon="10.3237477"><ele>951.9999999999999</ele><time>2026-04-10T14:10:32.415Z</time></trkpt><trkpt lat="46.1384169" lon="10.3238423"><ele>952.0</ele><time>2026-04-10T14:10:36.415Z</time></trkpt><trkpt lat="46.1384582" lon="10.3239461"><ele>952.0</ele><time>2026-04-10T14:10:40.416Z</time></trkpt><trkpt lat="46.1385209" lon="10.3240185"><ele>952.0</ele><time>2026-04-10T14:10:44.414Z</time></trkpt><trkpt lat="46.1385867" lon="10.3240788"><ele>951.9999999999999</ele><time>2026-04-10T14:10:48.415Z</time></trkpt><trkpt lat="46.138658" lon="10.3241122"><ele>952.0</ele><time>2026-04-10T14:10:52.414Z</time></trkpt><trkpt lat="46.138727" lon="10.32415"><ele>954.4285714285714</ele><time>2026-04-10T14:10:56.415Z</time></trkpt><trkpt lat="46.1388011" lon="10.3241832"><ele>956.8571428571429</ele><time>2026-04-10T14:11:00.416Z</time></trkpt><trkpt lat="46.1388739" lon="10.3242279"><ele>959.2857142857142</ele><time>2026-04-10T14:11:04.415Z</time></trkpt><trkpt lat="46.1389334" lon="10.3243001"><ele>961.7142857142857</ele><time>2026-04-10T14:11:08.414Z</time></trkpt><trkpt lat="46.1389878" lon="10.3243534"><ele>964.1428571428571</ele><time>2026-04-10T14:11:12.414Z</time></trkpt><trkpt lat="46.139033" lon="10.3244197"><ele>966.5714285714284</ele><time>2026-04-10T14:11:16.416Z</time></trkpt><trkpt lat="46.1390876" lon="10.3244843"><ele>968.9999999999999</ele><time>2026-04-10T14:11:21.417Z</time></trkpt><trkpt lat="46.1391269" lon="10.324558"><ele>968.9999999999999</ele><time>2026-04-10T14:13:56.417Z</time></trkpt><trkpt lat="46.1391952" lon="10.3245794"><ele>969.0</ele><time>2026-04-10T14:14:00.416Z</time></trkpt><trkpt lat="46.1392625" lon="10.3245953"><ele>968.9999999999999</ele><time>2026-04-10T14:14:04.417Z</time></trkpt><trkpt lat="46.1393389" lon="10.3246222"><ele>968.9999999999999</ele><time>2026-04-10T14:14:08.416Z</time></trkpt><trkpt lat="46.1394016" lon="10.3246465"><ele>969.0</ele><time>2026-04-10T14:14:11.417Z</time></trkpt><trkpt lat="46.1394816" lon="10.3246869"><ele>968.9999999999999</ele><time>2026-04-10T14:14:15.416Z</time></trkpt><trkpt lat="46.1395442" lon="10.3247181"><ele>968.9999999999999</ele><time>2026-04-10T14:14:18.415Z</time></trkpt><trkpt lat="46.1396058" lon="10.3247419"><ele>968.7142857142856</ele><time>2026-04-10T14:14:21.416Z</time></trkpt><trkpt lat="46.139683" lon="10.3247761"><ele>968.4285714285713</ele><time>2026-04-10T14:14:25.416Z</time></trkpt><trkpt lat="46.1397591" lon="10.3248112"><ele>968.1428571428571</ele><time>2026-04-10T14:14:29.416Z</time></trkpt><trkpt lat="46.1398171" lon="10.3248513"><ele>967.8571428571428</ele><time>2026-04-10T14:14:32.417Z</time></trkpt><trkpt lat="46.1398844" lon="10.3249221"><ele>967.5714285714284</ele><time>2026-04-10T14:14:36.416Z</time></trkpt><trkpt lat="46.1399339" lon="10.32498"><ele>967.2857142857143</ele><time>2026-04-10T14:14:39.415Z</time></trkpt><trkpt lat="46.1399802" lon="10.3250416"><ele>967.0</ele><time>2026-04-10T14:14:42.417Z</time></trkpt><trkpt lat="46.1400281" lon="10.3251379"><ele>966.9999999999999</ele><time>2026-04-10T14:14:46.416Z</time></trkpt><trkpt lat="46.1400767" lon="10.3252341"><ele>967.0</ele><time>2026-04-10T14:14:50.416Z</time></trkpt><trkpt lat="46.1401281" lon="10.3253231"><ele>967.0</ele><time>2026-04-10T14:14:54.417Z</time></trkpt><trkpt lat="46.1401836" lon="10.3254102"><ele>967.0</ele><time>2026-04-10T14:14:58.415Z</time></trkpt><trkpt lat="46.1402503" lon="10.3254797"><ele>966.9999999999999</ele><time>2026-04-10T14:15:02.417Z</time></trkpt><trkpt lat="46.1403197" lon="10.3255396"><ele>967.0</ele><time>2026-04-10T14:15:06.415Z</time></trkpt><trkpt lat="46.1403944" lon="10.3255875"><ele>967.8571428571429</ele><time>2026-04-10T14:15:10.416Z</time></trkpt><trkpt lat="46.1404701" lon="10.3256295"><ele>968.7142857142857</ele><time>2026-04-10T14:15:14.416Z</time></trkpt><trkpt lat="46.1405397" lon="10.3256883"><ele>969.5714285714286</ele><time>2026-04-10T14:15:18.416Z</time></trkpt><trkpt lat="46.1406114" lon="10.3257428"><ele>970.4285714285714</ele><time>2026-04-10T14:15:22.416Z</time></trkpt><trkpt lat="46.140671" lon="10.325781"><ele>971.2857142857142</ele><time>2026-04-10T14:15:25.417Z</time></trkpt><trkpt lat="46.140732" lon="10.3258066"><ele>972.1428571428571</ele><time>2026-04-10T14:15:28.416Z</time></trkpt><trkpt lat="46.1407945" lon="10.3258194"><ele>973.0</ele><time>2026-04-10T14:15:31.415Z</time></trkpt><trkpt lat="46.1408781" lon="10.3258355"><ele>972.9999999999999</ele><time>2026-04-10T14:15:35.415Z</time></trkpt><trkpt lat="46.1409415" lon="10.3258434"><ele>973.0</ele><time>2026-04-10T14:15:38.416Z</time></trkpt><trkpt lat="46.1410222" lon="10.3258696"><ele>973.0</ele><time>2026-04-10T14:15:42.417Z</time></trkpt><trkpt lat="46.1411012" lon="10.3258965"><ele>973.0</ele><time>2026-04-10T14:15:46.416Z</time></trkpt><trkpt lat="46.1411636" lon="10.3259174"><ele>972.9999999999999</ele><time>2026-04-10T14:15:49.416Z</time></trkpt><trkpt lat="46.1412447" lon="10.3259449"><ele>973.0</ele><time>2026-04-10T14:15:53.416Z</time></trkpt><trkpt lat="46.1413252" lon="10.3259751"><ele>972.9999999999999</ele><time>2026-04-10T14:15:57.415Z</time></trkpt><trkpt lat="46.141408" lon="10.3259824"><ele>973.0</ele><time>2026-04-10T14:16:01.417Z</time></trkpt><trkpt lat="46.1414836" lon="10.325968"><ele>973.0</ele><time>2026-04-10T14:16:05.416Z</time></trkpt><trkpt lat="46.1415609" lon="10.3259674"><ele>973.0</ele><time>2026-04-10T14:16:09.416Z</time></trkpt><trkpt lat="46.1416245" lon="10.3259747"><ele>972.9999999999999</ele><time>2026-04-10T14:16:12.416Z</time></trkpt><trkpt lat="46.141706" lon="10.3260127"><ele>973.0</ele><time>2026-04-10T14:16:16.416Z</time></trkpt><trkpt lat="46.1417852" lon="10.3260585"><ele>974.8571428571429</ele><time>2026-04-10T14:16:19.417Z</time></trkpt><trkpt lat="46.14186" lon="10.3260959"><ele>976.7142857142858</ele><time>2026-04-10T14:16:22.416Z</time></trkpt><trkpt lat="46.1419207" lon="10.3261237"><ele>978.5714285714286</ele><time>2026-04-10T14:16:25.416Z</time></trkpt><trkpt lat="46.1419838" lon="10.3261447"><ele>980.4285714285714</ele><time>2026-04-10T14:16:28.415Z</time></trkpt><trkpt lat="46.142056" lon="10.3261726"><ele>982.2857142857143</ele><time>2026-04-10T14:16:31.416Z</time></trkpt><trkpt lat="46.1421218" lon="10.3262026"><ele>984.1428571428571</ele><time>2026-04-10T14:16:34.416Z</time></trkpt><trkpt lat="46.142183" lon="10.3262386"><ele>986.0</ele><time>2026-04-10T14:16:37.417Z</time></trkpt><trkpt lat="46.142246" lon="10.3262751"><ele>986.0</ele><time>2026-04-10T14:16:40.415Z</time></trkpt><trkpt lat="46.1423076" lon="10.326322"><ele>986.0</ele><time>2026-04-10T14:16:43.416Z</time></trkpt><trkpt lat="46.1423727" lon="10.3263569"><ele>986.0</ele><time>2026-04-10T14:16:46.416Z</time></trkpt><trkpt lat="46.1424361" lon="10.326391"><ele>986.0</ele><time>2026-04-10T14:16:49.416Z</time></trkpt><trkpt lat="46.1425048" lon="10.326416"><ele>986.0</ele><time>2026-04-10T14:16:52.416Z</time></trkpt><trkpt lat="46.1425727" lon="10.3264356"><ele>986.0</ele><time>2026-04-10T14:16:55.416Z</time></trkpt><trkpt lat="46.1426401" lon="10.3264444"><ele>986.0</ele><time>2026-04-10T14:16:58.416Z</time></trkpt><trkpt lat="46.1427038" lon="10.3264454"><ele>985.0000000000001</ele><time>2026-04-10T14:17:01.417Z</time></trkpt><trkpt lat="46.1427866" lon="10.3264554"><ele>984.0</ele><time>2026-04-10T14:17:05.415Z</time></trkpt><trkpt lat="46.1428681" lon="10.3264584"><ele>983.0</ele><time>2026-04-10T14:17:09.416Z</time></trkpt><trkpt lat="46.1429482" lon="10.3264535"><ele>982.0</ele><time>2026-04-10T14:17:13.417Z</time></trkpt><trkpt lat="46.1430277" lon="10.3264452"><ele>981.0000000000001</ele><time>2026-04-10T14:17:17.417Z</time></trkpt><trkpt lat="46.143105" lon="10.3264396"><ele>980.0</ele><time>2026-04-10T14:17:21.415Z</time></trkpt><trkpt lat="46.1431826" lon="10.3264545"><ele>981.5714285714286</ele><time>2026-04-10T14:17:25.415Z</time></trkpt><trkpt lat="46.1432462" lon="10.3264893"><ele>983.1428571428571</ele><time>2026-04-10T14:17:28.416Z</time></trkpt><trkpt lat="46.1433129" lon="10.326522"><ele>984.7142857142858</ele><time>2026-04-10T14:17:31.416Z</time></trkpt><trkpt lat="46.1433787" lon="10.3265557"><ele>986.2857142857143</ele><time>2026-04-10T14:17:34.417Z</time></trkpt><trkpt lat="46.143443" lon="10.3265876"><ele>987.8571428571429</ele><time>2026-04-10T14:17:37.416Z</time></trkpt><trkpt lat="46.1435064" lon="10.3266102"><ele>989.4285714285716</ele><time>2026-04-10T14:17:40.416Z</time></trkpt><trkpt lat="46.1435701" lon="10.3266303"><ele>991.0000000000001</ele><time>2026-04-10T14:17:43.416Z</time></trkpt><trkpt lat="46.1436391" lon="10.3266321"><ele>991.0000000000001</ele><time>2026-04-10T14:17:46.417Z</time></trkpt><trkpt lat="46.1437071" lon="10.326657"><ele>991.0</ele><time>2026-04-10T14:17:49.416Z</time></trkpt><trkpt lat="46.1437759" lon="10.326673"><ele>991.0000000000001</ele><time>2026-04-10T14:17:52.416Z</time></trkpt><trkpt lat="46.1438482" lon="10.3266693"><ele>991.0000000000001</ele><time>2026-04-10T14:17:55.416Z</time></trkpt><trkpt lat="46.1439208" lon="10.326674"><ele>991.0</ele><time>2026-04-10T14:17:58.417Z</time></trkpt><trkpt lat="46.1439926" lon="10.3266704"><ele>991.0000000000001</ele><time>2026-04-10T14:18:01.416Z</time></trkpt><trkpt lat="46.1440658" lon="10.3266526"><ele>991.0000000000001</ele><time>2026-04-10T14:18:04.416Z</time></trkpt><trkpt lat="46.1441375" lon="10.3266423"><ele>992.1428571428573</ele><time>2026-04-10T14:18:07.416Z</time></trkpt><trkpt lat="46.1442037" lon="10.3266283"><ele>993.2857142857143</ele><time>2026-04-10T14:18:10.417Z</time></trkpt><trkpt lat="46.144268" lon="10.3266048"><ele>994.4285714285716</ele><time>2026-04-10T14:18:13.416Z</time></trkpt><trkpt lat="46.1443304" lon="10.3265772"><ele>995.5714285714287</ele><time>2026-04-10T14:18:16.416Z</time></trkpt><trkpt lat="46.1443945" lon="10.3265536"><ele>996.7142857142858</ele><time>2026-04-10T14:18:19.417Z</time></trkpt><trkpt lat="46.1444593" lon="10.326522"><ele>997.8571428571429</ele><time>2026-04-10T14:18:22.416Z</time></trkpt><trkpt lat="46.1445256" lon="10.3264985"><ele>999.0</ele><time>2026-04-10T14:18:25.417Z</time></trkpt><trkpt lat="46.1445914" lon="10.3264677"><ele>999.0</ele><time>2026-04-10T14:18:28.416Z</time></trkpt><trkpt lat="46.1446569" lon="10.3264453"><ele>999.0000000000001</ele><time>2026-04-10T14:18:31.416Z</time></trkpt><trkpt lat="46.1447217" lon="10.3264219"><ele>999.0</ele><time>2026-04-10T14:18:34.417Z</time></trkpt><trkpt lat="46.1447904" lon="10.3264073"><ele>999.0</ele><time>2026-04-10T14:18:37.416Z</time></trkpt><trkpt lat="46.1448604" lon="10.3263979"><ele>999.0000000000001</ele><time>2026-04-10T14:18:40.417Z</time></trkpt><trkpt lat="46.1449288" lon="10.3263897"><ele>999.0</ele><time>2026-04-10T14:18:43.417Z</time></trkpt><trkpt lat="46.1449969" lon="10.3263897"><ele>999.0</ele><time>2026-04-10T14:18:46.416Z</time></trkpt><trkpt lat="46.1450672" lon="10.3263883"><ele>1002.1428571428572</ele><time>2026-04-10T14:18:49.416Z</time></trkpt><trkpt lat="46.1451387" lon="10.32639"><ele>1005.2857142857144</ele><time>2026-04-10T14:18:52.416Z</time></trkpt><trkpt lat="46.1452079" lon="10.3263918"><ele>1008.4285714285714</ele><time>2026-04-10T14:18:55.415Z</time></trkpt><trkpt lat="46.1452767" lon="10.3263852"><ele>1011.5714285714287</ele><time>2026-04-10T14:18:58.416Z</time></trkpt><trkpt lat="46.1453452" lon="10.3263821"><ele>1014.7142857142858</ele><time>2026-04-10T14:19:01.416Z</time></trkpt><trkpt lat="46.1454139" lon="10.3263808"><ele>1017.8571428571429</ele><time>2026-04-10T14:19:04.415Z</time></trkpt><trkpt lat="46.1454795" lon="10.3263788"><ele>1021.0</ele><time>2026-04-10T14:19:07.417Z</time></trkpt><trkpt lat="46.1455457" lon="10.3263797"><ele>1021.0</ele><time>2026-04-10T14:19:10.416Z</time></trkpt><trkpt lat="46.1456139" lon="10.3263748"><ele>1021.0</ele><time>2026-04-10T14:19:13.415Z</time></trkpt><trkpt lat="46.1456822" lon="10.3263746"><ele>1021.0</ele><time>2026-04-10T14:19:16.416Z</time></trkpt><trkpt lat="46.1457523" lon="10.3263714"><ele>1021.0</ele><time>2026-04-10T14:19:19.415Z</time></trkpt><trkpt lat="46.1458187" lon="10.3263627"><ele>1021.0</ele><time>2026-04-10T14:19:22.416Z</time></trkpt><trkpt lat="46.1458867" lon="10.3263506"><ele>1021.0</ele><time>2026-04-10T14:19:25.416Z</time></trkpt><trkpt lat="46.1459563" lon="10.3263347"><ele>1021.0</ele><time>2026-04-10T14:19:28.417Z</time></trkpt><trkpt lat="46.1460266" lon="10.3263221"><ele>1019.8571428571429</ele><time>2026-04-10T14:19:31.417Z</time></trkpt><trkpt lat="46.1460932" lon="10.3263089"><ele>1018.7142857142858</ele><time>2026-04-10T14:19:34.416Z</time></trkpt><trkpt lat="46.1461597" lon="10.3263099"><ele>1017.5714285714287</ele><time>2026-04-10T14:19:37.417Z</time></trkpt><trkpt lat="46.1462278" lon="10.3263187"><ele>1016.4285714285714</ele><time>2026-04-10T14:19:40.415Z</time></trkpt><trkpt lat="46.1462954" lon="10.3263408"><ele>1015.2857142857144</ele><time>2026-04-10T14:19:43.416Z</time></trkpt><trkpt lat="46.1463616" lon="10.3263651"><ele>1014.1428571428572</ele><time>2026-04-10T14:19:46.417Z</time></trkpt><trkpt lat="46.146432" lon="10.3263955"><ele>1013.0</ele><time>2026-04-10T14:19:49.415Z</time></trkpt><trkpt lat="46.1464996" lon="10.3264228"><ele>1014.7142857142858</ele><time>2026-04-10T14:19:52.416Z</time></trkpt><trkpt lat="46.1465679" lon="10.3264488"><ele>1016.4285714285716</ele><time>2026-04-10T14:19:55.415Z</time></trkpt><trkpt lat="46.1466304" lon="10.3264762"><ele>1018.1428571428571</ele><time>2026-04-10T14:19:58.415Z</time></trkpt><trkpt lat="46.146691" lon="10.3265112"><ele>1019.8571428571429</ele><time>2026-04-10T14:20:01.416Z</time></trkpt><trkpt lat="46.1467579" lon="10.3265244"><ele>1021.5714285714286</ele><time>2026-04-10T14:20:04.415Z</time></trkpt><trkpt lat="46.1468227" lon="10.3265491"><ele>1023.2857142857142</ele><time>2026-04-10T14:20:07.417Z</time></trkpt><trkpt lat="46.1468895" lon="10.3265794"><ele>1025.0</ele><time>2026-04-10T14:20:10.416Z</time></trkpt><trkpt lat="46.1469558" lon="10.3266125"><ele>1024.9999999999998</ele><time>2026-04-10T14:20:13.415Z</time></trkpt><trkpt lat="46.1470228" lon="10.326632"><ele>1025.0</ele><time>2026-04-10T14:20:16.416Z</time></trkpt><trkpt lat="46.1470904" lon="10.3266556"><ele>1025.0</ele><time>2026-04-10T14:20:19.416Z</time></trkpt><trkpt lat="46.1471587" lon="10.3266774"><ele>1025.0</ele><time>2026-04-10T14:20:22.416Z</time></trkpt><trkpt lat="46.14723" lon="10.3267061"><ele>1025.0</ele><time>2026-04-10T14:20:25.417Z</time></trkpt><trkpt lat="46.1473004" lon="10.3267412"><ele>1024.9999999999998</ele><time>2026-04-10T14:20:28.416Z</time></trkpt><trkpt lat="46.1473741" lon="10.326778"><ele>1025.0</ele><time>2026-04-10T14:20:31.416Z</time></trkpt><trkpt lat="46.1474387" lon="10.3268257"><ele>1025.8333333333335</ele><time>2026-04-10T14:20:34.416Z</time></trkpt><trkpt lat="46.1475035" lon="10.3269099"><ele>1026.6666666666667</ele><time>2026-04-10T14:20:38.416Z</time></trkpt><trkpt lat="46.1475374" lon="10.3270181"><ele>1027.5</ele><time>2026-04-10T14:20:41.416Z</time></trkpt><trkpt lat="46.1475604" lon="10.3271337"><ele>1028.3333333333333</ele><time>2026-04-10T14:20:44.416Z</time></trkpt><trkpt lat="46.1475746" lon="10.327245"><ele>1029.1666666666665</ele><time>2026-04-10T14:20:47.415Z</time></trkpt><trkpt lat="46.1475798" lon="10.3273484"><ele>1030.0</ele><time>2026-04-10T14:20:50.415Z</time></trkpt><trkpt lat="46.1475893" lon="10.3274492"><ele>1030.0</ele><time>2026-04-10T14:20:53.417Z</time></trkpt><trkpt lat="46.1476086" lon="10.3275457"><ele>1030.0</ele><time>2026-04-10T14:20:56.416Z</time></trkpt><trkpt lat="46.1476348" lon="10.3276338"><ele>1030.0</ele><time>2026-04-10T14:20:59.416Z</time></trkpt><trkpt lat="46.1476718" lon="10.3277096"><ele>1030.0</ele><time>2026-04-10T14:21:02.415Z</time></trkpt><trkpt lat="46.1477213" lon="10.3277749"><ele>1030.0</ele><time>2026-04-10T14:21:05.416Z</time></trkpt><trkpt lat="46.1477947" lon="10.3278137"><ele>1030.0</ele><time>2026-04-10T14:21:09.416Z</time></trkpt><trkpt lat="46.1478637" lon="10.3278146"><ele>1030.0</ele><time>2026-04-10T14:21:14.415Z</time></trkpt><trkpt lat="46.1479205" lon="10.327855"><ele>1030.0</ele><time>2026-04-10T14:24:03.415Z</time></trkpt><trkpt lat="46.1479761" lon="10.3279258"><ele>1030.0</ele><time>2026-04-10T14:24:07.417Z</time></trkpt><trkpt lat="46.1480394" lon="10.327961"><ele>1030.0</ele><time>2026-04-10T14:24:11.417Z</time></trkpt><trkpt lat="46.1481071" lon="10.3279999"><ele>1030.0</ele><time>2026-04-10T14:24:16.416Z</time></trkpt><trkpt lat="46.1481716" lon="10.3280356"><ele>1030.0</ele><time>2026-04-10T14:24:20.416Z</time></trkpt><trkpt lat="46.1482473" lon="10.3280573"><ele>1030.0</ele><time>2026-04-10T14:24:24.415Z</time></trkpt><trkpt lat="46.1483242" lon="10.3280617"><ele>1030.0</ele><time>2026-04-10T14:24:28.415Z</time></trkpt><trkpt lat="46.1483988" lon="10.3280482"><ele>1033.5</ele><time>2026-04-10T14:24:32.416Z</time></trkpt><trkpt lat="46.1484739" lon="10.3280222"><ele>1037.0</ele><time>2026-04-10T14:24:36.416Z</time></trkpt><trkpt lat="46.1485486" lon="10.3279978"><ele>1040.5</ele><time>2026-04-10T14:24:40.416Z</time></trkpt><trkpt lat="46.1486185" lon="10.3279652"><ele>1044.0</ele><time>2026-04-10T14:24:44.417Z</time></trkpt><trkpt lat="46.1486902" lon="10.3279268"><ele>1047.5</ele><time>2026-04-10T14:24:48.416Z</time></trkpt><trkpt lat="46.1487561" lon="10.3278721"><ele>1051.0</ele><time>2026-04-10T14:24:52.417Z</time></trkpt><trkpt lat="46.1488138" lon="10.3278126"><ele>1051.0</ele><time>2026-04-10T14:24:56.416Z</time></trkpt><trkpt lat="46.1488698" lon="10.3277361"><ele>1051.0</ele><time>2026-04-10T14:25:00.415Z</time></trkpt><trkpt lat="46.1489316" lon="10.3276599"><ele>1051.0</ele><time>2026-04-10T14:25:04.416Z</time></trkpt><trkpt lat="46.1489807" lon="10.3276018"><ele>1051.0</ele><time>2026-04-10T14:25:07.417Z</time></trkpt><trkpt lat="46.1490451" lon="10.3275315"><ele>1051.0</ele><time>2026-04-10T14:25:11.417Z</time></trkpt><trkpt lat="46.1491086" lon="10.3274533"><ele>1051.0</ele><time>2026-04-10T14:25:15.416Z</time></trkpt><trkpt lat="46.1491761" lon="10.3273824"><ele>1051.5714285714287</ele><time>2026-04-10T14:25:19.417Z</time></trkpt><trkpt lat="46.1492299" lon="10.3273283"><ele>1052.142857142857</ele><time>2026-04-10T14:25:22.416Z</time></trkpt><trkpt lat="46.1492854" lon="10.3272693"><ele>1052.7142857142858</ele><time>2026-04-10T14:25:25.416Z</time></trkpt><trkpt lat="46.1493401" lon="10.3272159"><ele>1053.2857142857142</ele><time>2026-04-10T14:25:28.415Z</time></trkpt><trkpt lat="46.1493973" lon="10.3271714"><ele>1053.857142857143</ele><time>2026-04-10T14:25:31.417Z</time></trkpt><trkpt lat="46.1494537" lon="10.3271162"><ele>1054.4285714285716</ele><time>2026-04-10T14:25:34.418Z</time></trkpt><trkpt lat="46.1495123" lon="10.327064"><ele>1055.0</ele><time>2026-04-10T14:25:37.418Z</time></trkpt><trkpt lat="46.1495704" lon="10.3270108"><ele>1058.142857142857</ele><time>2026-04-10T14:25:40.417Z</time></trkpt><trkpt lat="46.1496298" lon="10.3269551"><ele>1061.2857142857144</ele><time>2026-04-10T14:25:43.417Z</time></trkpt><trkpt lat="46.1496917" lon="10.3269086"><ele>1064.4285714285716</ele><time>2026-04-10T14:25:46.416Z</time></trkpt><trkpt lat="46.1497556" lon="10.3268652"><ele>1067.5714285714287</ele><time>2026-04-10T14:25:49.417Z</time></trkpt><trkpt lat="46.149824" lon="10.3268361"><ele>1070.7142857142858</ele><time>2026-04-10T14:25:52.418Z</time></trkpt><trkpt lat="46.1498898" lon="10.3268153"><ele>1073.857142857143</ele><time>2026-04-10T14:25:55.416Z</time></trkpt><trkpt lat="46.149957" lon="10.3267954"><ele>1077.0</ele><time>2026-04-10T14:25:58.418Z</time></trkpt><trkpt lat="46.1500213" lon="10.3267768"><ele>1077.0</ele><time>2026-04-10T14:26:01.417Z</time></trkpt><trkpt lat="46.1500848" lon="10.3267557"><ele>1077.0</ele><time>2026-04-10T14:26:04.417Z</time></trkpt><trkpt lat="46.1501465" lon="10.3267297"><ele>1077.0</ele><time>2026-04-10T14:26:07.417Z</time></trkpt><trkpt lat="46.1502104" lon="10.3267101"><ele>1077.0</ele><time>2026-04-10T14:26:10.417Z</time></trkpt><trkpt lat="46.1502757" lon="10.3266863"><ele>1077.0</ele><time>2026-04-10T14:26:13.418Z</time></trkpt><trkpt lat="46.1503429" lon="10.3266683"><ele>1077.0</ele><time>2026-04-10T14:26:16.417Z</time></trkpt><trkpt lat="46.150422" lon="10.3266386"><ele>1077.0</ele><time>2026-04-10T14:26:20.416Z</time></trkpt><trkpt lat="46.1504879" lon="10.3266261"><ele>1077.0</ele><time>2026-04-10T14:26:23.417Z</time></trkpt><trkpt lat="46.1505596" lon="10.3266029"><ele>1077.0</ele><time>2026-04-10T14:26:26.418Z</time></trkpt><trkpt lat="46.1506283" lon="10.3265803"><ele>1077.0</ele><time>2026-04-10T14:26:29.417Z</time></trkpt><trkpt lat="46.1506907" lon="10.3266088"><ele>1077.0</ele><time>2026-04-10T14:26:34.418Z</time></trkpt><trkpt lat="46.1507605" lon="10.3266027"><ele>1077.0</ele><time>2026-04-10T14:26:37.418Z</time></trkpt><trkpt lat="46.1508349" lon="10.3265987"><ele>1077.0</ele><time>2026-04-10T14:26:40.417Z</time></trkpt><trkpt lat="46.1509116" lon="10.3266081"><ele>1077.0</ele><time>2026-04-10T14:26:44.417Z</time></trkpt><trkpt lat="46.1509825" lon="10.3266175"><ele>1077.1666666666667</ele><time>2026-04-10T14:26:47.418Z</time></trkpt><trkpt lat="46.1510672" lon="10.3266454"><ele>1077.3333333333333</ele><time>2026-04-10T14:26:50.417Z</time></trkpt><trkpt lat="46.1511409" lon="10.3266714"><ele>1077.5</ele><time>2026-04-10T14:26:53.416Z</time></trkpt><trkpt lat="46.151203" lon="10.3267044"><ele>1077.6666666666665</ele><time>2026-04-10T14:26:56.417Z</time></trkpt><trkpt lat="46.1512761" lon="10.3267572"><ele>1077.8333333333333</ele><time>2026-04-10T14:27:00.417Z</time></trkpt><trkpt lat="46.15134" lon="10.326829"><ele>1078.0</ele><time>2026-04-10T14:27:04.417Z</time></trkpt><trkpt lat="46.1514028" lon="10.3268868"><ele>1078.0</ele><time>2026-04-10T14:27:08.416Z</time></trkpt><trkpt lat="46.1514686" lon="10.3269393"><ele>1078.0</ele><time>2026-04-10T14:27:12.418Z</time></trkpt><trkpt lat="46.1515335" lon="10.3270049"><ele>1078.0</ele><time>2026-04-10T14:27:16.417Z</time></trkpt><trkpt lat="46.1515965" lon="10.327079"><ele>1078.0</ele><time>2026-04-10T14:27:20.417Z</time></trkpt><trkpt lat="46.1516449" lon="10.3271644"><ele>1078.0</ele><time>2026-04-10T14:27:24.418Z</time></trkpt><trkpt lat="46.1516903" lon="10.3272559"><ele>1078.0</ele><time>2026-04-10T14:27:28.418Z</time></trkpt><trkpt lat="46.1517388" lon="10.3273497"><ele>1078.2857142857142</ele><time>2026-04-10T14:27:32.416Z</time></trkpt><trkpt lat="46.1517787" lon="10.3274467"><ele>1078.5714285714284</ele><time>2026-04-10T14:27:36.417Z</time></trkpt><trkpt lat="46.1518206" lon="10.327541"><ele>1078.857142857143</ele><time>2026-04-10T14:27:40.417Z</time></trkpt><trkpt lat="46.1518614" lon="10.3276279"><ele>1079.142857142857</ele><time>2026-04-10T14:27:44.417Z</time></trkpt><trkpt lat="46.1519028" lon="10.3277121"><ele>1079.4285714285713</ele><time>2026-04-10T14:27:48.416Z</time></trkpt><trkpt lat="46.1519503" lon="10.3277953"><ele>1079.7142857142858</ele><time>2026-04-10T14:27:52.417Z</time></trkpt><trkpt lat="46.1520012" lon="10.3278735"><ele>1080.0</ele><time>2026-04-10T14:27:56.416Z</time></trkpt><trkpt lat="46.1520504" lon="10.3279469"><ele>1080.0</ele><time>2026-04-10T14:28:00.418Z</time></trkpt><trkpt lat="46.1521007" lon="10.3280144"><ele>1080.0</ele><time>2026-04-10T14:28:04.418Z</time></trkpt><trkpt lat="46.1521528" lon="10.3280803"><ele>1080.0</ele><time>2026-04-10T14:28:08.417Z</time></trkpt><trkpt lat="46.1522131" lon="10.3281258"><ele>1080.0</ele><time>2026-04-10T14:28:12.418Z</time></trkpt><trkpt lat="46.1522819" lon="10.3281714"><ele>1080.0</ele><time>2026-04-10T14:28:17.417Z</time></trkpt><trkpt lat="46.1523503" lon="10.3281909"><ele>1080.0</ele><time>2026-04-10T14:28:21.417Z</time></trkpt><trkpt lat="46.1524164" lon="10.3282067"><ele>1080.0</ele><time>2026-04-10T14:28:25.417Z</time></trkpt><trkpt lat="46.1524954" lon="10.3282341"><ele>1082.2857142857142</ele><time>2026-04-10T14:28:29.417Z</time></trkpt><trkpt lat="46.1525573" lon="10.3282606"><ele>1084.5714285714284</ele><time>2026-04-10T14:28:32.417Z</time></trkpt><trkpt lat="46.152619" lon="10.3282817"><ele>1086.857142857143</ele><time>2026-04-10T14:28:35.416Z</time></trkpt><trkpt lat="46.152697" lon="10.3283119"><ele>1089.142857142857</ele><time>2026-04-10T14:28:39.418Z</time></trkpt><trkpt lat="46.1527734" lon="10.3283309"><ele>1091.4285714285716</ele><time>2026-04-10T14:28:43.417Z</time></trkpt><trkpt lat="46.1528528" lon="10.3283605"><ele>1093.7142857142858</ele><time>2026-04-10T14:28:47.417Z</time></trkpt><trkpt lat="46.1529326" lon="10.3283826"><ele>1096.0</ele><time>2026-04-10T14:28:51.416Z</time></trkpt><trkpt lat="46.1530061" lon="10.3284192"><ele>1096.0</ele><time>2026-04-10T14:28:55.418Z</time></trkpt><trkpt lat="46.1530848" lon="10.3284466"><ele>1096.0</ele><time>2026-04-10T14:28:59.417Z</time></trkpt><trkpt lat="46.1531603" lon="10.3284828"><ele>1096.0</ele><time>2026-04-10T14:29:03.417Z</time></trkpt><trkpt lat="46.1532295" lon="10.3285379"><ele>1096.0</ele><time>2026-04-10T14:29:07.416Z</time></trkpt><trkpt lat="46.153302" lon="10.328589"><ele>1096.0</ele><time>2026-04-10T14:29:11.417Z</time></trkpt><trkpt lat="46.1533614" lon="10.3286647"><ele>1096.0</ele><time>2026-04-10T14:29:15.418Z</time></trkpt><trkpt lat="46.1534208" lon="10.3287389"><ele>1098.1428571428573</ele><time>2026-04-10T14:29:19.417Z</time></trkpt><trkpt lat="46.1534706" lon="10.3287947"><ele>1100.2857142857142</ele><time>2026-04-10T14:29:22.417Z</time></trkpt><trkpt lat="46.1535371" lon="10.3288678"><ele>1102.4285714285716</ele><time>2026-04-10T14:29:26.416Z</time></trkpt><trkpt lat="46.1535901" lon="10.3289212"><ele>1104.5714285714287</ele><time>2026-04-10T14:29:29.416Z</time></trkpt><trkpt lat="46.1536607" lon="10.3289864"><ele>1106.7142857142858</ele><time>2026-04-10T14:29:33.416Z</time></trkpt><trkpt lat="46.1537126" lon="10.3290415"><ele>1108.857142857143</ele><time>2026-04-10T14:29:36.417Z</time></trkpt><trkpt lat="46.153778" lon="10.3291158"><ele>1111.0</ele><time>2026-04-10T14:29:40.417Z</time></trkpt><trkpt lat="46.1538411" lon="10.3291812"><ele>1112.2857142857142</ele><time>2026-04-10T14:29:44.418Z</time></trkpt><trkpt lat="46.1539109" lon="10.3292348"><ele>1113.5714285714287</ele><time>2026-04-10T14:29:48.416Z</time></trkpt><trkpt lat="46.1539723" lon="10.3292584"><ele>1114.857142857143</ele><time>2026-04-10T14:29:51.418Z</time></trkpt><trkpt lat="46.1540373" lon="10.3292712"><ele>1116.142857142857</ele><time>2026-04-10T14:29:54.418Z</time></trkpt><trkpt lat="46.1541041" lon="10.3292725"><ele>1117.4285714285716</ele><time>2026-04-10T14:29:57.418Z</time></trkpt><trkpt lat="46.1541619" lon="10.3292364"><ele>1118.7142857142858</ele><time>2026-04-10T14:30:00.417Z</time></trkpt><trkpt lat="46.1542157" lon="10.3291869"><ele>1120.0</ele><time>2026-04-10T14:30:03.416Z</time></trkpt><trkpt lat="46.1542753" lon="10.3291119"><ele>1122.0</ele><time>2026-04-10T14:30:07.417Z</time></trkpt><trkpt lat="46.1543378" lon="10.3290488"><ele>1124.0</ele><time>2026-04-10T14:30:11.418Z</time></trkpt><trkpt lat="46.1544023" lon="10.3290366"><ele>1126.0</ele><time>2026-04-10T14:30:14.417Z</time></trkpt><trkpt lat="46.1544668" lon="10.3290335"><ele>1128.0</ele><time>2026-04-10T14:30:17.417Z</time></trkpt><trkpt lat="46.1545368" lon="10.3290562"><ele>1130.0</ele><time>2026-04-10T14:30:20.416Z</time></trkpt><trkpt lat="46.1546028" lon="10.32909"><ele>1132.0</ele><time>2026-04-10T14:30:23.418Z</time></trkpt><trkpt lat="46.1546658" lon="10.3291168"><ele>1134.0</ele><time>2026-04-10T14:30:26.416Z</time></trkpt><trkpt lat="46.1547258" lon="10.3291471"><ele>1134.0</ele><time>2026-04-10T14:30:29.417Z</time></trkpt><trkpt lat="46.1547879" lon="10.3291809"><ele>1134.0</ele><time>2026-04-10T14:30:32.417Z</time></trkpt><trkpt lat="46.1548593" lon="10.3292272"><ele>1134.0</ele><time>2026-04-10T14:30:36.418Z</time></trkpt><trkpt lat="46.1549237" lon="10.3292751"><ele>1134.0</ele><time>2026-04-10T14:30:39.416Z</time></trkpt><trkpt lat="46.1549826" lon="10.3293293"><ele>1134.0</ele><time>2026-04-10T14:30:42.417Z</time></trkpt><trkpt lat="46.1550369" lon="10.3293889"><ele>1134.0</ele><time>2026-04-10T14:30:45.416Z</time></trkpt><trkpt lat="46.1550952" lon="10.3294528"><ele>1134.0</ele><time>2026-04-10T14:30:48.418Z</time></trkpt><trkpt lat="46.1551467" lon="10.3295119"><ele>1135.5</ele><time>2026-04-10T14:30:51.418Z</time></trkpt><trkpt lat="46.1552071" lon="10.3295821"><ele>1137.0</ele><time>2026-04-10T14:30:54.418Z</time></trkpt><trkpt lat="46.1552726" lon="10.3296456"><ele>1138.5</ele><time>2026-04-10T14:30:57.417Z</time></trkpt><trkpt lat="46.1553263" lon="10.3297067"><ele>1140.0</ele><time>2026-04-10T14:31:00.417Z</time></trkpt><trkpt lat="46.1553954" lon="10.3297882"><ele>1141.5</ele><time>2026-04-10T14:31:03.417Z</time></trkpt><trkpt lat="46.1554576" lon="10.3298567"><ele>1143.0</ele><time>2026-04-10T14:31:06.417Z</time></trkpt><trkpt lat="46.1555126" lon="10.3299211"><ele>1144.142857142857</ele><time>2026-04-10T14:31:09.417Z</time></trkpt><trkpt lat="46.1555711" lon="10.3299812"><ele>1145.2857142857142</ele><time>2026-04-10T14:31:12.416Z</time></trkpt><trkpt lat="46.1556333" lon="10.3300339"><ele>1146.4285714285713</ele><time>2026-04-10T14:31:15.418Z</time></trkpt><trkpt lat="46.155688" lon="10.3300997"><ele>1147.5714285714284</ele><time>2026-04-10T14:31:18.416Z</time></trkpt><trkpt lat="46.1557458" lon="10.3301461"><ele>1148.7142857142858</ele><time>2026-04-10T14:31:21.416Z</time></trkpt><trkpt lat="46.1558115" lon="10.3302005"><ele>1149.8571428571427</ele><time>2026-04-10T14:31:24.418Z</time></trkpt><trkpt lat="46.1558713" lon="10.3302621"><ele>1151.0</ele><time>2026-04-10T14:31:27.418Z</time></trkpt><trkpt lat="46.1559346" lon="10.3303163"><ele>1152.5</ele><time>2026-04-10T14:31:30.417Z</time></trkpt><trkpt lat="46.1560061" lon="10.3303734"><ele>1154.0</ele><time>2026-04-10T14:31:33.418Z</time></trkpt><trkpt lat="46.1560799" lon="10.3304404"><ele>1155.5</ele><time>2026-04-10T14:31:36.416Z</time></trkpt><trkpt lat="46.1561514" lon="10.3305032"><ele>1157.0</ele><time>2026-04-10T14:31:39.416Z</time></trkpt><trkpt lat="46.1562181" lon="10.3305633"><ele>1158.5</ele><time>2026-04-10T14:31:42.417Z</time></trkpt><trkpt lat="46.1562866" lon="10.3306209"><ele>1160.0</ele><time>2026-04-10T14:31:45.418Z</time></trkpt><trkpt lat="46.1563495" lon="10.3306754"><ele>1160.0</ele><time>2026-04-10T14:31:48.416Z</time></trkpt><trkpt lat="46.1564095" lon="10.3307309"><ele>1160.0</ele><time>2026-04-10T14:31:51.416Z</time></trkpt><trkpt lat="46.1564805" lon="10.3307891"><ele>1160.0</ele><time>2026-04-10T14:31:54.417Z</time></trkpt><trkpt lat="46.15655" lon="10.3308519"><ele>1160.0</ele><time>2026-04-10T14:31:57.418Z</time></trkpt><trkpt lat="46.1566188" lon="10.3309111"><ele>1160.0</ele><time>2026-04-10T14:32:00.417Z</time></trkpt><trkpt lat="46.1566922" lon="10.3309784"><ele>1160.0</ele><time>2026-04-10T14:32:03.417Z</time></trkpt><trkpt lat="46.1567446" lon="10.3310297"><ele>1160.5714285714287</ele><time>2026-04-10T14:32:05.417Z</time></trkpt><trkpt lat="46.1567988" lon="10.3310831"><ele>1161.1428571428573</ele><time>2026-04-10T14:32:07.416Z</time></trkpt><trkpt lat="46.1568758" lon="10.3311579"><ele>1161.7142857142858</ele><time>2026-04-10T14:32:10.416Z</time></trkpt><trkpt lat="46.1569308" lon="10.3312129"><ele>1162.2857142857142</ele><time>2026-04-10T14:32:12.417Z</time></trkpt><trkpt lat="46.1569886" lon="10.3312698"><ele>1162.8571428571427</ele><time>2026-04-10T14:32:14.417Z</time></trkpt><trkpt lat="46.1570454" lon="10.3313245"><ele>1163.4285714285713</ele><time>2026-04-10T14:32:16.416Z</time></trkpt><trkpt lat="46.1571003" lon="10.3313791"><ele>1164.0</ele><time>2026-04-10T14:32:18.417Z</time></trkpt><trkpt lat="46.1571588" lon="10.3314313"><ele>1163.857142857143</ele><time>2026-04-10T14:32:20.417Z</time></trkpt><trkpt lat="46.1572171" lon="10.3314873"><ele>1163.7142857142856</ele><time>2026-04-10T14:32:22.416Z</time></trkpt><trkpt lat="46.1572783" lon="10.3315325"><ele>1163.5714285714284</ele><time>2026-04-10T14:32:24.418Z</time></trkpt><trkpt lat="46.1573387" lon="10.3315766"><ele>1163.4285714285713</ele><time>2026-04-10T14:32:26.418Z</time></trkpt><trkpt lat="46.1573963" lon="10.3316215"><ele>1163.2857142857142</ele><time>2026-04-10T14:32:28.417Z</time></trkpt><trkpt lat="46.1574555" lon="10.3316611"><ele>1163.142857142857</ele><time>2026-04-10T14:32:30.418Z</time></trkpt><trkpt lat="46.1575171" lon="10.3317033"><ele>1163.0</ele><time>2026-04-10T14:32:32.416Z</time></trkpt><trkpt lat="46.1575784" lon="10.3317514"><ele>1163.0</ele><time>2026-04-10T14:32:34.416Z</time></trkpt><trkpt lat="46.157641" lon="10.3317947"><ele>1163.0</ele><time>2026-04-10T14:32:36.418Z</time></trkpt><trkpt lat="46.157704" lon="10.3318406"><ele>1163.0</ele><time>2026-04-10T14:32:38.417Z</time></trkpt><trkpt lat="46.1577684" lon="10.3318743"><ele>1163.0</ele><time>2026-04-10T14:32:40.418Z</time></trkpt><trkpt lat="46.1578313" lon="10.3319145"><ele>1163.0</ele><time>2026-04-10T14:32:42.417Z</time></trkpt><trkpt lat="46.1578952" lon="10.3319526"><ele>1163.0</ele><time>2026-04-10T14:32:44.418Z</time></trkpt><trkpt lat="46.1579569" lon="10.3319955"><ele>1163.0</ele><time>2026-04-10T14:32:46.417Z</time></trkpt><trkpt lat="46.15802" lon="10.3320317"><ele>1163.0</ele><time>2026-04-10T14:32:48.417Z</time></trkpt><trkpt lat="46.1580734" lon="10.3320872"><ele>1163.0</ele><time>2026-04-10T14:32:50.417Z</time></trkpt><trkpt lat="46.1581225" lon="10.3321514"><ele>1163.0</ele><time>2026-04-10T14:32:52.418Z</time></trkpt><trkpt lat="46.1581634" lon="10.3322311"><ele>1163.0</ele><time>2026-04-10T14:32:54.417Z</time></trkpt><trkpt lat="46.1581965" lon="10.332316"><ele>1163.0</ele><time>2026-04-10T14:32:56.416Z</time></trkpt><trkpt lat="46.1582278" lon="10.3323959"><ele>1163.0</ele><time>2026-04-10T14:32:58.417Z</time></trkpt><trkpt lat="46.1582875" lon="10.3324982"><ele>1163.0</ele><time>2026-04-10T14:33:01.417Z</time></trkpt><trkpt lat="46.1583607" lon="10.332576"><ele>1162.2857142857142</ele><time>2026-04-10T14:33:04.418Z</time></trkpt><trkpt lat="46.1584195" lon="10.3326158"><ele>1161.5714285714284</ele><time>2026-04-10T14:33:06.418Z</time></trkpt><trkpt lat="46.1584783" lon="10.3326556"><ele>1160.8571428571427</ele><time>2026-04-10T14:33:08.417Z</time></trkpt><trkpt lat="46.158539" lon="10.3326922"><ele>1160.142857142857</ele><time>2026-04-10T14:33:10.417Z</time></trkpt><trkpt lat="46.1586026" lon="10.3327246"><ele>1159.4285714285713</ele><time>2026-04-10T14:33:12.417Z</time></trkpt><trkpt lat="46.1586678" lon="10.3327534"><ele>1158.7142857142856</ele><time>2026-04-10T14:33:14.417Z</time></trkpt><trkpt lat="46.1587304" lon="10.3327882"><ele>1158.0</ele><time>2026-04-10T14:33:16.417Z</time></trkpt><trkpt lat="46.158817" lon="10.3328405"><ele>1158.0</ele><time>2026-04-10T14:33:19.418Z</time></trkpt><trkpt lat="46.1589036" lon="10.3328778"><ele>1158.0</ele><time>2026-04-10T14:33:22.417Z</time></trkpt><trkpt lat="46.158982" lon="10.3329173"><ele>1158.0</ele><time>2026-04-10T14:33:25.417Z</time></trkpt><trkpt lat="46.15906" lon="10.3329553"><ele>1158.0</ele><time>2026-04-10T14:33:28.418Z</time></trkpt><trkpt lat="46.1591358" lon="10.3329902"><ele>1158.0</ele><time>2026-04-10T14:33:31.417Z</time></trkpt><trkpt lat="46.1592109" lon="10.3330195"><ele>1158.0</ele><time>2026-04-10T14:33:34.416Z</time></trkpt><trkpt lat="46.1592722" lon="10.3330552"><ele>1159.3333333333333</ele><time>2026-04-10T14:33:36.416Z</time></trkpt><trkpt lat="46.1593379" lon="10.3330878"><ele>1160.6666666666667</ele><time>2026-04-10T14:33:38.417Z</time></trkpt><trkpt lat="46.1594195" lon="10.3331269"><ele>1162.0</ele><time>2026-04-10T14:33:41.417Z</time></trkpt><trkpt lat="46.1595029" lon="10.3331695"><ele>1163.3333333333335</ele><time>2026-04-10T14:33:44.417Z</time></trkpt><trkpt lat="46.159587" lon="10.3332096"><ele>1164.6666666666667</ele><time>2026-04-10T14:33:47.417Z</time></trkpt><trkpt lat="46.1596678" lon="10.3332503"><ele>1166.0</ele><time>2026-04-10T14:33:50.418Z</time></trkpt><trkpt lat="46.1597504" lon="10.3332879"><ele>1166.0</ele><time>2026-04-10T14:33:53.416Z</time></trkpt><trkpt lat="46.1598336" lon="10.3333353"><ele>1166.0</ele><time>2026-04-10T14:33:56.416Z</time></trkpt><trkpt lat="46.1599149" lon="10.333385"><ele>1166.0</ele><time>2026-04-10T14:33:59.418Z</time></trkpt><trkpt lat="46.1599979" lon="10.3334312"><ele>1166.0</ele><time>2026-04-10T14:34:02.418Z</time></trkpt><trkpt lat="46.1600651" lon="10.3334835"><ele>1166.0</ele><time>2026-04-10T14:34:05.418Z</time></trkpt><trkpt lat="46.1601349" lon="10.3335329"><ele>1166.0</ele><time>2026-04-10T14:34:08.417Z</time></trkpt><trkpt lat="46.1602114" lon="10.3335763"><ele>1167.857142857143</ele><time>2026-04-10T14:34:11.417Z</time></trkpt><trkpt lat="46.1602789" lon="10.3336247"><ele>1169.7142857142858</ele><time>2026-04-10T14:34:14.417Z</time></trkpt><trkpt lat="46.1603528" lon="10.3336782"><ele>1171.5714285714284</ele><time>2026-04-10T14:34:17.416Z</time></trkpt><trkpt lat="46.1604126" lon="10.3337067"><ele>1173.4285714285716</ele><time>2026-04-10T14:34:20.418Z</time></trkpt><trkpt lat="46.1604818" lon="10.333758"><ele>1175.2857142857142</ele><time>2026-04-10T14:34:23.417Z</time></trkpt><trkpt lat="46.1605467" lon="10.333801"><ele>1177.142857142857</ele><time>2026-04-10T14:34:26.417Z</time></trkpt><trkpt lat="46.1606159" lon="10.333842"><ele>1179.0</ele><time>2026-04-10T14:34:29.417Z</time></trkpt><trkpt lat="46.1606848" lon="10.3338867"><ele>1179.3333333333333</ele><time>2026-04-10T14:34:32.417Z</time></trkpt><trkpt lat="46.1607607" lon="10.3339416"><ele>1179.6666666666667</ele><time>2026-04-10T14:34:35.417Z</time></trkpt><trkpt lat="46.1608308" lon="10.3339776"><ele>1180.0</ele><time>2026-04-10T14:34:38.416Z</time></trkpt><trkpt lat="46.1609108" lon="10.3340007"><ele>1180.3333333333335</ele><time>2026-04-10T14:34:41.417Z</time></trkpt><trkpt lat="46.1609868" lon="10.3340074"><ele>1180.6666666666667</ele><time>2026-04-10T14:34:44.417Z</time></trkpt><trkpt lat="46.1610749" lon="10.3339845"><ele>1181.0</ele><time>2026-04-10T14:34:47.418Z</time></trkpt><trkpt lat="46.1611386" lon="10.3339598"><ele>1181.0</ele><time>2026-04-10T14:34:49.418Z</time></trkpt><trkpt lat="46.1612288" lon="10.333924"><ele>1181.0</ele><time>2026-04-10T14:34:52.416Z</time></trkpt><trkpt lat="46.1613074" lon="10.3338767"><ele>1181.0</ele><time>2026-04-10T14:34:55.418Z</time></trkpt><trkpt lat="46.1613778" lon="10.3338063"><ele>1181.0</ele><time>2026-04-10T14:34:58.416Z</time></trkpt><trkpt lat="46.1614405" lon="10.3337207"><ele>1181.0</ele><time>2026-04-10T14:35:01.417Z</time></trkpt><trkpt lat="46.161502" lon="10.3336261"><ele>1181.0</ele><time>2026-04-10T14:35:04.417Z</time></trkpt><trkpt lat="46.1615466" lon="10.3335551"><ele>1183.75</ele><time>2026-04-10T14:35:06.417Z</time></trkpt><trkpt lat="46.1616166" lon="10.3334717"><ele>1186.5</ele><time>2026-04-10T14:35:09.416Z</time></trkpt><trkpt lat="46.161683" lon="10.333431"><ele>1189.25</ele><time>2026-04-10T14:35:13.417Z</time></trkpt><trkpt lat="46.1618184" lon="10.3333809"><ele>1192.0</ele><time>2026-04-10T14:40:04.418Z</time></trkpt><trkpt lat="46.162028" lon="10.3333943"><ele>1192.0</ele><time>2026-04-10T14:40:11.419Z</time></trkpt><trkpt lat="46.1621122" lon="10.3334437"><ele>1192.0</ele><time>2026-04-10T14:40:14.417Z</time></trkpt><trkpt lat="46.1621775" lon="10.3334872"><ele>1192.0</ele><time>2026-04-10T14:40:16.419Z</time></trkpt><trkpt lat="46.1622468" lon="10.3335251"><ele>1192.0</ele><time>2026-04-10T14:40:18.418Z</time></trkpt><trkpt lat="46.1623146" lon="10.3335545"><ele>1192.0</ele><time>2026-04-10T14:40:20.418Z</time></trkpt><trkpt lat="46.1623792" lon="10.3335863"><ele>1192.0</ele><time>2026-04-10T14:40:22.418Z</time></trkpt><trkpt lat="46.1624494" lon="10.3336189"><ele>1191.8333333333333</ele><time>2026-04-10T14:40:24.418Z</time></trkpt><trkpt lat="46.1625211" lon="10.3336473"><ele>1191.6666666666665</ele><time>2026-04-10T14:40:26.418Z</time></trkpt><trkpt lat="46.1625945" lon="10.3336582"><ele>1191.5</ele><time>2026-04-10T14:40:28.419Z</time></trkpt><trkpt lat="46.162671" lon="10.333646"><ele>1191.3333333333333</ele><time>2026-04-10T14:40:30.418Z</time></trkpt><trkpt lat="46.1627502" lon="10.3336133"><ele>1191.1666666666667</ele><time>2026-04-10T14:40:32.418Z</time></trkpt><trkpt lat="46.1628295" lon="10.3335758"><ele>1191.0</ele><time>2026-04-10T14:40:34.418Z</time></trkpt><trkpt lat="46.1629061" lon="10.3335332"><ele>1191.0</ele><time>2026-04-10T14:40:36.417Z</time></trkpt><trkpt lat="46.1629772" lon="10.3334905"><ele>1191.0</ele><time>2026-04-10T14:40:38.419Z</time></trkpt><trkpt lat="46.1630488" lon="10.3334507"><ele>1191.0</ele><time>2026-04-10T14:40:40.418Z</time></trkpt><trkpt lat="46.1631197" lon="10.3334137"><ele>1191.0</ele><time>2026-04-10T14:40:42.417Z</time></trkpt><trkpt lat="46.1631984" lon="10.3333837"><ele>1191.0</ele><time>2026-04-10T14:40:44.418Z</time></trkpt><trkpt lat="46.1632908" lon="10.3333637"><ele>1191.0</ele><time>2026-04-10T14:40:46.418Z</time></trkpt><trkpt lat="46.1633891" lon="10.3333499"><ele>1189.2</ele><time>2026-04-10T14:40:48.418Z</time></trkpt><trkpt lat="46.1635064" lon="10.333333"><ele>1187.3999999999999</ele><time>2026-04-10T14:40:50.419Z</time></trkpt><trkpt lat="46.1635951" lon="10.3333154"><ele>1185.6</ele><time>2026-04-10T14:40:52.418Z</time></trkpt><trkpt lat="46.163668" lon="10.3332995"><ele>1183.8</ele><time>2026-04-10T14:40:53.417Z</time></trkpt><trkpt lat="46.1637838" lon="10.3332417"><ele>1182.0</ele><time>2026-04-10T14:40:55.419Z</time></trkpt><trkpt lat="46.1638559" lon="10.3331904"><ele>1185.8</ele><time>2026-04-10T14:40:56.419Z</time></trkpt><trkpt lat="46.1638701" lon="10.3330456"><ele>1189.6</ele><time>2026-04-10T14:40:57.418Z</time></trkpt><trkpt lat="46.1639015" lon="10.332939"><ele>1193.3999999999999</ele><time>2026-04-10T14:40:58.419Z</time></trkpt><trkpt lat="46.1639379" lon="10.3328267"><ele>1197.2</ele><time>2026-04-10T14:40:59.418Z</time></trkpt><trkpt lat="46.1639607" lon="10.3326905"><ele>1201.0</ele><time>2026-04-10T14:41:00.418Z</time></trkpt><trkpt lat="46.1639948" lon="10.3325635"><ele>1195.6</ele><time>2026-04-10T14:41:01.417Z</time></trkpt><trkpt lat="46.164033" lon="10.3324281"><ele>1190.1999999999998</ele><time>2026-04-10T14:41:02.418Z</time></trkpt><trkpt lat="46.1640693" lon="10.3322866"><ele>1184.8000000000002</ele><time>2026-04-10T14:41:03.418Z</time></trkpt><trkpt lat="46.1641066" lon="10.3321353"><ele>1179.4</ele><time>2026-04-10T14:41:04.418Z</time></trkpt><trkpt lat="46.1641436" lon="10.3319815"><ele>1174.0</ele><time>2026-04-10T14:41:05.418Z</time></trkpt><trkpt lat="46.1641849" lon="10.3318239"><ele>1174.0</ele><time>2026-04-10T14:41:06.419Z</time></trkpt><trkpt lat="46.1642221" lon="10.3316606"><ele>1174.0</ele><time>2026-04-10T14:41:07.419Z</time></trkpt><trkpt lat="46.1642558" lon="10.3314942"><ele>1174.0</ele><time>2026-04-10T14:41:08.419Z</time></trkpt><trkpt lat="46.1642799" lon="10.3313179"><ele>1174.0</ele><time>2026-04-10T14:41:09.418Z</time></trkpt><trkpt lat="46.1642904" lon="10.3311346"><ele>1174.75</ele><time>2026-04-10T14:41:10.418Z</time></trkpt><trkpt lat="46.1642904" lon="10.3309558"><ele>1175.5</ele><time>2026-04-10T14:41:11.418Z</time></trkpt><trkpt lat="46.1642969" lon="10.3307725"><ele>1176.25</ele><time>2026-04-10T14:41:12.418Z</time></trkpt><trkpt lat="46.1643243" lon="10.330585"><ele>1177.0</ele><time>2026-04-10T14:41:13.418Z</time></trkpt><trkpt lat="46.1643512" lon="10.3303973"><ele>1178.0</ele><time>2026-04-10T14:41:14.418Z</time></trkpt><trkpt lat="46.1643797" lon="10.3302072"><ele>1179.0</ele><time>2026-04-10T14:41:15.418Z</time></trkpt><trkpt lat="46.1644073" lon="10.3300312"><ele>1180.0</ele><time>2026-04-10T14:41:16.418Z</time></trkpt><trkpt lat="46.1644467" lon="10.3298622"><ele>1181.0</ele><time>2026-04-10T14:41:17.418Z</time></trkpt><trkpt lat="46.1644826" lon="10.3297004"><ele>1181.5</ele><time>2026-04-10T14:41:18.417Z</time></trkpt><trkpt lat="46.1644807" lon="10.3295165"><ele>1182.0</ele><time>2026-04-10T14:41:19.418Z</time></trkpt><trkpt lat="46.1644905" lon="10.329367"><ele>1182.5</ele><time>2026-04-10T14:41:20.417Z</time></trkpt><trkpt lat="46.1644696" lon="10.3291651"><ele>1183.0</ele><time>2026-04-10T14:41:21.418Z</time></trkpt><trkpt lat="46.1644951" lon="10.3289882"><ele>1184.0</ele><time>2026-04-10T14:41:22.418Z</time></trkpt><trkpt lat="46.1645283" lon="10.3287938"><ele>1185.0</ele><time>2026-04-10T14:41:23.419Z</time></trkpt><trkpt lat="46.1645684" lon="10.3286273"><ele>1186.0</ele><time>2026-04-10T14:41:24.418Z</time></trkpt><trkpt lat="46.1646194" lon="10.3284753"><ele>1187.0</ele><time>2026-04-10T14:41:25.418Z</time></trkpt><trkpt lat="46.1646739" lon="10.3283157"><ele>1187.0</ele><time>2026-04-10T14:41:26.417Z</time></trkpt><trkpt lat="46.1647167" lon="10.3281574"><ele>1187.0</ele><time>2026-04-10T14:41:27.419Z</time></trkpt><trkpt lat="46.1647586" lon="10.3280066"><ele>1187.0</ele><time>2026-04-10T14:41:28.418Z</time></trkpt><trkpt lat="46.1647902" lon="10.3278565"><ele>1187.0</ele><time>2026-04-10T14:41:29.419Z</time></trkpt><trkpt lat="46.1647791" lon="10.3276671"><ele>1187.25</ele><time>2026-04-10T14:41:30.419Z</time></trkpt><trkpt lat="46.1648028" lon="10.3274986"><ele>1187.5</ele><time>2026-04-10T14:41:31.418Z</time></trkpt><trkpt lat="46.1648018" lon="10.3273079"><ele>1187.75</ele><time>2026-04-10T14:41:32.419Z</time></trkpt><trkpt lat="46.1648192" lon="10.3271439"><ele>1188.0</ele><time>2026-04-10T14:41:33.418Z</time></trkpt><trkpt lat="46.1648394" lon="10.3269735"><ele>1186.75</ele><time>2026-04-10T14:41:34.418Z</time></trkpt><trkpt lat="46.1648534" lon="10.3268042"><ele>1185.5</ele><time>2026-04-10T14:41:35.418Z</time></trkpt><trkpt lat="46.1648821" lon="10.3266306"><ele>1184.25</ele><time>2026-04-10T14:41:36.418Z</time></trkpt><trkpt lat="46.1649121" lon="10.3264631"><ele>1183.0</ele><time>2026-04-10T14:41:37.417Z</time></trkpt><trkpt lat="46.1649487" lon="10.3262992"><ele>1173.4</ele><time>2026-04-10T14:41:38.418Z</time></trkpt><trkpt lat="46.1649789" lon="10.326133"><ele>1163.8</ele><time>2026-04-10T14:41:39.417Z</time></trkpt><trkpt lat="46.1650096" lon="10.3259879"><ele>1154.2</ele><time>2026-04-10T14:41:40.417Z</time></trkpt><trkpt lat="46.1650355" lon="10.3258504"><ele>1144.6</ele><time>2026-04-10T14:41:41.419Z</time></trkpt><trkpt lat="46.1650259" lon="10.325713"><ele>1135.0</ele><time>2026-04-10T14:41:42.419Z</time></trkpt><trkpt lat="46.1650095" lon="10.3255751"><ele>1133.8333333333333</ele><time>2026-04-10T14:41:43.418Z</time></trkpt><trkpt lat="46.1649832" lon="10.3254675"><ele>1132.6666666666665</ele><time>2026-04-10T14:41:44.418Z</time></trkpt><trkpt lat="46.1649372" lon="10.325337"><ele>1131.5</ele><time>2026-04-10T14:41:45.418Z</time></trkpt><trkpt lat="46.1648808" lon="10.3252611"><ele>1130.3333333333333</ele><time>2026-04-10T14:41:46.419Z</time></trkpt><trkpt lat="46.1648331" lon="10.3251648"><ele>1129.1666666666667</ele><time>2026-04-10T14:41:47.419Z</time></trkpt><trkpt lat="46.1647703" lon="10.3250611"><ele>1128.0</ele><time>2026-04-10T14:41:48.418Z</time></trkpt><trkpt lat="46.1647361" lon="10.3249831"><ele>1125.2</ele><time>2026-04-10T14:41:49.418Z</time></trkpt><trkpt lat="46.1647271" lon="10.324843"><ele>1122.4</ele><time>2026-04-10T14:41:51.417Z</time></trkpt><trkpt lat="46.1647429" lon="10.324694"><ele>1119.6000000000001</ele><time>2026-04-10T14:41:53.417Z</time></trkpt><trkpt lat="46.16484" lon="10.3246267"><ele>1116.8</ele><time>2026-04-10T14:41:55.418Z</time></trkpt><trkpt lat="46.1648741" lon="10.3245493"><ele>1114.0</ele><time>2026-04-10T14:41:58.419Z</time></trkpt><trkpt lat="46.1647974" lon="10.3245767"><ele>1119.3333333333333</ele><time>2026-04-10T14:42:08.418Z</time></trkpt><trkpt lat="46.1647326" lon="10.3245951"><ele>1124.6666666666665</ele><time>2026-04-10T14:42:10.418Z</time></trkpt><trkpt lat="46.1646691" lon="10.3246179"><ele>1130.0</ele><time>2026-04-10T14:42:12.418Z</time></trkpt><trkpt lat="46.1645308" lon="10.3245967"><ele>1135.3333333333333</ele><time>2026-04-10T14:42:16.417Z</time></trkpt><trkpt lat="46.1644974" lon="10.3245173"><ele>1140.6666666666667</ele><time>2026-04-10T14:42:21.418Z</time></trkpt><trkpt lat="46.1644543" lon="10.3244495"><ele>1146.0</ele><time>2026-04-10T14:42:26.418Z</time></trkpt><trkpt lat="46.1644068" lon="10.3243679"><ele>1146.0</ele><time>2026-04-10T14:42:30.419Z</time></trkpt><trkpt lat="46.1643521" lon="10.3242979"><ele>1146.0</ele><time>2026-04-10T14:42:34.417Z</time></trkpt><trkpt lat="46.1642987" lon="10.3242145"><ele>1146.0</ele><time>2026-04-10T14:42:38.417Z</time></trkpt><trkpt lat="46.1642442" lon="10.3241199"><ele>1146.0</ele><time>2026-04-10T14:42:41.418Z</time></trkpt><trkpt lat="46.1642016" lon="10.3240187"><ele>1146.0</ele><time>2026-04-10T14:42:44.418Z</time></trkpt><trkpt lat="46.1641674" lon="10.3239248"><ele>1146.0</ele><time>2026-04-10T14:42:47.418Z</time></trkpt><trkpt lat="46.1641372" lon="10.3238358"><ele>1143.6666666666667</ele><time>2026-04-10T14:42:51.417Z</time></trkpt><trkpt lat="46.1640973" lon="10.3237305"><ele>1141.3333333333333</ele><time>2026-04-10T14:42:56.417Z</time></trkpt><trkpt lat="46.1640652" lon="10.3236248"><ele>1139.0</ele><time>2026-04-10T14:43:00.417Z</time></trkpt><trkpt lat="46.1640305" lon="10.3235312"><ele>1136.6666666666665</ele><time>2026-04-10T14:43:03.418Z</time></trkpt><trkpt lat="46.1639655" lon="10.3234941"><ele>1134.3333333333333</ele><time>2026-04-10T14:43:07.417Z</time></trkpt><trkpt lat="46.1639026" lon="10.3234185"><ele>1132.0</ele><time>2026-04-10T14:43:11.418Z</time></trkpt><trkpt lat="46.1638735" lon="10.3233247"><ele>1134.6666666666665</ele><time>2026-04-10T14:43:14.419Z</time></trkpt><trkpt lat="46.1638058" lon="10.3232428"><ele>1137.3333333333333</ele><time>2026-04-10T14:43:18.417Z</time></trkpt><trkpt lat="46.1637432" lon="10.3231816"><ele>1140.0</ele><time>2026-04-10T14:43:23.417Z</time></trkpt><trkpt lat="46.1636826" lon="10.3231111"><ele>1142.6666666666667</ele><time>2026-04-10T14:43:28.418Z</time></trkpt><trkpt lat="46.1636053" lon="10.3230583"><ele>1145.3333333333335</ele><time>2026-04-10T14:43:32.418Z</time></trkpt><trkpt lat="46.1635295" lon="10.3230242"><ele>1148.0</ele><time>2026-04-10T14:43:35.417Z</time></trkpt><trkpt lat="46.1634649" lon="10.3229711"><ele>1148.0</ele><time>2026-04-10T14:43:38.418Z</time></trkpt><trkpt lat="46.1634127" lon="10.3229041"><ele>1148.0</ele><time>2026-04-10T14:43:44.418Z</time></trkpt><trkpt lat="46.1633539" lon="10.3228694"><ele>1148.0</ele><time>2026-04-10T14:43:49.419Z</time></trkpt><trkpt lat="46.1632923" lon="10.3227917"><ele>1148.0</ele><time>2026-04-10T14:43:54.418Z</time></trkpt><trkpt lat="46.1632277" lon="10.3227468"><ele>1148.0</ele><time>2026-04-10T14:43:58.418Z</time></trkpt><trkpt lat="46.1631708" lon="10.3226743"><ele>1148.0</ele><time>2026-04-10T14:44:02.419Z</time></trkpt><trkpt lat="46.1631137" lon="10.3226147"><ele>1148.0</ele><time>2026-04-10T14:44:05.417Z</time></trkpt><trkpt lat="46.1630587" lon="10.3225515"><ele>1149.4285714285713</ele><time>2026-04-10T14:44:10.418Z</time></trkpt><trkpt lat="46.1630139" lon="10.3224815"><ele>1150.857142857143</ele><time>2026-04-10T14:44:13.417Z</time></trkpt><trkpt lat="46.1629583" lon="10.3223975"><ele>1152.2857142857142</ele><time>2026-04-10T14:44:17.418Z</time></trkpt><trkpt lat="46.1629049" lon="10.322339"><ele>1153.7142857142858</ele><time>2026-04-10T14:44:21.418Z</time></trkpt><trkpt lat="46.1628553" lon="10.3222495"><ele>1155.142857142857</ele><time>2026-04-10T14:44:26.418Z</time></trkpt><trkpt lat="46.1628079" lon="10.3221876"><ele>1156.5714285714284</ele><time>2026-04-10T14:44:30.418Z</time></trkpt><trkpt lat="46.1627432" lon="10.3221557"><ele>1158.0</ele><time>2026-04-10T14:44:35.418Z</time></trkpt><trkpt lat="46.1626983" lon="10.3220768"><ele>1158.0</ele><time>2026-04-10T14:44:40.417Z</time></trkpt><trkpt lat="46.1626442" lon="10.322018"><ele>1158.0</ele><time>2026-04-10T14:44:44.417Z</time></trkpt><trkpt lat="46.1625724" lon="10.3219894"><ele>1158.0</ele><time>2026-04-10T14:44:49.418Z</time></trkpt><trkpt lat="46.1624936" lon="10.3219571"><ele>1158.0</ele><time>2026-04-10T14:44:53.418Z</time></trkpt><trkpt lat="46.1624307" lon="10.3219133"><ele>1158.0</ele><time>2026-04-10T14:44:57.418Z</time></trkpt><trkpt lat="46.1623691" lon="10.3218707"><ele>1158.0</ele><time>2026-04-10T14:45:01.417Z</time></trkpt><trkpt lat="46.1623018" lon="10.3217885"><ele>1162.0</ele><time>2026-04-10T14:45:05.418Z</time></trkpt><trkpt lat="46.1622402" lon="10.32172"><ele>1166.0</ele><time>2026-04-10T14:45:08.418Z</time></trkpt><trkpt lat="46.1621817" lon="10.32166"><ele>1170.0</ele><time>2026-04-10T14:45:12.417Z</time></trkpt><trkpt lat="46.1621249" lon="10.3215564"><ele>1174.0</ele><time>2026-04-10T14:45:15.419Z</time></trkpt><trkpt lat="46.1620703" lon="10.3214782"><ele>1178.0</ele><time>2026-04-10T14:45:21.418Z</time></trkpt><trkpt lat="46.1620219" lon="10.3214062"><ele>1182.0</ele><time>2026-04-10T14:45:24.419Z</time></trkpt><trkpt lat="46.161977" lon="10.3213363"><ele>1182.0</ele><time>2026-04-10T14:45:28.42Z</time></trkpt><trkpt lat="46.1619166" lon="10.3213025"><ele>1182.0</ele><time>2026-04-10T14:45:30.42Z</time></trkpt><trkpt lat="46.1618563" lon="10.3212691"><ele>1182.0</ele><time>2026-04-10T14:45:32.42Z</time></trkpt><trkpt lat="46.1617424" lon="10.3212119"><ele>1182.0</ele><time>2026-04-10T14:45:37.418Z</time></trkpt><trkpt lat="46.1616913" lon="10.3211484"><ele>1182.0</ele><time>2026-04-10T14:45:40.419Z</time></trkpt><trkpt lat="46.1616523" lon="10.3210392"><ele>1182.0</ele><time>2026-04-10T14:45:44.418Z</time></trkpt><trkpt lat="46.1616145" lon="10.3209402"><ele>1182.0</ele><time>2026-04-10T14:45:48.418Z</time></trkpt><trkpt lat="46.1615944" lon="10.3208368"><ele>1182.0</ele><time>2026-04-10T14:45:51.42Z</time></trkpt><trkpt lat="46.1615598" lon="10.3207115"><ele>1182.0</ele><time>2026-04-10T14:45:54.418Z</time></trkpt><trkpt lat="46.1615403" lon="10.3206066"><ele>1182.0</ele><time>2026-04-10T14:45:57.419Z</time></trkpt><trkpt lat="46.1615544" lon="10.3205121"><ele>1182.0</ele><time>2026-04-10T14:45:59.419Z</time></trkpt><trkpt lat="46.1615746" lon="10.3203829"><ele>1182.0</ele><time>2026-04-10T14:46:02.42Z</time></trkpt><trkpt lat="46.1615966" lon="10.320283"><ele>1179.8333333333333</ele><time>2026-04-10T14:46:04.42Z</time></trkpt><trkpt lat="46.1616182" lon="10.3201756"><ele>1177.6666666666667</ele><time>2026-04-10T14:46:06.418Z</time></trkpt><trkpt lat="46.1616382" lon="10.3200868"><ele>1175.5</ele><time>2026-04-10T14:46:08.418Z</time></trkpt><trkpt lat="46.1616111" lon="10.3199854"><ele>1173.3333333333335</ele><time>2026-04-10T14:47:47.42Z</time></trkpt><trkpt lat="46.1615848" lon="10.3198691"><ele>1171.1666666666667</ele><time>2026-04-10T14:47:50.419Z</time></trkpt><trkpt lat="46.1615237" lon="10.3197705"><ele>1169.0</ele><time>2026-04-10T14:47:53.42Z</time></trkpt><trkpt lat="46.1614808" lon="10.3197027"><ele>1174.1666666666667</ele><time>2026-04-10T14:47:55.42Z</time></trkpt><trkpt lat="46.1614506" lon="10.3196137"><ele>1179.3333333333335</ele><time>2026-04-10T14:47:57.42Z</time></trkpt><trkpt lat="46.1614269" lon="10.3195172"><ele>1184.5</ele><time>2026-04-10T14:47:59.419Z</time></trkpt><trkpt lat="46.1614059" lon="10.3194167"><ele>1189.6666666666667</ele><time>2026-04-10T14:48:01.419Z</time></trkpt><trkpt lat="46.1613743" lon="10.319329"><ele>1194.8333333333333</ele><time>2026-04-10T14:48:03.418Z</time></trkpt><trkpt lat="46.1613099" lon="10.3192377"><ele>1200.0</ele><time>2026-04-10T14:48:06.419Z</time></trkpt><trkpt lat="46.1612314" lon="10.3191655"><ele>1200.0</ele><time>2026-04-10T14:48:09.419Z</time></trkpt><trkpt lat="46.1611782" lon="10.3191045"><ele>1200.0</ele><time>2026-04-10T14:48:11.418Z</time></trkpt><trkpt lat="46.1611232" lon="10.319005"><ele>1200.0</ele><time>2026-04-10T14:48:14.419Z</time></trkpt><trkpt lat="46.1610836" lon="10.3189038"><ele>1200.0</ele><time>2026-04-10T14:48:17.419Z</time></trkpt><trkpt lat="46.1610478" lon="10.3187948"><ele>1200.0</ele><time>2026-04-10T14:48:20.418Z</time></trkpt><trkpt lat="46.1610172" lon="10.3186993"><ele>1200.0</ele><time>2026-04-10T14:48:24.419Z</time></trkpt><trkpt lat="46.1609906" lon="10.3186005"><ele>1199.6</ele><time>2026-04-10T14:48:51.419Z</time></trkpt><trkpt lat="46.160972" lon="10.3184942"><ele>1199.2</ele><time>2026-04-10T14:48:53.419Z</time></trkpt><trkpt lat="46.1609569" lon="10.3183714"><ele>1198.8</ele><time>2026-04-10T14:48:55.419Z</time></trkpt><trkpt lat="46.160963" lon="10.3182303"><ele>1198.4</ele><time>2026-04-10T14:48:57.42Z</time></trkpt><trkpt lat="46.1609953" lon="10.3180872"><ele>1198.0</ele><time>2026-04-10T14:48:59.419Z</time></trkpt><trkpt lat="46.1610509" lon="10.3179359"><ele>1198.0</ele><time>2026-04-10T14:49:01.419Z</time></trkpt><trkpt lat="46.1610957" lon="10.3177755"><ele>1198.0</ele><time>2026-04-10T14:49:03.419Z</time></trkpt><trkpt lat="46.1611521" lon="10.3176334"><ele>1198.0</ele><time>2026-04-10T14:49:05.418Z</time></trkpt><trkpt lat="46.1611608" lon="10.3174725"><ele>1198.0</ele><time>2026-04-10T14:49:07.419Z</time></trkpt><trkpt lat="46.1611848" lon="10.3173492"><ele>1198.0</ele><time>2026-04-10T14:49:09.419Z</time></trkpt><trkpt lat="46.161184" lon="10.3172366"><ele>1198.25</ele><time>2026-04-10T14:49:36.419Z</time></trkpt><trkpt lat="46.1612494" lon="10.3170873"><ele>1198.5</ele><time>2026-04-10T14:49:39.419Z</time></trkpt><trkpt lat="46.1612752" lon="10.3169139"><ele>1198.75</ele><time>2026-04-10T14:49:41.419Z</time></trkpt><trkpt lat="46.1613287" lon="10.3167704"><ele>1199.0</ele><time>2026-04-10T14:49:43.42Z</time></trkpt><trkpt lat="46.1613894" lon="10.3166449"><ele>1199.0</ele><time>2026-04-10T14:49:45.418Z</time></trkpt><trkpt lat="46.16146" lon="10.3165735"><ele>1199.0</ele><time>2026-04-10T14:49:48.419Z</time></trkpt><trkpt lat="46.1614483" lon="10.3164559"><ele>1199.0</ele><time>2026-04-10T14:49:52.42Z</time></trkpt><trkpt lat="46.1614848" lon="10.3163761"><ele>1199.0</ele><time>2026-04-10T14:49:55.419Z</time></trkpt><trkpt lat="46.1615271" lon="10.3163014"><ele>1199.0</ele><time>2026-04-10T14:49:58.42Z</time></trkpt><trkpt lat="46.1615587" lon="10.3162043"><ele>1199.0</ele><time>2026-04-10T14:50:00.419Z</time></trkpt><trkpt lat="46.1616037" lon="10.3160929"><ele>1196.7142857142858</ele><time>2026-04-10T14:50:03.418Z</time></trkpt><trkpt lat="46.161637" lon="10.3159908"><ele>1194.4285714285713</ele><time>2026-04-10T14:50:06.419Z</time></trkpt><trkpt lat="46.161653" lon="10.3158965"><ele>1192.142857142857</ele><time>2026-04-10T14:50:09.419Z</time></trkpt><trkpt lat="46.1616875" lon="10.3158202"><ele>1189.857142857143</ele><time>2026-04-10T14:50:12.419Z</time></trkpt><trkpt lat="46.1617334" lon="10.3157267"><ele>1187.5714285714284</ele><time>2026-04-10T14:50:49.419Z</time></trkpt><trkpt lat="46.1617783" lon="10.3156499"><ele>1185.2857142857142</ele><time>2026-04-10T14:50:52.419Z</time></trkpt><trkpt lat="46.1618149" lon="10.315564"><ele>1183.0</ele><time>2026-04-10T14:50:55.42Z</time></trkpt><trkpt lat="46.1618901" lon="10.3154279"><ele>1183.0</ele><time>2026-04-10T14:50:58.42Z</time></trkpt><trkpt lat="46.1619348" lon="10.3153605"><ele>1183.0</ele><time>2026-04-10T14:51:01.419Z</time></trkpt><trkpt lat="46.1619698" lon="10.3152574"><ele>1183.0</ele><time>2026-04-10T14:51:12.419Z</time></trkpt><trkpt lat="46.1619741" lon="10.3151615"><ele>1183.0</ele><time>2026-04-10T14:51:15.419Z</time></trkpt><trkpt lat="46.161996" lon="10.3150631"><ele>1183.0</ele><time>2026-04-10T14:51:19.418Z</time></trkpt><trkpt lat="46.1620216" lon="10.3149379"><ele>1183.0</ele><time>2026-04-10T14:51:22.418Z</time></trkpt><trkpt lat="46.1620464" lon="10.3148394"><ele>1183.0</ele><time>2026-04-10T14:51:29.418Z</time></trkpt><trkpt lat="46.1620711" lon="10.3147427"><ele>1182.1666666666665</ele><time>2026-04-10T14:51:32.418Z</time></trkpt><trkpt lat="46.1620769" lon="10.3146456"><ele>1181.3333333333333</ele><time>2026-04-10T14:51:34.42Z</time></trkpt><trkpt lat="46.1620768" lon="10.3145412"><ele>1180.5</ele><time>2026-04-10T14:51:36.419Z</time></trkpt><trkpt lat="46.1620955" lon="10.3144132"><ele>1179.6666666666667</ele><time>2026-04-10T14:51:38.419Z</time></trkpt><trkpt lat="46.1621245" lon="10.3142941"><ele>1178.8333333333335</ele><time>2026-04-10T14:51:41.419Z</time></trkpt><trkpt lat="46.1621534" lon="10.314212"><ele>1178.0</ele><time>2026-04-10T14:51:43.418Z</time></trkpt><trkpt lat="46.1621959" lon="10.3141145"><ele>1178.0</ele><time>2026-04-10T14:51:45.42Z</time></trkpt><trkpt lat="46.162246" lon="10.314015"><ele>1178.0</ele><time>2026-04-10T14:51:47.42Z</time></trkpt><trkpt lat="46.1623107" lon="10.313922"><ele>1178.0</ele><time>2026-04-10T14:52:11.419Z</time></trkpt><trkpt lat="46.1623886" lon="10.3138671"><ele>1178.0</ele><time>2026-04-10T14:52:25.418Z</time></trkpt><trkpt lat="46.1624606" lon="10.3137817"><ele>1178.0</ele><time>2026-04-10T14:52:28.419Z</time></trkpt><trkpt lat="46.1625323" lon="10.3136781"><ele>1172.6</ele><time>2026-04-10T14:52:30.418Z</time></trkpt><trkpt lat="46.1625847" lon="10.3135877"><ele>1167.1999999999998</ele><time>2026-04-10T14:52:32.419Z</time></trkpt><trkpt lat="46.1626532" lon="10.3135598"><ele>1161.8</ele><time>2026-04-10T14:52:46.42Z</time></trkpt><trkpt lat="46.1627342" lon="10.3134553"><ele>1156.3999999999999</ele><time>2026-04-10T14:52:50.42Z</time></trkpt><trkpt lat="46.1627818" lon="10.3133277"><ele>1151.0</ele><time>2026-04-10T14:52:52.42Z</time></trkpt><trkpt lat="46.1627963" lon="10.313201"><ele>1151.0</ele><time>2026-04-10T14:52:53.421Z</time></trkpt><trkpt lat="46.1628184" lon="10.3131052"><ele>1151.0</ele><time>2026-04-10T14:52:54.419Z</time></trkpt><trkpt lat="46.1628285" lon="10.3129946"><ele>1151.0</ele><time>2026-04-10T14:52:55.419Z</time></trkpt><trkpt lat="46.1628467" lon="10.3129027"><ele>1151.0</ele><time>2026-04-10T14:52:56.419Z</time></trkpt><trkpt lat="46.162903" lon="10.3128016"><ele>1151.0</ele><time>2026-04-10T14:52:57.42Z</time></trkpt><trkpt lat="46.1629435" lon="10.3126987"><ele>1151.0</ele><time>2026-04-10T14:52:58.42Z</time></trkpt><trkpt lat="46.1629788" lon="10.3125937"><ele>1150.5</ele><time>2026-04-10T14:52:59.419Z</time></trkpt><trkpt lat="46.1629224" lon="10.3125044"><ele>1150.0</ele><time>2026-04-10T14:53:00.42Z</time></trkpt><trkpt lat="46.1629269" lon="10.3123963"><ele>1149.5</ele><time>2026-04-10T14:53:01.42Z</time></trkpt><trkpt lat="46.1628942" lon="10.3122867"><ele>1149.0</ele><time>2026-04-10T14:53:03.42Z</time></trkpt><trkpt lat="46.162878" lon="10.3121827"><ele>1148.5</ele><time>2026-04-10T14:53:08.42Z</time></trkpt><trkpt lat="46.1628903" lon="10.3120872"><ele>1148.0</ele><time>2026-04-10T14:53:15.419Z</time></trkpt><trkpt lat="46.1629449" lon="10.3120214"><ele>1148.0</ele><time>2026-04-10T14:53:24.42Z</time></trkpt><trkpt lat="46.1629061" lon="10.311948"><ele>1148.0</ele><time>2026-04-10T14:53:41.419Z</time></trkpt><trkpt lat="46.1629424" lon="10.3118449"><ele>1148.0</ele><time>2026-04-10T14:53:46.42Z</time></trkpt><trkpt lat="46.1629814" lon="10.3117603"><ele>1148.0</ele><time>2026-04-10T14:53:49.42Z</time></trkpt><trkpt lat="46.1630307" lon="10.3116884"><ele>1148.0</ele><time>2026-04-10T14:53:52.42Z</time></trkpt><trkpt lat="46.1630957" lon="10.3116089"><ele>1148.0</ele><time>2026-04-10T14:53:55.42Z</time></trkpt><trkpt lat="46.163191" lon="10.3116266"><ele>1147.0</ele><time>2026-04-10T14:53:59.42Z</time></trkpt><trkpt lat="46.1632464" lon="10.3115819"><ele>1146.0</ele><time>2026-04-10T14:54:02.42Z</time></trkpt><trkpt lat="46.1632603" lon="10.3114596"><ele>1145.0</ele><time>2026-04-10T14:54:05.42Z</time></trkpt><trkpt lat="46.1632762" lon="10.3113484"><ele>1144.0</ele><time>2026-04-10T14:54:07.42Z</time></trkpt><trkpt lat="46.1632751" lon="10.311231"><ele>1143.0</ele><time>2026-04-10T14:54:09.419Z</time></trkpt><trkpt lat="46.1632354" lon="10.3111148"><ele>1142.0</ele><time>2026-04-10T14:54:11.42Z</time></trkpt><trkpt lat="46.1631606" lon="10.3109748"><ele>1142.0</ele><time>2026-04-10T14:54:13.42Z</time></trkpt><trkpt lat="46.1631251" lon="10.3108702"><ele>1142.0</ele><time>2026-04-10T14:54:14.42Z</time></trkpt><trkpt lat="46.1630975" lon="10.3107549"><ele>1142.0</ele><time>2026-04-10T14:54:16.419Z</time></trkpt><trkpt lat="46.1631482" lon="10.3106444"><ele>1142.0</ele><time>2026-04-10T14:54:19.42Z</time></trkpt><trkpt lat="46.1631983" lon="10.3105264"><ele>1142.0</ele><time>2026-04-10T14:54:21.419Z</time></trkpt><trkpt lat="46.1632124" lon="10.3103559"><ele>1141.8</ele><time>2026-04-10T14:54:23.42Z</time></trkpt><trkpt lat="46.1632168" lon="10.3102294"><ele>1141.6</ele><time>2026-04-10T14:54:25.42Z</time></trkpt><trkpt lat="46.1632039" lon="10.3101268"><ele>1141.3999999999999</ele><time>2026-04-10T14:54:27.42Z</time></trkpt><trkpt lat="46.1631862" lon="10.3100147"><ele>1141.2</ele><time>2026-04-10T14:54:29.419Z</time></trkpt><trkpt lat="46.1631967" lon="10.3098796"><ele>1141.0</ele><time>2026-04-10T14:54:31.419Z</time></trkpt><trkpt lat="46.1632297" lon="10.3097135"><ele>1136.0</ele><time>2026-04-10T14:54:33.42Z</time></trkpt><trkpt lat="46.1633339" lon="10.3096138"><ele>1131.0</ele><time>2026-04-10T14:54:35.42Z</time></trkpt><trkpt lat="46.1633745" lon="10.3094747"><ele>1126.0</ele><time>2026-04-10T14:54:37.42Z</time></trkpt><trkpt lat="46.1634547" lon="10.309414"><ele>1121.0</ele><time>2026-04-10T14:54:40.421Z</time></trkpt><trkpt lat="46.1635177" lon="10.3094299"><ele>1116.0</ele><time>2026-04-10T14:54:52.419Z</time></trkpt><trkpt lat="46.1635877" lon="10.3094138"><ele>1116.0</ele><time>2026-04-10T14:55:01.421Z</time></trkpt><trkpt lat="46.1636602" lon="10.3094435"><ele>1116.0</ele><time>2026-04-10T14:56:56.419Z</time></trkpt><trkpt lat="46.1637425" lon="10.309449"><ele>1116.0</ele><time>2026-04-10T14:56:59.42Z</time></trkpt><trkpt lat="46.1638306" lon="10.309417"><ele>1116.0</ele><time>2026-04-10T14:57:02.421Z</time></trkpt><trkpt lat="46.1638923" lon="10.3093835"><ele>1116.0</ele><time>2026-04-10T14:57:04.419Z</time></trkpt><trkpt lat="46.1639566" lon="10.3093306"><ele>1116.0</ele><time>2026-04-10T14:57:06.42Z</time></trkpt><trkpt lat="46.1640279" lon="10.309237"><ele>1114.3999999999999</ele><time>2026-04-10T14:57:08.419Z</time></trkpt><trkpt lat="46.1640922" lon="10.3091557"><ele>1112.8</ele><time>2026-04-10T14:57:09.42Z</time></trkpt><trkpt lat="46.1641332" lon="10.3090856"><ele>1111.1999999999998</ele><time>2026-04-10T14:57:10.419Z</time></trkpt><trkpt lat="46.164218" lon="10.3089487"><ele>1109.6</ele><time>2026-04-10T14:57:12.419Z</time></trkpt><trkpt lat="46.1642793" lon="10.3088251"><ele>1108.0</ele><time>2026-04-10T14:57:13.419Z</time></trkpt><trkpt lat="46.1643321" lon="10.3087148"><ele>1108.0</ele><time>2026-04-10T14:57:14.42Z</time></trkpt><trkpt lat="46.1644475" lon="10.3084925"><ele>1108.0</ele><time>2026-04-10T14:57:16.421Z</time></trkpt><trkpt lat="46.1644936" lon="10.3083491"><ele>1108.0</ele><time>2026-04-10T14:57:17.42Z</time></trkpt><trkpt lat="46.1645375" lon="10.3082046"><ele>1108.0</ele><time>2026-04-10T14:57:18.419Z</time></trkpt><trkpt lat="46.1645141" lon="10.3080849"><ele>1107.3333333333333</ele><time>2026-04-10T14:57:19.42Z</time></trkpt><trkpt lat="46.1645139" lon="10.3079724"><ele>1106.6666666666665</ele><time>2026-04-10T14:57:20.42Z</time></trkpt><trkpt lat="46.1645109" lon="10.3078742"><ele>1106.0</ele><time>2026-04-10T14:57:21.421Z</time></trkpt><trkpt lat="46.1645107" lon="10.3077748"><ele>1105.3333333333333</ele><time>2026-04-10T14:57:22.421Z</time></trkpt><trkpt lat="46.1645556" lon="10.3077096"><ele>1104.6666666666667</ele><time>2026-04-10T14:57:23.419Z</time></trkpt><trkpt lat="46.1645584" lon="10.3075095"><ele>1104.0</ele><time>2026-04-10T14:57:25.421Z</time></trkpt><trkpt lat="46.164624" lon="10.3074027"><ele>1104.0</ele><time>2026-04-10T14:57:27.421Z</time></trkpt><trkpt lat="46.1646869" lon="10.3072866"><ele>1104.0</ele><time>2026-04-10T14:57:29.42Z</time></trkpt><trkpt lat="46.1646468" lon="10.3071151"><ele>1104.0</ele><time>2026-04-10T14:57:31.42Z</time></trkpt><trkpt lat="46.1646451" lon="10.3070049"><ele>1104.0</ele><time>2026-04-10T14:57:34.419Z</time></trkpt><trkpt lat="46.1646423" lon="10.3068922"><ele>1104.0</ele><time>2026-04-10T14:57:38.419Z</time></trkpt><trkpt lat="46.1646572" lon="10.3067886"><ele>1102.6000000000001</ele><time>2026-04-10T14:57:40.42Z</time></trkpt><trkpt lat="46.1646757" lon="10.3066774"><ele>1101.2</ele><time>2026-04-10T14:57:42.42Z</time></trkpt><trkpt lat="46.1646589" lon="10.3065405"><ele>1099.8000000000002</ele><time>2026-04-10T14:57:44.42Z</time></trkpt><trkpt lat="46.1645794" lon="10.3063633"><ele>1098.4</ele><time>2026-04-10T14:57:46.419Z</time></trkpt><trkpt lat="46.1645671" lon="10.3062719"><ele>1097.0</ele><time>2026-04-10T14:57:47.42Z</time></trkpt><trkpt lat="46.1645581" lon="10.3061581"><ele>1095.4</ele><time>2026-04-10T14:57:48.421Z</time></trkpt><trkpt lat="46.1644965" lon="10.3060316"><ele>1093.8000000000002</ele><time>2026-04-10T14:57:49.42Z</time></trkpt><trkpt lat="46.1644472" lon="10.305903"><ele>1092.2</ele><time>2026-04-10T14:57:51.419Z</time></trkpt><trkpt lat="46.1643961" lon="10.3057874"><ele>1090.6000000000001</ele><time>2026-04-10T14:57:53.419Z</time></trkpt><trkpt lat="46.1643546" lon="10.3056592"><ele>1089.0</ele><time>2026-04-10T14:57:55.421Z</time></trkpt><trkpt lat="46.1642889" lon="10.3055111"><ele>1086.8</ele><time>2026-04-10T14:57:57.42Z</time></trkpt><trkpt lat="46.1642478" lon="10.3053209"><ele>1084.6000000000001</ele><time>2026-04-10T14:57:59.419Z</time></trkpt><trkpt lat="46.1642384" lon="10.3052083"><ele>1082.4</ele><time>2026-04-10T14:58:00.421Z</time></trkpt><trkpt lat="46.1642289" lon="10.3050736"><ele>1080.2</ele><time>2026-04-10T14:58:01.42Z</time></trkpt><trkpt lat="46.1641948" lon="10.3049705"><ele>1078.0</ele><time>2026-04-10T14:58:02.42Z</time></trkpt><trkpt lat="46.1641628" lon="10.304848"><ele>1078.0</ele><time>2026-04-10T14:58:04.421Z</time></trkpt><trkpt lat="46.1641395" lon="10.3047476"><ele>1078.0</ele><time>2026-04-10T14:58:06.419Z</time></trkpt><trkpt lat="46.1641268" lon="10.3046259"><ele>1078.0</ele><time>2026-04-10T14:58:08.42Z</time></trkpt><trkpt lat="46.1641231" lon="10.3045256"><ele>1078.0</ele><time>2026-04-10T14:58:10.42Z</time></trkpt><trkpt lat="46.1641207" lon="10.3043921"><ele>1078.0</ele><time>2026-04-10T14:58:12.419Z</time></trkpt><trkpt lat="46.1641246" lon="10.3042541"><ele>1078.0</ele><time>2026-04-10T14:58:14.42Z</time></trkpt><trkpt lat="46.1641451" lon="10.3040634"><ele>1076.2</ele><time>2026-04-10T14:58:16.419Z</time></trkpt><trkpt lat="46.1640754" lon="10.3039356"><ele>1074.4</ele><time>2026-04-10T14:58:17.42Z</time></trkpt><trkpt lat="46.1640924" lon="10.3038217"><ele>1072.6000000000001</ele><time>2026-04-10T14:58:19.42Z</time></trkpt><trkpt lat="46.1640945" lon="10.3036746"><ele>1070.8</ele><time>2026-04-10T14:58:21.42Z</time></trkpt><trkpt lat="46.1641374" lon="10.3035475"><ele>1069.0</ele><time>2026-04-10T14:58:23.42Z</time></trkpt><trkpt lat="46.1641938" lon="10.3034709"><ele>1069.0</ele><time>2026-04-10T14:58:24.42Z</time></trkpt><trkpt lat="46.1642293" lon="10.3033261"><ele>1069.0</ele><time>2026-04-10T14:58:26.421Z</time></trkpt><trkpt lat="46.1641957" lon="10.3031911"><ele>1069.0</ele><time>2026-04-10T14:58:28.421Z</time></trkpt><trkpt lat="46.1641833" lon="10.303089"><ele>1069.0</ele><time>2026-04-10T14:58:31.421Z</time></trkpt><trkpt lat="46.1641327" lon="10.3029882"><ele>1069.0</ele><time>2026-04-10T14:58:35.421Z</time></trkpt><trkpt lat="46.1641203" lon="10.3028571"><ele>1068.0</ele><time>2026-04-10T14:58:38.42Z</time></trkpt><trkpt lat="46.1640882" lon="10.3027328"><ele>1067.0</ele><time>2026-04-10T14:58:41.42Z</time></trkpt><trkpt lat="46.1640319" lon="10.3026201"><ele>1066.0</ele><time>2026-04-10T14:58:45.421Z</time></trkpt><trkpt lat="46.163997" lon="10.3025276"><ele>1065.0</ele><time>2026-04-10T14:58:47.421Z</time></trkpt><trkpt lat="46.1639691" lon="10.3024411"><ele>1064.0</ele><time>2026-04-10T14:58:49.42Z</time></trkpt><trkpt lat="46.1639132" lon="10.30236"><ele>1063.0</ele><time>2026-04-10T14:58:52.42Z</time></trkpt><trkpt lat="46.1638906" lon="10.3022642"><ele>1070.0</ele><time>2026-04-10T14:58:55.419Z</time></trkpt><trkpt lat="46.163859" lon="10.3021546"><ele>1077.0</ele><time>2026-04-10T14:58:58.42Z</time></trkpt><trkpt lat="46.163821" lon="10.3020496"><ele>1084.0</ele><time>2026-04-10T14:59:02.42Z</time></trkpt><trkpt lat="46.1637833" lon="10.3019408"><ele>1091.0</ele><time>2026-04-10T14:59:08.421Z</time></trkpt><trkpt lat="46.1637623" lon="10.3018376"><ele>1098.0</ele><time>2026-04-10T14:59:11.42Z</time></trkpt><trkpt lat="46.1637434" lon="10.3017501"><ele>1105.0</ele><time>2026-04-10T14:59:14.42Z</time></trkpt><trkpt lat="46.1637086" lon="10.301655"><ele>1105.0</ele><time>2026-04-10T14:59:17.419Z</time></trkpt><trkpt lat="46.1636536" lon="10.3015511"><ele>1105.0</ele><time>2026-04-10T14:59:21.419Z</time></trkpt><trkpt lat="46.1636248" lon="10.3014616"><ele>1105.0</ele><time>2026-04-10T14:59:24.42Z</time></trkpt><trkpt lat="46.1635847" lon="10.3013895"><ele>1105.0</ele><time>2026-04-10T14:59:27.42Z</time></trkpt><trkpt lat="46.1635406" lon="10.3013102"><ele>1105.0</ele><time>2026-04-10T14:59:30.42Z</time></trkpt><trkpt lat="46.1634865" lon="10.3012047"><ele>1105.0</ele><time>2026-04-10T14:59:33.421Z</time></trkpt><trkpt lat="46.1634581" lon="10.3011195"><ele>1103.0</ele><time>2026-04-10T14:59:35.421Z</time></trkpt><trkpt lat="46.1634185" lon="10.3010137"><ele>1101.0</ele><time>2026-04-10T14:59:37.421Z</time></trkpt><trkpt lat="46.1634066" lon="10.3009223"><ele>1099.0</ele><time>2026-04-10T14:59:39.42Z</time></trkpt><trkpt lat="46.1634464" lon="10.3008307"><ele>1097.0</ele><time>2026-04-10T14:59:43.421Z</time></trkpt><trkpt lat="46.1634558" lon="10.3007361"><ele>1095.0</ele><time>2026-04-10T14:59:47.421Z</time></trkpt><trkpt lat="46.1634354" lon="10.3006244"><ele>1093.0</ele><time>2026-04-10T14:59:51.42Z</time></trkpt><trkpt lat="46.1634012" lon="10.3005245"><ele>1091.0</ele><time>2026-04-10T14:59:55.42Z</time></trkpt><trkpt lat="46.1633382" lon="10.3004436"><ele>1088.7142857142858</ele><time>2026-04-10T14:59:59.421Z</time></trkpt><trkpt lat="46.1633037" lon="10.3003482"><ele>1086.4285714285716</ele><time>2026-04-10T15:00:02.419Z</time></trkpt><trkpt lat="46.1632525" lon="10.3002689"><ele>1084.1428571428573</ele><time>2026-04-10T15:00:06.419Z</time></trkpt><trkpt lat="46.1631895" lon="10.3002098"><ele>1081.857142857143</ele><time>2026-04-10T15:00:08.419Z</time></trkpt><trkpt lat="46.1631289" lon="10.3001496"><ele>1079.5714285714287</ele><time>2026-04-10T15:00:10.419Z</time></trkpt><trkpt lat="46.1630739" lon="10.3001033"><ele>1077.2857142857144</ele><time>2026-04-10T15:00:12.42Z</time></trkpt><trkpt lat="46.1630124" lon="10.3000275"><ele>1075.0</ele><time>2026-04-10T15:00:15.42Z</time></trkpt><trkpt lat="46.1629651" lon="10.2999503"><ele>1077.5714285714287</ele><time>2026-04-10T15:00:18.42Z</time></trkpt><trkpt lat="46.162895" lon="10.2999202"><ele>1080.142857142857</ele><time>2026-04-10T15:00:23.42Z</time></trkpt><trkpt lat="46.1628329" lon="10.2998925"><ele>1082.7142857142858</ele><time>2026-04-10T15:00:25.42Z</time></trkpt><trkpt lat="46.162756" lon="10.2998455"><ele>1085.2857142857142</ele><time>2026-04-10T15:00:29.42Z</time></trkpt><trkpt lat="46.1626805" lon="10.299794"><ele>1087.857142857143</ele><time>2026-04-10T15:00:33.42Z</time></trkpt><trkpt lat="46.1626123" lon="10.2997652"><ele>1090.4285714285716</ele><time>2026-04-10T15:00:35.421Z</time></trkpt><trkpt lat="46.1625437" lon="10.299754"><ele>1093.0</ele><time>2026-04-10T15:00:37.422Z</time></trkpt><trkpt lat="46.1624639" lon="10.2997146"><ele>1093.0</ele><time>2026-04-10T15:00:40.421Z</time></trkpt><trkpt lat="46.1623946" lon="10.2996875"><ele>1093.0</ele><time>2026-04-10T15:00:43.422Z</time></trkpt><trkpt lat="46.1623121" lon="10.2996977"><ele>1093.0</ele><time>2026-04-10T15:00:46.42Z</time></trkpt><trkpt lat="46.1622436" lon="10.2996956"><ele>1093.0</ele><time>2026-04-10T15:00:49.422Z</time></trkpt><trkpt lat="46.1621788" lon="10.2997004"><ele>1093.0</ele><time>2026-04-10T15:00:52.422Z</time></trkpt><trkpt lat="46.1621012" lon="10.2997025"><ele>1093.0</ele><time>2026-04-10T15:00:56.422Z</time></trkpt><trkpt lat="46.1620295" lon="10.2996917"><ele>1093.0</ele><time>2026-04-10T15:01:00.422Z</time></trkpt><trkpt lat="46.1619708" lon="10.2996574"><ele>1099.2857142857142</ele><time>2026-04-10T15:01:04.422Z</time></trkpt><trkpt lat="46.1619614" lon="10.2995456"><ele>1105.5714285714284</ele><time>2026-04-10T15:01:09.421Z</time></trkpt><trkpt lat="46.1620047" lon="10.2994507"><ele>1111.8571428571427</ele><time>2026-04-10T15:01:14.421Z</time></trkpt><trkpt lat="46.1620331" lon="10.2993643"><ele>1118.142857142857</ele><time>2026-04-10T15:01:18.42Z</time></trkpt><trkpt lat="46.1620676" lon="10.2992674"><ele>1124.4285714285713</ele><time>2026-04-10T15:01:23.422Z</time></trkpt><trkpt lat="46.1621118" lon="10.2991995"><ele>1130.7142857142856</ele><time>2026-04-10T15:01:27.421Z</time></trkpt><trkpt lat="46.1621311" lon="10.2990938"><ele>1137.0</ele><time>2026-04-10T15:01:32.421Z</time></trkpt><trkpt lat="46.1621389" lon="10.2989934"><ele>1138.142857142857</ele><time>2026-04-10T15:01:37.421Z</time></trkpt><trkpt lat="46.1621321" lon="10.2988928"><ele>1139.2857142857142</ele><time>2026-04-10T15:01:42.42Z</time></trkpt><trkpt lat="46.1621528" lon="10.2988011"><ele>1140.4285714285716</ele><time>2026-04-10T15:01:49.421Z</time></trkpt><trkpt lat="46.1621468" lon="10.298698"><ele>1141.5714285714284</ele><time>2026-04-10T15:01:56.421Z</time></trkpt><trkpt lat="46.1621318" lon="10.298605"><ele>1142.7142857142858</ele><time>2026-04-10T15:01:59.422Z</time></trkpt><trkpt lat="46.162112" lon="10.2984907"><ele>1143.857142857143</ele><time>2026-04-10T15:02:03.421Z</time></trkpt><trkpt lat="46.1621064" lon="10.2983949"><ele>1145.0</ele><time>2026-04-10T15:02:06.422Z</time></trkpt><trkpt lat="46.1621006" lon="10.2983042"><ele>1145.0000000000002</ele><time>2026-04-10T15:02:09.421Z</time></trkpt><trkpt lat="46.1621067" lon="10.2982066"><ele>1145.0</ele><time>2026-04-10T15:02:14.421Z</time></trkpt><trkpt lat="46.1620941" lon="10.2981112"><ele>1145.0</ele><time>2026-04-10T15:02:19.422Z</time></trkpt><trkpt lat="46.1620811" lon="10.2979929"><ele>1145.0</ele><time>2026-04-10T15:02:24.42Z</time></trkpt><trkpt lat="46.162054" lon="10.2979073"><ele>1145.0</ele><time>2026-04-10T15:02:28.421Z</time></trkpt><trkpt lat="46.1620477" lon="10.2977986"><ele>1145.0000000000002</ele><time>2026-04-10T15:02:32.421Z</time></trkpt><trkpt lat="46.1620501" lon="10.2976902"><ele>1145.0</ele><time>2026-04-10T15:02:36.422Z</time></trkpt><trkpt lat="46.1620292" lon="10.297584"><ele>1145.0000000000002</ele><time>2026-04-10T15:02:40.421Z</time></trkpt><trkpt lat="46.1619961" lon="10.2975028"><ele>1145.0</ele><time>2026-04-10T15:02:43.421Z</time></trkpt><trkpt lat="46.1619488" lon="10.2974214"><ele>1145.0</ele><time>2026-04-10T15:02:47.421Z</time></trkpt><trkpt lat="46.1618875" lon="10.2973778"><ele>1145.0</ele><time>2026-04-10T15:02:52.422Z</time></trkpt><trkpt lat="46.1618234" lon="10.2973052"><ele>1145.0</ele><time>2026-04-10T15:02:55.42Z</time></trkpt><trkpt lat="46.1618035" lon="10.2972027"><ele>1145.0000000000002</ele><time>2026-04-10T15:02:57.422Z</time></trkpt><trkpt lat="46.1618042" lon="10.2970906"><ele>1145.0</ele><time>2026-04-10T15:03:00.42Z</time></trkpt><trkpt lat="46.1618056" lon="10.2969867"><ele>1145.1428571428573</ele><time>2026-04-10T15:03:03.42Z</time></trkpt><trkpt lat="46.1617998" lon="10.2968915"><ele>1145.2857142857142</ele><time>2026-04-10T15:03:06.42Z</time></trkpt><trkpt lat="46.1617775" lon="10.2968028"><ele>1145.4285714285716</ele><time>2026-04-10T15:03:09.421Z</time></trkpt><trkpt lat="46.1617531" lon="10.2966992"><ele>1145.5714285714287</ele><time>2026-04-10T15:03:13.421Z</time></trkpt><trkpt lat="46.1617315" lon="10.2966123"><ele>1145.7142857142858</ele><time>2026-04-10T15:03:17.422Z</time></trkpt><trkpt lat="46.1617298" lon="10.2965103"><ele>1145.857142857143</ele><time>2026-04-10T15:03:22.422Z</time></trkpt><trkpt lat="46.1617682" lon="10.2964207"><ele>1146.0</ele><time>2026-04-10T15:03:25.42Z</time></trkpt><trkpt lat="46.1617859" lon="10.2963311"><ele>1145.5714285714287</ele><time>2026-04-10T15:03:28.422Z</time></trkpt><trkpt lat="46.1617904" lon="10.2962169"><ele>1145.1428571428573</ele><time>2026-04-10T15:03:32.422Z</time></trkpt><trkpt lat="46.1618068" lon="10.2961263"><ele>1144.7142857142858</ele><time>2026-04-10T15:03:35.421Z</time></trkpt><trkpt lat="46.1617878" lon="10.2960261"><ele>1144.2857142857142</ele><time>2026-04-10T15:03:38.42Z</time></trkpt><trkpt lat="46.1617766" lon="10.2959271"><ele>1143.8571428571427</ele><time>2026-04-10T15:03:41.421Z</time></trkpt><trkpt lat="46.1617608" lon="10.2958302"><ele>1143.4285714285713</ele><time>2026-04-10T15:03:44.421Z</time></trkpt><trkpt lat="46.1617699" lon="10.2957258"><ele>1143.0</ele><time>2026-04-10T15:03:49.421Z</time></trkpt><trkpt lat="46.1617241" lon="10.2956422"><ele>1140.7142857142858</ele><time>2026-04-10T15:03:54.422Z</time></trkpt><trkpt lat="46.1616922" lon="10.2955567"><ele>1138.4285714285713</ele><time>2026-04-10T15:03:58.42Z</time></trkpt><trkpt lat="46.1616446" lon="10.2954935"><ele>1136.142857142857</ele><time>2026-04-10T15:04:01.421Z</time></trkpt><trkpt lat="46.1615956" lon="10.2954238"><ele>1133.857142857143</ele><time>2026-04-10T15:04:04.421Z</time></trkpt><trkpt lat="46.1615382" lon="10.2953518"><ele>1131.5714285714284</ele><time>2026-04-10T15:04:08.421Z</time></trkpt><trkpt lat="46.1614819" lon="10.295275"><ele>1129.2857142857142</ele><time>2026-04-10T15:04:12.421Z</time></trkpt><trkpt lat="46.1614283" lon="10.2952159"><ele>1127.0</ele><time>2026-04-10T15:04:16.421Z</time></trkpt><trkpt lat="46.1613674" lon="10.2951591"><ele>1131.7142857142858</ele><time>2026-04-10T15:04:21.421Z</time></trkpt><trkpt lat="46.1613031" lon="10.2951029"><ele>1136.4285714285716</ele><time>2026-04-10T15:04:27.421Z</time></trkpt><trkpt lat="46.1612407" lon="10.2950518"><ele>1141.142857142857</ele><time>2026-04-10T15:04:31.421Z</time></trkpt><trkpt lat="46.1611847" lon="10.2950058"><ele>1145.857142857143</ele><time>2026-04-10T15:04:36.421Z</time></trkpt><trkpt lat="46.1611125" lon="10.2949651"><ele>1150.5714285714287</ele><time>2026-04-10T15:04:40.42Z</time></trkpt><trkpt lat="46.1610458" lon="10.2949088"><ele>1155.2857142857142</ele><time>2026-04-10T15:04:44.421Z</time></trkpt><trkpt lat="46.1609833" lon="10.2948507"><ele>1160.0</ele><time>2026-04-10T15:04:48.421Z</time></trkpt><trkpt lat="46.1609168" lon="10.2948479"><ele>1160.0</ele><time>2026-04-10T15:04:52.422Z</time></trkpt><trkpt lat="46.1608622" lon="10.2949237"><ele>1160.0</ele><time>2026-04-10T15:04:57.421Z</time></trkpt><trkpt lat="46.1607973" lon="10.2949542"><ele>1160.0</ele><time>2026-04-10T15:05:01.421Z</time></trkpt><trkpt lat="46.1607265" lon="10.2949534"><ele>1160.0</ele><time>2026-04-10T15:05:05.421Z</time></trkpt><trkpt lat="46.1606549" lon="10.2949661"><ele>1160.0</ele><time>2026-04-10T15:05:12.42Z</time></trkpt><trkpt lat="46.1605688" lon="10.2949668"><ele>1160.0</ele><time>2026-04-10T15:05:18.422Z</time></trkpt><trkpt lat="46.1604941" lon="10.294983"><ele>1160.0</ele><time>2026-04-10T15:05:22.421Z</time></trkpt><trkpt lat="46.1604091" lon="10.2949892"><ele>1164.3333333333335</ele><time>2026-04-10T15:05:26.422Z</time></trkpt><trkpt lat="46.160336" lon="10.2949923"><ele>1168.6666666666667</ele><time>2026-04-10T15:05:30.421Z</time></trkpt><trkpt lat="46.160271" lon="10.2949953"><ele>1173.0</ele><time>2026-04-10T15:05:35.337Z</time></trkpt><trkpt lat="46.1602029" lon="10.2949655"><ele>1177.3333333333333</ele><time>2026-04-10T15:05:40.422Z</time></trkpt><trkpt lat="46.1601241" lon="10.2949384"><ele>1181.6666666666665</ele><time>2026-04-10T15:05:44.421Z</time></trkpt><trkpt lat="46.1600449" lon="10.2948931"><ele>1186.0</ele><time>2026-04-10T15:05:47.42Z</time></trkpt><trkpt lat="46.1599648" lon="10.2948586"><ele>1185.9999999999998</ele><time>2026-04-10T15:05:49.422Z</time></trkpt><trkpt lat="46.1598975" lon="10.2948182"><ele>1186.0</ele><time>2026-04-10T15:05:51.42Z</time></trkpt><trkpt lat="46.1598446" lon="10.2947591"><ele>1186.0</ele><time>2026-04-10T15:05:55.421Z</time></trkpt><trkpt lat="46.1597954" lon="10.294671"><ele>1186.0</ele><time>2026-04-10T15:05:58.422Z</time></trkpt><trkpt lat="46.1598033" lon="10.2945778"><ele>1186.0</ele><time>2026-04-10T15:06:04.421Z</time></trkpt><trkpt lat="46.159857" lon="10.2945282"><ele>1185.9999999999998</ele><time>2026-04-10T15:07:44.42Z</time></trkpt><trkpt lat="46.1599352" lon="10.2945054"><ele>1186.0</ele><time>2026-04-10T15:07:48.421Z</time></trkpt><trkpt lat="46.1599967" lon="10.2944702"><ele>1185.3333333333333</ele><time>2026-04-10T15:07:52.42Z</time></trkpt><trkpt lat="46.1600697" lon="10.2944367"><ele>1184.6666666666665</ele><time>2026-04-10T15:07:55.421Z</time></trkpt><trkpt lat="46.1601412" lon="10.2944049"><ele>1184.0</ele><time>2026-04-10T15:08:00.421Z</time></trkpt><trkpt lat="46.1602011" lon="10.2943103"><ele>1183.3333333333333</ele><time>2026-04-10T15:08:05.422Z</time></trkpt><trkpt lat="46.1602412" lon="10.294208"><ele>1182.6666666666667</ele><time>2026-04-10T15:08:07.421Z</time></trkpt><trkpt lat="46.1602888" lon="10.2941172"><ele>1182.0</ele><time>2026-04-10T15:08:09.421Z</time></trkpt><trkpt lat="46.1603354" lon="10.2940219"><ele>1182.0</ele><time>2026-04-10T15:08:11.422Z</time></trkpt><trkpt lat="46.1603867" lon="10.2939283"><ele>1182.0</ele><time>2026-04-10T15:08:13.421Z</time></trkpt><trkpt lat="46.160506" lon="10.2939075"><ele>1182.0</ele><time>2026-04-10T15:08:15.421Z</time></trkpt><trkpt lat="46.1605743" lon="10.2938624"><ele>1182.0</ele><time>2026-04-10T15:08:17.422Z</time></trkpt><trkpt lat="46.1605482" lon="10.2937731"><ele>1182.0</ele><time>2026-04-10T15:08:20.423Z</time></trkpt><trkpt lat="46.1605563" lon="10.2936773"><ele>1182.0</ele><time>2026-04-10T15:08:22.422Z</time></trkpt><trkpt lat="46.1605714" lon="10.2935788"><ele>1180.0</ele><time>2026-04-10T15:08:24.421Z</time></trkpt><trkpt lat="46.1605737" lon="10.2934772"><ele>1178.0</ele><time>2026-04-10T15:08:26.421Z</time></trkpt><trkpt lat="46.1606351" lon="10.2934202"><ele>1176.0</ele><time>2026-04-10T15:08:33.423Z</time></trkpt><trkpt lat="46.1607117" lon="10.2934119"><ele>1174.0</ele><time>2026-04-10T15:08:35.423Z</time></trkpt><trkpt lat="46.1607897" lon="10.2933932"><ele>1172.0</ele><time>2026-04-10T15:08:39.422Z</time></trkpt><trkpt lat="46.1608701" lon="10.2934046"><ele>1170.0</ele><time>2026-04-10T15:08:46.422Z</time></trkpt><trkpt lat="46.1609402" lon="10.2934348"><ele>1170.0</ele><time>2026-04-10T15:08:49.422Z</time></trkpt><trkpt lat="46.1610142" lon="10.2934377"><ele>1170.0</ele><time>2026-04-10T15:12:31.422Z</time></trkpt><trkpt lat="46.1610608" lon="10.2933587"><ele>1170.0</ele><time>2026-04-10T15:12:35.422Z</time></trkpt><trkpt lat="46.1611227" lon="10.2933235"><ele>1170.0</ele><time>2026-04-10T15:12:37.422Z</time></trkpt><trkpt lat="46.1611741" lon="10.2932151"><ele>1170.0</ele><time>2026-04-10T15:12:42.421Z</time></trkpt><trkpt lat="46.1612289" lon="10.293122"><ele>1170.0</ele><time>2026-04-10T15:12:45.421Z</time></trkpt><trkpt lat="46.1612714" lon="10.2930547"><ele>1168.6666666666667</ele><time>2026-04-10T15:12:47.422Z</time></trkpt><trkpt lat="46.1613615" lon="10.2930228"><ele>1167.3333333333333</ele><time>2026-04-10T15:12:50.422Z</time></trkpt><trkpt lat="46.1614336" lon="10.2929999"><ele>1166.0</ele><time>2026-04-10T15:12:52.422Z</time></trkpt><trkpt lat="46.161502" lon="10.2929964"><ele>1164.6666666666665</ele><time>2026-04-10T15:12:55.421Z</time></trkpt><trkpt lat="46.1615598" lon="10.2929434"><ele>1163.3333333333333</ele><time>2026-04-10T15:13:00.421Z</time></trkpt><trkpt lat="46.161623" lon="10.2928676"><ele>1162.0</ele><time>2026-04-10T15:13:04.422Z</time></trkpt><trkpt lat="46.1616334" lon="10.2927226"><ele>1162.0</ele><time>2026-04-10T15:13:08.422Z</time></trkpt><trkpt lat="46.1616506" lon="10.2926149"><ele>1162.0</ele><time>2026-04-10T15:13:10.422Z</time></trkpt><trkpt lat="46.1616724" lon="10.2925017"><ele>1162.0</ele><time>2026-04-10T15:13:12.422Z</time></trkpt><trkpt lat="46.1617115" lon="10.29242"><ele>1162.0</ele><time>2026-04-10T15:13:15.422Z</time></trkpt><trkpt lat="46.1617854" lon="10.2923177"><ele>1162.0</ele><time>2026-04-10T15:13:18.422Z</time></trkpt><trkpt lat="46.1618348" lon="10.2922052"><ele>1162.0</ele><time>2026-04-10T15:13:20.421Z</time></trkpt><trkpt lat="46.1618558" lon="10.2920997"><ele>1164.3333333333333</ele><time>2026-04-10T15:13:22.422Z</time></trkpt><trkpt lat="46.161887" lon="10.2919839"><ele>1166.6666666666665</ele><time>2026-04-10T15:13:24.423Z</time></trkpt><trkpt lat="46.1619329" lon="10.2918992"><ele>1169.0</ele><time>2026-04-10T15:13:26.421Z</time></trkpt><trkpt lat="46.1619555" lon="10.2917862"><ele>1171.3333333333333</ele><time>2026-04-10T15:13:28.422Z</time></trkpt><trkpt lat="46.1619933" lon="10.2916038"><ele>1173.6666666666667</ele><time>2026-04-10T15:13:32.423Z</time></trkpt><trkpt lat="46.1619678" lon="10.2915155"><ele>1176.0</ele><time>2026-04-10T15:13:34.422Z</time></trkpt><trkpt lat="46.1621428" lon="10.2916062"><ele>1176.0</ele><time>2026-04-10T15:13:49.422Z</time></trkpt><trkpt lat="46.1622114" lon="10.2915923"><ele>1176.0</ele><time>2026-04-10T15:13:52.422Z</time></trkpt><trkpt lat="46.1622783" lon="10.2915736"><ele>1176.0</ele><time>2026-04-10T15:13:55.422Z</time></trkpt><trkpt lat="46.162358" lon="10.2915351"><ele>1176.0</ele><time>2026-04-10T15:13:59.422Z</time></trkpt><trkpt lat="46.1624325" lon="10.2915013"><ele>1176.0</ele><time>2026-04-10T15:14:02.422Z</time></trkpt><trkpt lat="46.162499" lon="10.2914635"><ele>1176.0</ele><time>2026-04-10T15:14:05.422Z</time></trkpt><trkpt lat="46.1625579" lon="10.2914038"><ele>1176.0</ele><time>2026-04-10T15:14:08.421Z</time></trkpt><trkpt lat="46.1626215" lon="10.2913316"><ele>1173.2</ele><time>2026-04-10T15:14:11.422Z</time></trkpt><trkpt lat="46.1626958" lon="10.2912398"><ele>1170.3999999999999</ele><time>2026-04-10T15:14:13.422Z</time></trkpt><trkpt lat="46.1628042" lon="10.2911812"><ele>1167.6</ele><time>2026-04-10T15:14:15.422Z</time></trkpt><trkpt lat="46.1628914" lon="10.2911456"><ele>1164.8</ele><time>2026-04-10T15:14:17.422Z</time></trkpt><trkpt lat="46.1629475" lon="10.2910546"><ele>1162.0</ele><time>2026-04-10T15:14:21.422Z</time></trkpt><trkpt lat="46.1630073" lon="10.2909807"><ele>1162.0</ele><time>2026-04-10T15:14:24.423Z</time></trkpt><trkpt lat="46.1630653" lon="10.2908641"><ele>1162.0</ele><time>2026-04-10T15:14:26.422Z</time></trkpt><trkpt lat="46.1631146" lon="10.2907235"><ele>1162.0</ele><time>2026-04-10T15:14:28.421Z</time></trkpt><trkpt lat="46.1631879" lon="10.2906162"><ele>1162.0</ele><time>2026-04-10T15:14:30.422Z</time></trkpt><trkpt lat="46.1632593" lon="10.2905562"><ele>1162.0</ele><time>2026-04-10T15:14:32.421Z</time></trkpt><trkpt lat="46.1633405" lon="10.2905141"><ele>1158.8333333333333</ele><time>2026-04-10T15:14:34.422Z</time></trkpt><trkpt lat="46.1634234" lon="10.2904741"><ele>1155.6666666666665</ele><time>2026-04-10T15:14:36.422Z</time></trkpt><trkpt lat="46.1635157" lon="10.2904116"><ele>1152.5</ele><time>2026-04-10T15:14:38.422Z</time></trkpt><trkpt lat="46.163596" lon="10.2903415"><ele>1149.3333333333333</ele><time>2026-04-10T15:14:40.422Z</time></trkpt><trkpt lat="46.1636386" lon="10.290243"><ele>1146.1666666666667</ele><time>2026-04-10T15:14:42.423Z</time></trkpt><trkpt lat="46.1636587" lon="10.2901503"><ele>1143.0</ele><time>2026-04-10T15:14:44.421Z</time></trkpt><trkpt lat="46.1636663" lon="10.290032"><ele>1143.0</ele><time>2026-04-10T15:14:48.423Z</time></trkpt><trkpt lat="46.1636971" lon="10.2899494"><ele>1143.0</ele><time>2026-04-10T15:14:51.421Z</time></trkpt><trkpt lat="46.1637123" lon="10.2898557"><ele>1143.0</ele><time>2026-04-10T15:14:56.421Z</time></trkpt><trkpt lat="46.163767" lon="10.2897806"><ele>1143.0</ele><time>2026-04-10T15:15:31.423Z</time></trkpt><trkpt lat="46.1638196" lon="10.2896861"><ele>1143.0</ele><time>2026-04-10T15:15:34.422Z</time></trkpt><trkpt lat="46.1638895" lon="10.2896535"><ele>1143.0</ele><time>2026-04-10T15:15:36.423Z</time></trkpt><trkpt lat="46.1639668" lon="10.2896255"><ele>1143.0</ele><time>2026-04-10T15:15:38.423Z</time></trkpt><trkpt lat="46.1640272" lon="10.2895701"><ele>1138.2</ele><time>2026-04-10T15:15:40.422Z</time></trkpt><trkpt lat="46.1640814" lon="10.2895025"><ele>1133.4</ele><time>2026-04-10T15:15:42.421Z</time></trkpt><trkpt lat="46.1641496" lon="10.2894093"><ele>1128.6000000000001</ele><time>2026-04-10T15:15:44.421Z</time></trkpt><trkpt lat="46.164194" lon="10.2893262"><ele>1123.8</ele><time>2026-04-10T15:15:46.422Z</time></trkpt><trkpt lat="46.1642663" lon="10.2891806"><ele>1119.0</ele><time>2026-04-10T15:15:48.422Z</time></trkpt><trkpt lat="46.1643193" lon="10.2890212"><ele>1120.8333333333333</ele><time>2026-04-10T15:15:50.422Z</time></trkpt><trkpt lat="46.164334" lon="10.2889195"><ele>1122.6666666666667</ele><time>2026-04-10T15:15:51.421Z</time></trkpt><trkpt lat="46.1643395" lon="10.2888275"><ele>1124.5</ele><time>2026-04-10T15:15:52.422Z</time></trkpt><trkpt lat="46.1643312" lon="10.2887343"><ele>1126.3333333333335</ele><time>2026-04-10T15:15:53.422Z</time></trkpt><trkpt lat="46.1643757" lon="10.288596"><ele>1128.1666666666667</ele><time>2026-04-10T15:15:55.422Z</time></trkpt><trkpt lat="46.1644406" lon="10.2885318"><ele>1130.0</ele><time>2026-04-10T15:15:57.422Z</time></trkpt><trkpt lat="46.1645325" lon="10.2885738"><ele>1130.0</ele><time>2026-04-10T15:15:59.423Z</time></trkpt><trkpt lat="46.164649" lon="10.2886722"><ele>1130.0</ele><time>2026-04-10T15:16:01.422Z</time></trkpt><trkpt lat="46.1646901" lon="10.2887514"><ele>1130.0</ele><time>2026-04-10T15:16:02.422Z</time></trkpt><trkpt lat="46.1646964" lon="10.2888455"><ele>1130.0</ele><time>2026-04-10T15:16:03.421Z</time></trkpt><trkpt lat="46.1647003" lon="10.2889507"><ele>1130.0</ele><time>2026-04-10T15:16:04.422Z</time></trkpt><trkpt lat="46.1647016" lon="10.2890597"><ele>1130.0</ele><time>2026-04-10T15:16:05.422Z</time></trkpt><trkpt lat="46.1647122" lon="10.2891713"><ele>1128.1666666666667</ele><time>2026-04-10T15:16:06.422Z</time></trkpt><trkpt lat="46.164722" lon="10.2892875"><ele>1126.3333333333335</ele><time>2026-04-10T15:16:07.423Z</time></trkpt><trkpt lat="46.1647343" lon="10.2894077"><ele>1124.5</ele><time>2026-04-10T15:16:08.423Z</time></trkpt><trkpt lat="46.1647469" lon="10.2895365"><ele>1122.6666666666667</ele><time>2026-04-10T15:16:09.424Z</time></trkpt><trkpt lat="46.1647514" lon="10.2896609"><ele>1120.8333333333333</ele><time>2026-04-10T15:16:10.424Z</time></trkpt><trkpt lat="46.164745" lon="10.2897852"><ele>1119.0</ele><time>2026-04-10T15:16:11.424Z</time></trkpt><trkpt lat="46.1647341" lon="10.2899008"><ele>1116.8333333333333</ele><time>2026-04-10T15:16:12.424Z</time></trkpt><trkpt lat="46.1647248" lon="10.2900054"><ele>1114.6666666666667</ele><time>2026-04-10T15:16:13.424Z</time></trkpt><trkpt lat="46.1646907" lon="10.2901584"><ele>1112.5</ele><time>2026-04-10T15:16:15.423Z</time></trkpt><trkpt lat="46.1647155" lon="10.2902613"><ele>1110.3333333333335</ele><time>2026-04-10T15:16:33.423Z</time></trkpt><trkpt lat="46.1646819" lon="10.2903438"><ele>1108.1666666666667</ele><time>2026-04-10T15:16:35.423Z</time></trkpt><trkpt lat="46.164644" lon="10.2904277"><ele>1106.0</ele><time>2026-04-10T15:16:39.422Z</time></trkpt><trkpt lat="46.1646384" lon="10.2905378"><ele>1103.857142857143</ele><time>2026-04-10T15:16:43.422Z</time></trkpt><trkpt lat="46.1646412" lon="10.2906313"><ele>1101.7142857142858</ele><time>2026-04-10T15:16:46.422Z</time></trkpt><trkpt lat="46.1646376" lon="10.2907395"><ele>1099.5714285714284</ele><time>2026-04-10T15:16:49.422Z</time></trkpt><trkpt lat="46.1645953" lon="10.2908191"><ele>1097.4285714285716</ele><time>2026-04-10T15:16:51.424Z</time></trkpt><trkpt lat="46.1645241" lon="10.2908641"><ele>1095.2857142857142</ele><time>2026-04-10T15:16:53.423Z</time></trkpt><trkpt lat="46.1644603" lon="10.2909122"><ele>1093.142857142857</ele><time>2026-04-10T15:16:55.423Z</time></trkpt><trkpt lat="46.1644038" lon="10.2909606"><ele>1091.0</ele><time>2026-04-10T15:16:57.424Z</time></trkpt><trkpt lat="46.164369" lon="10.291045"><ele>1091.0</ele><time>2026-04-10T15:17:01.423Z</time></trkpt><trkpt lat="46.1643377" lon="10.2911484"><ele>1091.0</ele><time>2026-04-10T15:17:04.423Z</time></trkpt><trkpt lat="46.1642707" lon="10.2911857"><ele>1091.0</ele><time>2026-04-10T15:17:07.423Z</time></trkpt><trkpt lat="46.1642168" lon="10.2912352"><ele>1091.0</ele><time>2026-04-10T15:17:11.422Z</time></trkpt><trkpt lat="46.1642782" lon="10.291269"><ele>1091.0</ele><time>2026-04-10T15:17:19.423Z</time></trkpt><trkpt lat="46.1643141" lon="10.2914484"><ele>1091.0</ele><time>2026-04-10T15:17:31.422Z</time></trkpt><trkpt lat="46.1642779" lon="10.2915457"><ele>1087.8333333333335</ele><time>2026-04-10T15:17:34.423Z</time></trkpt><trkpt lat="46.1642484" lon="10.2916559"><ele>1084.6666666666667</ele><time>2026-04-10T15:17:37.423Z</time></trkpt><trkpt lat="46.1642043" lon="10.2917482"><ele>1081.5</ele><time>2026-04-10T15:17:40.423Z</time></trkpt><trkpt lat="46.1641566" lon="10.2918448"><ele>1078.3333333333333</ele><time>2026-04-10T15:17:43.422Z</time></trkpt><trkpt lat="46.1641132" lon="10.2919446"><ele>1075.1666666666665</ele><time>2026-04-10T15:17:47.423Z</time></trkpt><trkpt lat="46.1640825" lon="10.2920544"><ele>1072.0</ele><time>2026-04-10T15:17:51.423Z</time></trkpt><trkpt lat="46.164065" lon="10.2921455"><ele>1070.0</ele><time>2026-04-10T15:17:54.423Z</time></trkpt><trkpt lat="46.1640948" lon="10.2922625"><ele>1068.0</ele><time>2026-04-10T15:17:57.424Z</time></trkpt><trkpt lat="46.1641204" lon="10.2923483"><ele>1066.0</ele><time>2026-04-10T15:17:59.423Z</time></trkpt><trkpt lat="46.1641675" lon="10.2924419"><ele>1064.0</ele><time>2026-04-10T15:18:02.423Z</time></trkpt><trkpt lat="46.1642184" lon="10.2925199"><ele>1062.0</ele><time>2026-04-10T15:18:06.424Z</time></trkpt><trkpt lat="46.1642598" lon="10.2926142"><ele>1060.0</ele><time>2026-04-10T15:18:10.422Z</time></trkpt><trkpt lat="46.1642516" lon="10.2927097"><ele>1058.0</ele><time>2026-04-10T15:18:14.424Z</time></trkpt><trkpt lat="46.1642603" lon="10.2926049"><ele>1058.0</ele><time>2026-04-10T15:18:35.422Z</time></trkpt><trkpt lat="46.1642789" lon="10.2925157"><ele>1058.0</ele><time>2026-04-10T15:18:39.423Z</time></trkpt><trkpt lat="46.1643206" lon="10.2924436"><ele>1058.0</ele><time>2026-04-10T15:18:47.422Z</time></trkpt><trkpt lat="46.1643808" lon="10.2923617"><ele>1058.0</ele><time>2026-04-10T15:18:51.423Z</time></trkpt><trkpt lat="46.1644505" lon="10.2922773"><ele>1058.0</ele><time>2026-04-10T15:18:54.423Z</time></trkpt><trkpt lat="46.1645109" lon="10.2921853"><ele>1058.0</ele><time>2026-04-10T15:18:57.423Z</time></trkpt><trkpt lat="46.1645977" lon="10.292068"><ele>1056.7142857142858</ele><time>2026-04-10T15:19:20.424Z</time></trkpt><trkpt lat="46.1646397" lon="10.2919868"><ele>1055.4285714285713</ele><time>2026-04-10T15:19:24.423Z</time></trkpt><trkpt lat="46.1646951" lon="10.2919328"><ele>1054.142857142857</ele><time>2026-04-10T15:19:27.422Z</time></trkpt><trkpt lat="46.1647485" lon="10.2918783"><ele>1052.857142857143</ele><time>2026-04-10T15:19:30.422Z</time></trkpt><trkpt lat="46.1648257" lon="10.2918764"><ele>1051.5714285714287</ele><time>2026-04-10T15:19:33.424Z</time></trkpt><trkpt lat="46.164897" lon="10.2919214"><ele>1050.2857142857142</ele><time>2026-04-10T15:19:36.423Z</time></trkpt><trkpt lat="46.1649639" lon="10.292006"><ele>1049.0</ele><time>2026-04-10T15:19:39.423Z</time></trkpt><trkpt lat="46.1650097" lon="10.2921081"><ele>1049.0</ele><time>2026-04-10T15:19:42.424Z</time></trkpt><trkpt lat="46.1650393" lon="10.2922024"><ele>1049.0</ele><time>2026-04-10T15:19:45.423Z</time></trkpt><trkpt lat="46.1651023" lon="10.2922584"><ele>1049.0</ele><time>2026-04-10T15:19:47.423Z</time></trkpt><trkpt lat="46.165143" lon="10.2921021"><ele>1049.0</ele><time>2026-04-10T15:19:50.422Z</time></trkpt><trkpt lat="46.1651757" lon="10.2919903"><ele>1049.0</ele><time>2026-04-10T15:19:52.423Z</time></trkpt><trkpt lat="46.1652335" lon="10.2919033"><ele>1049.0</ele><time>2026-04-10T15:19:54.424Z</time></trkpt><trkpt lat="46.1652772" lon="10.2917873"><ele>1049.0</ele><time>2026-04-10T15:19:56.423Z</time></trkpt><trkpt lat="46.1653227" lon="10.2916644"><ele>1049.0</ele><time>2026-04-10T15:19:58.424Z</time></trkpt><trkpt lat="46.1653673" lon="10.291592"><ele>1049.0</ele><time>2026-04-10T15:19:59.423Z</time></trkpt><trkpt lat="46.1654522" lon="10.291493"><ele>1049.0</ele><time>2026-04-10T15:20:01.423Z</time></trkpt><trkpt lat="46.1655287" lon="10.2913758"><ele>1049.0</ele><time>2026-04-10T15:20:03.424Z</time></trkpt><trkpt lat="46.1656019" lon="10.2913289"><ele>1052.1666666666667</ele><time>2026-04-10T15:20:04.424Z</time></trkpt><trkpt lat="46.1656667" lon="10.2913216"><ele>1055.3333333333335</ele><time>2026-04-10T15:20:05.423Z</time></trkpt><trkpt lat="46.165736" lon="10.2912133"><ele>1058.5</ele><time>2026-04-10T15:20:07.423Z</time></trkpt><trkpt lat="46.1657699" lon="10.2911308"><ele>1061.6666666666667</ele><time>2026-04-10T15:20:08.424Z</time></trkpt><trkpt lat="46.1658358" lon="10.2910449"><ele>1064.8333333333333</ele><time>2026-04-10T15:20:09.423Z</time></trkpt><trkpt lat="46.165917" lon="10.2909955"><ele>1068.0</ele><time>2026-04-10T15:20:10.424Z</time></trkpt><trkpt lat="46.1659384" lon="10.2908726"><ele>1062.6666666666667</ele><time>2026-04-10T15:20:12.422Z</time></trkpt><trkpt lat="46.1659979" lon="10.2908183"><ele>1057.3333333333333</ele><time>2026-04-10T15:20:13.423Z</time></trkpt><trkpt lat="46.1660267" lon="10.2907257"><ele>1052.0</ele><time>2026-04-10T15:20:14.423Z</time></trkpt><trkpt lat="46.1660503" lon="10.2906171"><ele>1046.6666666666665</ele><time>2026-04-10T15:20:15.422Z</time></trkpt><trkpt lat="46.1660683" lon="10.290525"><ele>1041.3333333333333</ele><time>2026-04-10T15:20:16.423Z</time></trkpt><trkpt lat="46.1660283" lon="10.2903698"><ele>1036.0</ele><time>2026-04-10T15:20:18.422Z</time></trkpt><trkpt lat="46.1660475" lon="10.2902575"><ele>1036.0</ele><time>2026-04-10T15:20:21.423Z</time></trkpt><trkpt lat="46.1660675" lon="10.2901567"><ele>1036.0</ele><time>2026-04-10T15:20:24.422Z</time></trkpt><trkpt lat="46.1661015" lon="10.2900332"><ele>1036.0</ele><time>2026-04-10T15:20:27.423Z</time></trkpt><trkpt lat="46.1661406" lon="10.2899244"><ele>1036.0</ele><time>2026-04-10T15:20:30.424Z</time></trkpt><trkpt lat="46.166173" lon="10.2898461"><ele>1036.0</ele><time>2026-04-10T15:20:32.423Z</time></trkpt><trkpt lat="46.1661953" lon="10.28974"><ele>1036.0</ele><time>2026-04-10T15:20:36.423Z</time></trkpt><trkpt lat="46.1662162" lon="10.2896397"><ele>1036.857142857143</ele><time>2026-04-10T15:20:41.423Z</time></trkpt><trkpt lat="46.1662407" lon="10.2895341"><ele>1037.7142857142858</ele><time>2026-04-10T15:20:45.422Z</time></trkpt><trkpt lat="46.1662527" lon="10.2894203"><ele>1038.5714285714284</ele><time>2026-04-10T15:20:48.424Z</time></trkpt><trkpt lat="46.1662377" lon="10.2893314"><ele>1039.4285714285716</ele><time>2026-04-10T15:20:50.422Z</time></trkpt><trkpt lat="46.166235" lon="10.2892354"><ele>1040.2857142857142</ele><time>2026-04-10T15:20:52.423Z</time></trkpt><trkpt lat="46.1662242" lon="10.2891227"><ele>1041.142857142857</ele><time>2026-04-10T15:20:54.422Z</time></trkpt><trkpt lat="46.1662223" lon="10.2890018"><ele>1042.0</ele><time>2026-04-10T15:20:57.422Z</time></trkpt><trkpt lat="46.1662349" lon="10.2888733"><ele>1042.1666666666665</ele><time>2026-04-10T15:21:00.423Z</time></trkpt><trkpt lat="46.1662526" lon="10.2887327"><ele>1042.3333333333333</ele><time>2026-04-10T15:21:02.423Z</time></trkpt><trkpt lat="46.1662656" lon="10.2885845"><ele>1042.5</ele><time>2026-04-10T15:21:04.424Z</time></trkpt><trkpt lat="46.1662693" lon="10.2884533"><ele>1042.6666666666667</ele><time>2026-04-10T15:21:06.423Z</time></trkpt><trkpt lat="46.1662996" lon="10.2883606"><ele>1042.8333333333335</ele><time>2026-04-10T15:21:09.422Z</time></trkpt><trkpt lat="46.1663541" lon="10.2884461"><ele>1043.0</ele><time>2026-04-10T15:21:13.424Z</time></trkpt><trkpt lat="46.1663616" lon="10.288537"><ele>1043.0</ele><time>2026-04-10T15:21:15.423Z</time></trkpt><trkpt lat="46.1664041" lon="10.2886443"><ele>1043.0</ele><time>2026-04-10T15:21:18.424Z</time></trkpt><trkpt lat="46.1664315" lon="10.2887446"><ele>1043.0</ele><time>2026-04-10T15:21:20.423Z</time></trkpt><trkpt lat="46.1664882" lon="10.2888003"><ele>1043.0</ele><time>2026-04-10T15:21:23.422Z</time></trkpt><trkpt lat="46.166644" lon="10.2886565"><ele>1043.0</ele><time>2026-04-10T15:21:29.423Z</time></trkpt><trkpt lat="46.1667077" lon="10.2886674"><ele>1034.8333333333335</ele><time>2026-04-10T15:21:31.423Z</time></trkpt><trkpt lat="46.1667682" lon="10.2885769"><ele>1026.6666666666667</ele><time>2026-04-10T15:21:35.423Z</time></trkpt><trkpt lat="46.1668061" lon="10.2884741"><ele>1018.5</ele><time>2026-04-10T15:21:37.424Z</time></trkpt><trkpt lat="46.1668496" lon="10.2883603"><ele>1010.3333333333333</ele><time>2026-04-10T15:21:39.423Z</time></trkpt><trkpt lat="46.1668697" lon="10.2882389"><ele>1002.1666666666666</ele><time>2026-04-10T15:21:41.422Z</time></trkpt><trkpt lat="46.1668571" lon="10.2881342"><ele>994.0</ele><time>2026-04-10T15:21:43.424Z</time></trkpt><trkpt lat="46.1668566" lon="10.2880149"><ele>994.0</ele><time>2026-04-10T15:21:45.423Z</time></trkpt><trkpt lat="46.166869" lon="10.2879084"><ele>994.0</ele><time>2026-04-10T15:21:47.423Z</time></trkpt><trkpt lat="46.1668835" lon="10.28781"><ele>994.0</ele><time>2026-04-10T15:21:49.424Z</time></trkpt><trkpt lat="46.1668972" lon="10.287716"><ele>994.0</ele><time>2026-04-10T15:21:51.423Z</time></trkpt><trkpt lat="46.1669042" lon="10.2876028"><ele>994.0</ele><time>2026-04-10T15:21:54.422Z</time></trkpt><trkpt lat="46.1669123" lon="10.2874855"><ele>994.0</ele><time>2026-04-10T15:22:04.423Z</time></trkpt><trkpt lat="46.1669366" lon="10.2873955"><ele>994.0</ele><time>2026-04-10T15:22:06.424Z</time></trkpt><trkpt lat="46.1669521" lon="10.2872715"><ele>994.4999999999999</ele><time>2026-04-10T15:22:09.423Z</time></trkpt><trkpt lat="46.1669684" lon="10.2871505"><ele>995.0</ele><time>2026-04-10T15:22:12.423Z</time></trkpt><trkpt lat="46.1670045" lon="10.2870698"><ele>995.5</ele><time>2026-04-10T15:22:21.424Z</time></trkpt><trkpt lat="46.1669729" lon="10.286978"><ele>996.0</ele><time>2026-04-10T15:22:54.422Z</time></trkpt><trkpt lat="46.1670225" lon="10.2868925"><ele>996.4999999999999</ele><time>2026-04-10T15:23:15.423Z</time></trkpt><trkpt lat="46.1671528" lon="10.286842"><ele>997.0</ele><time>2026-04-10T15:23:21.424Z</time></trkpt><trkpt lat="46.1672291" lon="10.2867986"><ele>996.9999999999999</ele><time>2026-04-10T15:23:23.423Z</time></trkpt><trkpt lat="46.1672968" lon="10.2867428"><ele>997.0</ele><time>2026-04-10T15:23:25.423Z</time></trkpt><trkpt lat="46.1673393" lon="10.2866652"><ele>997.0</ele><time>2026-04-10T15:23:27.424Z</time></trkpt><trkpt lat="46.1674148" lon="10.2866137"><ele>997.0</ele><time>2026-04-10T15:23:29.424Z</time></trkpt><trkpt lat="46.167483" lon="10.2865639"><ele>996.9999999999999</ele><time>2026-04-10T15:23:31.423Z</time></trkpt><trkpt lat="46.1675477" lon="10.28651"><ele>997.0</ele><time>2026-04-10T15:23:33.424Z</time></trkpt><trkpt lat="46.1676106" lon="10.2864548"><ele>995.1666666666666</ele><time>2026-04-10T15:23:35.424Z</time></trkpt><trkpt lat="46.1676748" lon="10.286403"><ele>993.3333333333333</ele><time>2026-04-10T15:23:38.425Z</time></trkpt><trkpt lat="46.1677486" lon="10.2863712"><ele>991.5</ele><time>2026-04-10T15:23:57.424Z</time></trkpt><trkpt lat="46.1678188" lon="10.2862958"><ele>989.6666666666667</ele><time>2026-04-10T15:24:01.423Z</time></trkpt><trkpt lat="46.1678571" lon="10.2862058"><ele>987.8333333333334</ele><time>2026-04-10T15:24:05.423Z</time></trkpt><trkpt lat="46.1678828" lon="10.2861175"><ele>986.0</ele><time>2026-04-10T15:24:08.424Z</time></trkpt><trkpt lat="46.1679321" lon="10.2860151"><ele>986.0</ele><time>2026-04-10T15:24:11.425Z</time></trkpt><trkpt lat="46.1679732" lon="10.2859411"><ele>986.0</ele><time>2026-04-10T15:24:14.425Z</time></trkpt><trkpt lat="46.168015" lon="10.2858649"><ele>986.0</ele><time>2026-04-10T15:24:17.423Z</time></trkpt><trkpt lat="46.1680644" lon="10.2857577"><ele>986.0</ele><time>2026-04-10T15:24:21.424Z</time></trkpt><trkpt lat="46.1681007" lon="10.2856716"><ele>986.0</ele><time>2026-04-10T15:24:41.423Z</time></trkpt><trkpt lat="46.168132" lon="10.2855724"><ele>986.0</ele><time>2026-04-10T15:24:45.424Z</time></trkpt><trkpt lat="46.1681624" lon="10.2854723"><ele>986.0</ele><time>2026-04-10T15:24:48.424Z</time></trkpt><trkpt lat="46.1681764" lon="10.2853453"><ele>982.4285714285713</ele><time>2026-04-10T15:24:50.425Z</time></trkpt><trkpt lat="46.1681972" lon="10.2852579"><ele>978.8571428571429</ele><time>2026-04-10T15:24:52.424Z</time></trkpt><trkpt lat="46.168225" lon="10.2851541"><ele>975.2857142857142</ele><time>2026-04-10T15:24:55.424Z</time></trkpt><trkpt lat="46.1682535" lon="10.2850497"><ele>971.7142857142857</ele><time>2026-04-10T15:24:59.424Z</time></trkpt><trkpt lat="46.168304" lon="10.2849551"><ele>968.1428571428571</ele><time>2026-04-10T15:25:02.424Z</time></trkpt><trkpt lat="46.16835" lon="10.2848607"><ele>964.5714285714286</ele><time>2026-04-10T15:25:05.424Z</time></trkpt><trkpt lat="46.1683857" lon="10.2847792"><ele>961.0</ele><time>2026-04-10T15:25:07.425Z</time></trkpt><trkpt lat="46.1684462" lon="10.284671"><ele>960.9999999999999</ele><time>2026-04-10T15:25:10.425Z</time></trkpt><trkpt lat="46.168509" lon="10.2846242"><ele>961.0</ele><time>2026-04-10T15:25:12.424Z</time></trkpt><trkpt lat="46.1685635" lon="10.2845181"><ele>961.0</ele><time>2026-04-10T15:25:14.425Z</time></trkpt><trkpt lat="46.1685684" lon="10.2844085"><ele>961.0</ele><time>2026-04-10T15:25:17.424Z</time></trkpt><trkpt lat="46.1685818" lon="10.2843155"><ele>960.9999999999999</ele><time>2026-04-10T15:25:19.424Z</time></trkpt><trkpt lat="46.168612" lon="10.284213"><ele>961.0</ele><time>2026-04-10T15:25:21.423Z</time></trkpt><trkpt lat="46.1686448" lon="10.2840795"><ele>960.9999999999999</ele><time>2026-04-10T15:25:24.424Z</time></trkpt><trkpt lat="46.1686625" lon="10.2839685"><ele>961.0</ele><time>2026-04-10T15:25:27.425Z</time></trkpt><trkpt lat="46.1687076" lon="10.2838907"><ele>961.0</ele><time>2026-04-10T15:25:30.423Z</time></trkpt><trkpt lat="46.1687609" lon="10.2838058"><ele>961.0</ele><time>2026-04-10T15:25:34.424Z</time></trkpt><trkpt lat="46.1688363" lon="10.2837642"><ele>960.9999999999999</ele><time>2026-04-10T15:25:37.424Z</time></trkpt><trkpt lat="46.1688529" lon="10.2836411"><ele>961.0</ele><time>2026-04-10T15:25:41.425Z</time></trkpt><trkpt lat="46.1688413" lon="10.2835513"><ele>961.4285714285713</ele><time>2026-04-10T15:25:48.423Z</time></trkpt><trkpt lat="46.1688783" lon="10.2834489"><ele>961.8571428571428</ele><time>2026-04-10T15:25:51.425Z</time></trkpt><trkpt lat="46.1689054" lon="10.2833614"><ele>962.2857142857142</ele><time>2026-04-10T15:25:54.424Z</time></trkpt><trkpt lat="46.1689212" lon="10.2832715"><ele>962.7142857142858</ele><time>2026-04-10T15:25:56.423Z</time></trkpt><trkpt lat="46.1688981" lon="10.2831577"><ele>963.1428571428572</ele><time>2026-04-10T15:25:59.425Z</time></trkpt><trkpt lat="46.1689203" lon="10.2830665"><ele>963.5714285714287</ele><time>2026-04-10T15:26:03.424Z</time></trkpt><trkpt lat="46.1689211" lon="10.2829655"><ele>964.0</ele><time>2026-04-10T15:26:05.423Z</time></trkpt><trkpt lat="46.1689289" lon="10.2828709"><ele>963.1428571428572</ele><time>2026-04-10T15:26:07.423Z</time></trkpt><trkpt lat="46.168939" lon="10.2827796"><ele>962.2857142857144</ele><time>2026-04-10T15:26:09.425Z</time></trkpt><trkpt lat="46.1689326" lon="10.2826749"><ele>961.4285714285714</ele><time>2026-04-10T15:26:12.423Z</time></trkpt><trkpt lat="46.1689077" lon="10.2825721"><ele>960.5714285714287</ele><time>2026-04-10T15:26:16.423Z</time></trkpt><trkpt lat="46.1689072" lon="10.2824654"><ele>959.7142857142858</ele><time>2026-04-10T15:26:19.424Z</time></trkpt><trkpt lat="46.1689153" lon="10.2823591"><ele>958.8571428571429</ele><time>2026-04-10T15:26:22.424Z</time></trkpt><trkpt lat="46.1689349" lon="10.2822461"><ele>958.0</ele><time>2026-04-10T15:26:25.424Z</time></trkpt><trkpt lat="46.1689474" lon="10.2821162"><ele>956.5714285714286</ele><time>2026-04-10T15:26:28.424Z</time></trkpt><trkpt lat="46.1689104" lon="10.2820414"><ele>955.1428571428571</ele><time>2026-04-10T15:26:33.424Z</time></trkpt><trkpt lat="46.1688735" lon="10.2819624"><ele>953.7142857142857</ele><time>2026-04-10T15:27:28.424Z</time></trkpt><trkpt lat="46.1688222" lon="10.281903"><ele>952.2857142857142</ele><time>2026-04-10T15:27:37.424Z</time></trkpt><trkpt lat="46.1688157" lon="10.281787"><ele>950.8571428571429</ele><time>2026-04-10T15:27:41.423Z</time></trkpt><trkpt lat="46.168785" lon="10.2816752"><ele>949.4285714285713</ele><time>2026-04-10T15:27:45.425Z</time></trkpt><trkpt lat="46.1687364" lon="10.2815735"><ele>947.9999999999999</ele><time>2026-04-10T15:27:48.423Z</time></trkpt><trkpt lat="46.1687041" lon="10.2814837"><ele>945.5714285714284</ele><time>2026-04-10T15:27:51.425Z</time></trkpt><trkpt lat="46.1686709" lon="10.2813561"><ele>943.1428571428571</ele><time>2026-04-10T15:27:54.423Z</time></trkpt><trkpt lat="46.168676" lon="10.2812508"><ele>940.7142857142857</ele><time>2026-04-10T15:27:59.425Z</time></trkpt><trkpt lat="46.1686342" lon="10.2811787"><ele>938.2857142857142</ele><time>2026-04-10T15:28:02.425Z</time></trkpt><trkpt lat="46.1685834" lon="10.281101"><ele>935.8571428571429</ele><time>2026-04-10T15:28:05.425Z</time></trkpt><trkpt lat="46.1685709" lon="10.281008"><ele>933.4285714285714</ele><time>2026-04-10T15:28:08.424Z</time></trkpt><trkpt lat="46.1685496" lon="10.2809177"><ele>931.0</ele><time>2026-04-10T15:28:11.425Z</time></trkpt><trkpt lat="46.1685027" lon="10.2808197"><ele>931.0</ele><time>2026-04-10T15:28:15.423Z</time></trkpt><trkpt lat="46.1684584" lon="10.2807345"><ele>931.0</ele><time>2026-04-10T15:28:18.424Z</time></trkpt><trkpt lat="46.1684188" lon="10.2806599"><ele>931.0</ele><time>2026-04-10T15:28:21.423Z</time></trkpt><trkpt lat="46.1683812" lon="10.2805614"><ele>931.0</ele><time>2026-04-10T15:28:25.423Z</time></trkpt><trkpt lat="46.1683627" lon="10.2804523"><ele>931.0</ele><time>2026-04-10T15:28:28.424Z</time></trkpt><trkpt lat="46.1683631" lon="10.2803524"><ele>931.0</ele><time>2026-04-10T15:28:30.425Z</time></trkpt><trkpt lat="46.1683617" lon="10.2802425"><ele>931.0</ele><time>2026-04-10T15:28:32.425Z</time></trkpt><trkpt lat="46.168373" lon="10.2801056"><ele>928.8333333333333</ele><time>2026-04-10T15:28:34.423Z</time></trkpt><trkpt lat="46.1684022" lon="10.2799898"><ele>926.6666666666666</ele><time>2026-04-10T15:28:36.424Z</time></trkpt><trkpt lat="46.1684157" lon="10.2798851"><ele>924.5</ele><time>2026-04-10T15:28:38.423Z</time></trkpt><trkpt lat="46.1684009" lon="10.279774"><ele>922.3333333333333</ele><time>2026-04-10T15:28:40.425Z</time></trkpt><trkpt lat="46.1683729" lon="10.27966"><ele>920.1666666666666</ele><time>2026-04-10T15:28:42.424Z</time></trkpt><trkpt lat="46.1683271" lon="10.2795889"><ele>918.0</ele><time>2026-04-10T15:28:46.424Z</time></trkpt><trkpt lat="46.1682857" lon="10.2795058"><ele>916.5714285714287</ele><time>2026-04-10T15:28:49.425Z</time></trkpt><trkpt lat="46.1682341" lon="10.2794489"><ele>915.1428571428571</ele><time>2026-04-10T15:28:52.425Z</time></trkpt><trkpt lat="46.1681814" lon="10.2793884"><ele>913.7142857142858</ele><time>2026-04-10T15:28:55.424Z</time></trkpt><trkpt lat="46.1681459" lon="10.279282"><ele>912.2857142857143</ele><time>2026-04-10T15:29:00.424Z</time></trkpt><trkpt lat="46.1681478" lon="10.2791714"><ele>910.8571428571429</ele><time>2026-04-10T15:29:03.424Z</time></trkpt><trkpt lat="46.1681395" lon="10.2790741"><ele>909.4285714285714</ele><time>2026-04-10T15:29:06.424Z</time></trkpt><trkpt lat="46.1681004" lon="10.2789822"><ele>908.0</ele><time>2026-04-10T15:29:10.424Z</time></trkpt><trkpt lat="46.1680787" lon="10.2788868"><ele>913.0</ele><time>2026-04-10T15:29:13.424Z</time></trkpt><trkpt lat="46.1680586" lon="10.2787922"><ele>918.0000000000001</ele><time>2026-04-10T15:29:16.424Z</time></trkpt><trkpt lat="46.1680356" lon="10.2786905"><ele>923.0</ele><time>2026-04-10T15:29:19.424Z</time></trkpt><trkpt lat="46.1680004" lon="10.2786039"><ele>928.0</ele><time>2026-04-10T15:29:23.424Z</time></trkpt><trkpt lat="46.1679648" lon="10.2785242"><ele>933.0000000000001</ele><time>2026-04-10T15:29:27.423Z</time></trkpt><trkpt lat="46.1679166" lon="10.278427"><ele>938.0</ele><time>2026-04-10T15:29:31.424Z</time></trkpt><trkpt lat="46.1678622" lon="10.2783369"><ele>943.0</ele><time>2026-04-10T15:29:34.425Z</time></trkpt><trkpt lat="46.1678238" lon="10.2782552"><ele>942.9999999999999</ele><time>2026-04-10T15:29:36.423Z</time></trkpt><trkpt lat="46.167814" lon="10.2781639"><ele>943.0</ele><time>2026-04-10T15:29:39.424Z</time></trkpt><trkpt lat="46.1678437" lon="10.2780605"><ele>943.0</ele><time>2026-04-10T15:29:43.424Z</time></trkpt><trkpt lat="46.1678706" lon="10.2779555"><ele>943.0</ele><time>2026-04-10T15:29:45.424Z</time></trkpt><trkpt lat="46.1678873" lon="10.2778372"><ele>942.9999999999999</ele><time>2026-04-10T15:29:47.423Z</time></trkpt><trkpt lat="46.1678882" lon="10.2777327"><ele>943.0</ele><time>2026-04-10T15:29:49.424Z</time></trkpt><trkpt lat="46.1678716" lon="10.277614"><ele>941.4999999999999</ele><time>2026-04-10T15:29:52.424Z</time></trkpt><trkpt lat="46.1678535" lon="10.2774953"><ele>940.0</ele><time>2026-04-10T15:29:55.424Z</time></trkpt><trkpt lat="46.1678464" lon="10.2773707"><ele>938.5</ele><time>2026-04-10T15:29:58.424Z</time></trkpt><trkpt lat="46.1678604" lon="10.2772785"><ele>937.0</ele><time>2026-04-10T15:30:00.423Z</time></trkpt><trkpt lat="46.1678532" lon="10.2771839"><ele>935.4999999999999</ele><time>2026-04-10T15:30:02.424Z</time></trkpt><trkpt lat="46.1678339" lon="10.2770721"><ele>934.0</ele><time>2026-04-10T15:30:04.424Z</time></trkpt><trkpt lat="46.167822" lon="10.2769679"><ele>932.7142857142856</ele><time>2026-04-10T15:30:06.425Z</time></trkpt><trkpt lat="46.1678048" lon="10.2768643"><ele>931.4285714285713</ele><time>2026-04-10T15:30:09.424Z</time></trkpt><trkpt lat="46.1677807" lon="10.2767545"><ele>930.1428571428571</ele><time>2026-04-10T15:30:13.425Z</time></trkpt><trkpt lat="46.1677711" lon="10.2766366"><ele>928.8571428571428</ele><time>2026-04-10T15:30:17.425Z</time></trkpt><trkpt lat="46.1677567" lon="10.2765184"><ele>927.5714285714284</ele><time>2026-04-10T15:30:21.425Z</time></trkpt><trkpt lat="46.1677371" lon="10.2764251"><ele>926.2857142857143</ele><time>2026-04-10T15:30:38.425Z</time></trkpt><trkpt lat="46.1677233" lon="10.2763364"><ele>925.0</ele><time>2026-04-10T15:30:42.424Z</time></trkpt><trkpt lat="46.167691" lon="10.276248"><ele>922.8333333333333</ele><time>2026-04-10T15:30:51.423Z</time></trkpt><trkpt lat="46.167664" lon="10.2761378"><ele>920.6666666666666</ele><time>2026-04-10T15:30:55.425Z</time></trkpt><trkpt lat="46.1676641" lon="10.2760294"><ele>918.5</ele><time>2026-04-10T15:30:58.424Z</time></trkpt><trkpt lat="46.1676822" lon="10.2758985"><ele>916.3333333333333</ele><time>2026-04-10T15:31:01.425Z</time></trkpt><trkpt lat="46.1676947" lon="10.2758094"><ele>914.1666666666666</ele><time>2026-04-10T15:31:03.425Z</time></trkpt><trkpt lat="46.1677185" lon="10.275691"><ele>912.0</ele><time>2026-04-10T15:31:06.423Z</time></trkpt><trkpt lat="46.1677161" lon="10.2755979"><ele>910.8333333333334</ele><time>2026-04-10T15:31:08.424Z</time></trkpt><trkpt lat="46.1676983" lon="10.2754657"><ele>909.6666666666667</ele><time>2026-04-10T15:31:11.425Z</time></trkpt><trkpt lat="46.1676932" lon="10.2753722"><ele>908.5</ele><time>2026-04-10T15:31:13.424Z</time></trkpt><trkpt lat="46.1676926" lon="10.2752688"><ele>907.3333333333334</ele><time>2026-04-10T15:31:15.424Z</time></trkpt><trkpt lat="46.1676972" lon="10.2751704"><ele>906.1666666666667</ele><time>2026-04-10T15:31:17.425Z</time></trkpt><trkpt lat="46.1677022" lon="10.2750373"><ele>905.0</ele><time>2026-04-10T15:31:20.425Z</time></trkpt><trkpt lat="46.1676874" lon="10.2749174"><ele>905.0</ele><time>2026-04-10T15:31:23.423Z</time></trkpt><trkpt lat="46.1676664" lon="10.2748293"><ele>904.9999999999999</ele><time>2026-04-10T15:31:26.426Z</time></trkpt><trkpt lat="46.1676407" lon="10.2747426"><ele>905.0</ele><time>2026-04-10T15:31:31.425Z</time></trkpt><trkpt lat="46.1675949" lon="10.2746275"><ele>905.0</ele><time>2026-04-10T15:31:46.425Z</time></trkpt><trkpt lat="46.1675517" lon="10.2745487"><ele>904.9999999999999</ele><time>2026-04-10T15:31:48.424Z</time></trkpt><trkpt lat="46.1675096" lon="10.2744798"><ele>905.0</ele><time>2026-04-10T15:31:50.426Z</time></trkpt><trkpt lat="46.1674846" lon="10.2743619"><ele>905.0</ele><time>2026-04-10T15:31:53.425Z</time></trkpt><trkpt lat="46.1675439" lon="10.2743099"><ele>904.4285714285713</ele><time>2026-04-10T15:31:55.424Z</time></trkpt><trkpt lat="46.1676057" lon="10.2742528"><ele>903.8571428571428</ele><time>2026-04-10T15:31:58.425Z</time></trkpt><trkpt lat="46.1676881" lon="10.2741974"><ele>903.2857142857142</ele><time>2026-04-10T15:32:00.426Z</time></trkpt><trkpt lat="46.167746" lon="10.2741599"><ele>902.7142857142858</ele><time>2026-04-10T15:32:02.425Z</time></trkpt><trkpt lat="46.1677287" lon="10.27406"><ele>902.1428571428572</ele><time>2026-04-10T15:32:07.426Z</time></trkpt><trkpt lat="46.1676828" lon="10.2739941"><ele>901.5714285714287</ele><time>2026-04-10T15:32:10.424Z</time></trkpt><trkpt lat="46.167642" lon="10.273924"><ele>901.0</ele><time>2026-04-10T15:32:12.425Z</time></trkpt><trkpt lat="46.1675899" lon="10.2738272"><ele>900.4999999999999</ele><time>2026-04-10T15:32:15.425Z</time></trkpt><trkpt lat="46.16757" lon="10.2737371"><ele>900.0</ele><time>2026-04-10T15:32:17.425Z</time></trkpt><trkpt lat="46.1675412" lon="10.273616"><ele>899.5</ele><time>2026-04-10T15:32:20.424Z</time></trkpt><trkpt lat="46.1675225" lon="10.2734753"><ele>899.0</ele><time>2026-04-10T15:32:23.425Z</time></trkpt><trkpt lat="46.1675104" lon="10.2733573"><ele>898.4999999999999</ele><time>2026-04-10T15:32:25.425Z</time></trkpt><trkpt lat="46.1675007" lon="10.2732453"><ele>898.0</ele><time>2026-04-10T15:32:27.426Z</time></trkpt><trkpt lat="46.1675122" lon="10.2731266"><ele>898.0</ele><time>2026-04-10T15:32:30.424Z</time></trkpt><trkpt lat="46.1675191" lon="10.2730284"><ele>896.0</ele><time>2026-04-10T15:32:34.425Z</time></trkpt><trkpt lat="46.1675219" lon="10.2729271"><ele>896.0</ele><time>2026-04-10T15:32:51.426Z</time></trkpt></trkseg></trk></gpx>